<?xml version="1.0" encoding="UTF-8" standalone="no" ?>
<gpx xmlns="http://www.topografix.com/GPX/1/1" xmlns:xsi="http://www.w3.org/2001/XMLSchema-instance" xsi:schemaLocation="http://www.topografix.com/GPX/1/1 http://www.topografix.com/GPX/1/1/gpx.xsd" version="1.1" creator="VisuGPX - https://www.visugpx.com">
  <metadata>
    <name>Roz sur Coesnon - St Méloire des Ondes</name>
    <desc><![CDATA[itinéraire par la plage pour rejoindre St Méloire des Ondes.
N.B. il y a une autre option plus au Sud par le Mont Dol, super auss]]></desc>
  </metadata>
  <trk>
    <name><![CDATA[OR-6937801--Roz-sur-Couesnon:Roz sur Coesnon - St Méloire des ondes par la cote]]></name>
    <trkseg>
      <trkpt lat="48.58918" lon="-1.58469">
        <ele>11</ele>
        <time>2017-01-13T21:55:29Z</time>
      </trkpt>
      <trkpt lat="48.5891" lon="-1.5848">
        <ele>14</ele>
        <time>2017-01-13T21:57:29Z</time>
      </trkpt>
      <trkpt lat="48.58909" lon="-1.58486">
        <ele>14</ele>
        <time>2017-01-13T21:59:29Z</time>
      </trkpt>
      <trkpt lat="48.58916" lon="-1.58478">
        <ele>12</ele>
        <time>2017-01-13T22:01:29Z</time>
      </trkpt>
      <trkpt lat="48.58918" lon="-1.5847">
        <ele>11</ele>
        <time>2017-01-13T22:03:29Z</time>
      </trkpt>
      <trkpt lat="48.58914" lon="-1.58466">
        <ele>12</ele>
        <time>2017-01-13T22:05:29Z</time>
      </trkpt>
      <trkpt lat="48.58919" lon="-1.58458">
        <ele>10</ele>
        <time>2017-01-13T22:07:29Z</time>
      </trkpt>
      <trkpt lat="48.58926" lon="-1.58454">
        <ele>10</ele>
        <time>2017-01-13T22:09:29Z</time>
      </trkpt>
      <trkpt lat="48.58933" lon="-1.58462">
        <ele>10</ele>
        <time>2017-01-13T22:11:29Z</time>
      </trkpt>
      <trkpt lat="48.58947" lon="-1.58492">
        <ele>10</ele>
        <time>2017-01-13T22:13:29Z</time>
      </trkpt>
      <trkpt lat="48.58951" lon="-1.58505">
        <ele>11</ele>
        <time>2017-01-13T22:15:29Z</time>
      </trkpt>
      <trkpt lat="48.58955" lon="-1.58516">
        <ele>11</ele>
        <time>2017-01-13T22:17:29Z</time>
      </trkpt>
      <trkpt lat="48.58962" lon="-1.58535">
        <ele>11</ele>
        <time>2017-01-13T22:19:29Z</time>
      </trkpt>
      <trkpt lat="48.58965" lon="-1.58546">
        <ele>12</ele>
        <time>2017-01-13T22:21:29Z</time>
      </trkpt>
      <trkpt lat="48.58969" lon="-1.5856">
        <ele>12</ele>
        <time>2017-01-13T22:23:29Z</time>
      </trkpt>
      <trkpt lat="48.5898" lon="-1.58584">
        <ele>11</ele>
        <time>2017-01-13T22:25:29Z</time>
      </trkpt>
      <trkpt lat="48.58983" lon="-1.58597">
        <ele>11</ele>
        <time>2017-01-13T22:27:29Z</time>
      </trkpt>
      <trkpt lat="48.58986" lon="-1.58607">
        <ele>11</ele>
        <time>2017-01-13T22:29:29Z</time>
      </trkpt>
      <trkpt lat="48.5899" lon="-1.58616">
        <ele>11</ele>
        <time>2017-01-13T22:31:29Z</time>
      </trkpt>
      <trkpt lat="48.58994" lon="-1.58626">
        <ele>10</ele>
        <time>2017-01-13T22:33:29Z</time>
      </trkpt>
      <trkpt lat="48.58998" lon="-1.58635">
        <ele>9</ele>
        <time>2017-01-13T22:35:29Z</time>
      </trkpt>
      <trkpt lat="48.59005" lon="-1.5866">
        <ele>9</ele>
        <time>2017-01-13T22:37:29Z</time>
      </trkpt>
      <trkpt lat="48.59015" lon="-1.58688">
        <ele>10</ele>
        <time>2017-01-13T22:39:29Z</time>
      </trkpt>
      <trkpt lat="48.59023" lon="-1.58706">
        <ele>10</ele>
        <time>2017-01-13T22:41:29Z</time>
      </trkpt>
      <trkpt lat="48.5903" lon="-1.58727">
        <ele>10</ele>
        <time>2017-01-13T22:43:29Z</time>
      </trkpt>
      <trkpt lat="48.59035" lon="-1.58742">
        <ele>11</ele>
        <time>2017-01-13T22:45:29Z</time>
      </trkpt>
      <trkpt lat="48.59039" lon="-1.58757">
        <ele>11</ele>
        <time>2017-01-13T22:47:29Z</time>
      </trkpt>
      <trkpt lat="48.59043" lon="-1.58768">
        <ele>11</ele>
        <time>2017-01-13T22:49:29Z</time>
      </trkpt>
      <trkpt lat="48.59053" lon="-1.58793">
        <ele>10</ele>
        <time>2017-01-13T22:51:29Z</time>
      </trkpt>
      <trkpt lat="48.59057" lon="-1.58806">
        <ele>10</ele>
        <time>2017-01-13T22:53:29Z</time>
      </trkpt>
      <trkpt lat="48.5906" lon="-1.58818">
        <ele>10</ele>
        <time>2017-01-13T22:55:29Z</time>
      </trkpt>
      <trkpt lat="48.59065" lon="-1.58829">
        <ele>10</ele>
        <time>2017-01-13T22:57:29Z</time>
      </trkpt>
      <trkpt lat="48.59075" lon="-1.58847">
        <ele>9</ele>
        <time>2017-01-13T22:59:29Z</time>
      </trkpt>
      <trkpt lat="48.59079" lon="-1.58869">
        <ele>9</ele>
        <time>2017-01-13T23:01:29Z</time>
      </trkpt>
      <trkpt lat="48.59088" lon="-1.58898">
        <ele>9</ele>
        <time>2017-01-13T23:03:29Z</time>
      </trkpt>
      <trkpt lat="48.59091" lon="-1.5891">
        <ele>9</ele>
        <time>2017-01-13T23:05:29Z</time>
      </trkpt>
      <trkpt lat="48.59096" lon="-1.58919">
        <ele>9</ele>
        <time>2017-01-13T23:07:29Z</time>
      </trkpt>
      <trkpt lat="48.59098" lon="-1.58928">
        <ele>10</ele>
        <time>2017-01-13T23:09:29Z</time>
      </trkpt>
      <trkpt lat="48.59102" lon="-1.58937">
        <ele>10</ele>
        <time>2017-01-13T23:11:29Z</time>
      </trkpt>
      <trkpt lat="48.59106" lon="-1.58948">
        <ele>11</ele>
        <time>2017-01-13T23:13:29Z</time>
      </trkpt>
      <trkpt lat="48.59113" lon="-1.58965">
        <ele>12</ele>
        <time>2017-01-13T23:15:29Z</time>
      </trkpt>
      <trkpt lat="48.59122" lon="-1.58993">
        <ele>14</ele>
        <time>2017-01-13T23:17:29Z</time>
      </trkpt>
      <trkpt lat="48.59127" lon="-1.59004">
        <ele>14</ele>
        <time>2017-01-13T23:19:29Z</time>
      </trkpt>
      <trkpt lat="48.59133" lon="-1.5901">
        <ele>14</ele>
        <time>2017-01-13T23:21:29Z</time>
      </trkpt>
      <trkpt lat="48.59134" lon="-1.5902">
        <ele>15</ele>
        <time>2017-01-13T23:23:29Z</time>
      </trkpt>
      <trkpt lat="48.59136" lon="-1.59032">
        <ele>16</ele>
        <time>2017-01-13T23:25:29Z</time>
      </trkpt>
      <trkpt lat="48.59139" lon="-1.59044">
        <ele>16</ele>
        <time>2017-01-13T23:27:29Z</time>
      </trkpt>
      <trkpt lat="48.59146" lon="-1.59061">
        <ele>16</ele>
        <time>2017-01-13T23:29:29Z</time>
      </trkpt>
      <trkpt lat="48.59147" lon="-1.59076">
        <ele>17</ele>
        <time>2017-01-13T23:31:29Z</time>
      </trkpt>
      <trkpt lat="48.59143" lon="-1.59085">
        <ele>18</ele>
        <time>2017-01-13T23:33:29Z</time>
      </trkpt>
      <trkpt lat="48.59141" lon="-1.59098">
        <ele>20</ele>
        <time>2017-01-13T23:35:29Z</time>
      </trkpt>
      <trkpt lat="48.59148" lon="-1.59103">
        <ele>18</ele>
        <time>2017-01-13T23:37:29Z</time>
      </trkpt>
      <trkpt lat="48.59154" lon="-1.59106">
        <ele>17</ele>
        <time>2017-01-13T23:39:29Z</time>
      </trkpt>
      <trkpt lat="48.59162" lon="-1.59113">
        <ele>15</ele>
        <time>2017-01-13T23:41:29Z</time>
      </trkpt>
      <trkpt lat="48.59167" lon="-1.59125">
        <ele>14</ele>
        <time>2017-01-13T23:43:29Z</time>
      </trkpt>
      <trkpt lat="48.59176" lon="-1.59154">
        <ele>14</ele>
        <time>2017-01-13T23:45:29Z</time>
      </trkpt>
      <trkpt lat="48.59179" lon="-1.59167">
        <ele>14</ele>
        <time>2017-01-13T23:47:29Z</time>
      </trkpt>
      <trkpt lat="48.59189" lon="-1.59197">
        <ele>16</ele>
        <time>2017-01-13T23:49:29Z</time>
      </trkpt>
      <trkpt lat="48.59193" lon="-1.59213">
        <ele>17</ele>
        <time>2017-01-13T23:51:29Z</time>
      </trkpt>
      <trkpt lat="48.59197" lon="-1.59227">
        <ele>18</ele>
        <time>2017-01-13T23:53:29Z</time>
      </trkpt>
      <trkpt lat="48.59203" lon="-1.59236">
        <ele>17</ele>
        <time>2017-01-13T23:55:29Z</time>
      </trkpt>
      <trkpt lat="48.59207" lon="-1.59249">
        <ele>17</ele>
        <time>2017-01-13T23:57:29Z</time>
      </trkpt>
      <trkpt lat="48.59212" lon="-1.59263">
        <ele>18</ele>
        <time>2017-01-13T23:59:29Z</time>
      </trkpt>
      <trkpt lat="48.59218" lon="-1.59277">
        <ele>18</ele>
        <time>2017-01-14T00:01:29Z</time>
      </trkpt>
      <trkpt lat="48.59223" lon="-1.59289">
        <ele>18</ele>
        <time>2017-01-14T00:03:29Z</time>
      </trkpt>
      <trkpt lat="48.59227" lon="-1.59303">
        <ele>18</ele>
        <time>2017-01-14T00:05:29Z</time>
      </trkpt>
      <trkpt lat="48.59236" lon="-1.59331">
        <ele>18</ele>
        <time>2017-01-14T00:07:29Z</time>
      </trkpt>
      <trkpt lat="48.59241" lon="-1.59343">
        <ele>18</ele>
        <time>2017-01-14T00:09:29Z</time>
      </trkpt>
      <trkpt lat="48.59246" lon="-1.59355">
        <ele>18</ele>
        <time>2017-01-14T00:11:29Z</time>
      </trkpt>
      <trkpt lat="48.59258" lon="-1.59382">
        <ele>20</ele>
        <time>2017-01-14T00:13:29Z</time>
      </trkpt>
      <trkpt lat="48.59268" lon="-1.5941">
        <ele>22</ele>
        <time>2017-01-14T00:15:29Z</time>
      </trkpt>
      <trkpt lat="48.59272" lon="-1.59424">
        <ele>23</ele>
        <time>2017-01-14T00:17:29Z</time>
      </trkpt>
      <trkpt lat="48.59278" lon="-1.59437">
        <ele>23</ele>
        <time>2017-01-14T00:19:29Z</time>
      </trkpt>
      <trkpt lat="48.59292" lon="-1.59477">
        <ele>24</ele>
        <time>2017-01-14T00:21:29Z</time>
      </trkpt>
      <trkpt lat="48.59298" lon="-1.59489">
        <ele>24</ele>
        <time>2017-01-14T00:23:29Z</time>
      </trkpt>
      <trkpt lat="48.59304" lon="-1.59505">
        <ele>23</ele>
        <time>2017-01-14T00:25:29Z</time>
      </trkpt>
      <trkpt lat="48.59307" lon="-1.59522">
        <ele>23</ele>
        <time>2017-01-14T00:27:29Z</time>
      </trkpt>
      <trkpt lat="48.59312" lon="-1.59537">
        <ele>22</ele>
        <time>2017-01-14T00:29:29Z</time>
      </trkpt>
      <trkpt lat="48.59319" lon="-1.59565">
        <ele>20</ele>
        <time>2017-01-14T00:31:29Z</time>
      </trkpt>
      <trkpt lat="48.59323" lon="-1.5958">
        <ele>19</ele>
        <time>2017-01-14T00:33:29Z</time>
      </trkpt>
      <trkpt lat="48.59325" lon="-1.59593">
        <ele>19</ele>
        <time>2017-01-14T00:35:29Z</time>
      </trkpt>
      <trkpt lat="48.5933" lon="-1.59607">
        <ele>17</ele>
        <time>2017-01-14T00:37:29Z</time>
      </trkpt>
      <trkpt lat="48.59334" lon="-1.59619">
        <ele>16</ele>
        <time>2017-01-14T00:39:29Z</time>
      </trkpt>
      <trkpt lat="48.59339" lon="-1.59633">
        <ele>16</ele>
        <time>2017-01-14T00:41:29Z</time>
      </trkpt>
      <trkpt lat="48.59355" lon="-1.5967">
        <ele>16</ele>
        <time>2017-01-14T00:43:29Z</time>
      </trkpt>
      <trkpt lat="48.59359" lon="-1.59683">
        <ele>16</ele>
        <time>2017-01-14T00:45:29Z</time>
      </trkpt>
      <trkpt lat="48.59362" lon="-1.59697">
        <ele>17</ele>
        <time>2017-01-14T00:47:29Z</time>
      </trkpt>
      <trkpt lat="48.59367" lon="-1.5971">
        <ele>17</ele>
        <time>2017-01-14T00:49:29Z</time>
      </trkpt>
      <trkpt lat="48.59371" lon="-1.59723">
        <ele>17</ele>
        <time>2017-01-14T00:51:29Z</time>
      </trkpt>
      <trkpt lat="48.59377" lon="-1.59736">
        <ele>17</ele>
        <time>2017-01-14T00:53:29Z</time>
      </trkpt>
      <trkpt lat="48.59382" lon="-1.59749">
        <ele>16</ele>
        <time>2017-01-14T00:55:29Z</time>
      </trkpt>
      <trkpt lat="48.59395" lon="-1.5979">
        <ele>16</ele>
        <time>2017-01-14T00:57:29Z</time>
      </trkpt>
      <trkpt lat="48.59407" lon="-1.59817">
        <ele>15</ele>
        <time>2017-01-14T00:59:29Z</time>
      </trkpt>
      <trkpt lat="48.59415" lon="-1.59846">
        <ele>14</ele>
        <time>2017-01-14T01:01:29Z</time>
      </trkpt>
      <trkpt lat="48.59417" lon="-1.59859">
        <ele>15</ele>
        <time>2017-01-14T01:03:29Z</time>
      </trkpt>
      <trkpt lat="48.59419" lon="-1.59873">
        <ele>16</ele>
        <time>2017-01-14T01:05:29Z</time>
      </trkpt>
      <trkpt lat="48.5943" lon="-1.59898">
        <ele>17</ele>
        <time>2017-01-14T01:07:29Z</time>
      </trkpt>
      <trkpt lat="48.59433" lon="-1.59911">
        <ele>18</ele>
        <time>2017-01-14T01:09:29Z</time>
      </trkpt>
      <trkpt lat="48.59439" lon="-1.59925">
        <ele>18</ele>
        <time>2017-01-14T01:11:29Z</time>
      </trkpt>
      <trkpt lat="48.59444" lon="-1.59937">
        <ele>19</ele>
        <time>2017-01-14T01:13:29Z</time>
      </trkpt>
      <trkpt lat="48.59447" lon="-1.59952">
        <ele>19</ele>
        <time>2017-01-14T01:15:29Z</time>
      </trkpt>
      <trkpt lat="48.59452" lon="-1.59966">
        <ele>19</ele>
        <time>2017-01-14T01:17:29Z</time>
      </trkpt>
      <trkpt lat="48.59457" lon="-1.59979">
        <ele>19</ele>
        <time>2017-01-14T01:19:29Z</time>
      </trkpt>
      <trkpt lat="48.59463" lon="-1.59992">
        <ele>18</ele>
        <time>2017-01-14T01:21:29Z</time>
      </trkpt>
      <trkpt lat="48.59467" lon="-1.60006">
        <ele>18</ele>
        <time>2017-01-14T01:23:29Z</time>
      </trkpt>
      <trkpt lat="48.59473" lon="-1.60021">
        <ele>17</ele>
        <time>2017-01-14T01:25:29Z</time>
      </trkpt>
      <trkpt lat="48.5948" lon="-1.60045">
        <ele>17</ele>
        <time>2017-01-14T01:27:29Z</time>
      </trkpt>
      <trkpt lat="48.59485" lon="-1.60058">
        <ele>16</ele>
        <time>2017-01-14T01:29:29Z</time>
      </trkpt>
      <trkpt lat="48.59491" lon="-1.60069">
        <ele>15</ele>
        <time>2017-01-14T01:31:29Z</time>
      </trkpt>
      <trkpt lat="48.59494" lon="-1.60082">
        <ele>14</ele>
        <time>2017-01-14T01:33:29Z</time>
      </trkpt>
      <trkpt lat="48.59498" lon="-1.60095">
        <ele>14</ele>
        <time>2017-01-14T01:35:29Z</time>
      </trkpt>
      <trkpt lat="48.59502" lon="-1.60109">
        <ele>14</ele>
        <time>2017-01-14T01:37:29Z</time>
      </trkpt>
      <trkpt lat="48.59506" lon="-1.60123">
        <ele>15</ele>
        <time>2017-01-14T01:39:29Z</time>
      </trkpt>
      <trkpt lat="48.59513" lon="-1.60136">
        <ele>15</ele>
        <time>2017-01-14T01:41:29Z</time>
      </trkpt>
      <trkpt lat="48.59518" lon="-1.6015">
        <ele>16</ele>
        <time>2017-01-14T01:43:29Z</time>
      </trkpt>
      <trkpt lat="48.5952" lon="-1.60165">
        <ele>17</ele>
        <time>2017-01-14T01:45:29Z</time>
      </trkpt>
      <trkpt lat="48.59523" lon="-1.60178">
        <ele>17</ele>
        <time>2017-01-14T01:47:29Z</time>
      </trkpt>
      <trkpt lat="48.59527" lon="-1.6019">
        <ele>17</ele>
        <time>2017-01-14T01:49:29Z</time>
      </trkpt>
      <trkpt lat="48.59531" lon="-1.60203">
        <ele>17</ele>
        <time>2017-01-14T01:51:29Z</time>
      </trkpt>
      <trkpt lat="48.59534" lon="-1.60216">
        <ele>17</ele>
        <time>2017-01-14T01:53:29Z</time>
      </trkpt>
      <trkpt lat="48.59536" lon="-1.6023">
        <ele>17</ele>
        <time>2017-01-14T01:55:29Z</time>
      </trkpt>
      <trkpt lat="48.59537" lon="-1.60246">
        <ele>17</ele>
        <time>2017-01-14T01:57:29Z</time>
      </trkpt>
      <trkpt lat="48.59537" lon="-1.60263">
        <ele>18</ele>
        <time>2017-01-14T01:59:29Z</time>
      </trkpt>
      <trkpt lat="48.59539" lon="-1.6028">
        <ele>18</ele>
        <time>2017-01-14T02:01:29Z</time>
      </trkpt>
      <trkpt lat="48.59541" lon="-1.60294">
        <ele>18</ele>
        <time>2017-01-14T02:03:29Z</time>
      </trkpt>
      <trkpt lat="48.59542" lon="-1.60325">
        <ele>18</ele>
        <time>2017-01-14T02:05:29Z</time>
      </trkpt>
      <trkpt lat="48.59541" lon="-1.60342">
        <ele>18</ele>
        <time>2017-01-14T02:07:29Z</time>
      </trkpt>
      <trkpt lat="48.59541" lon="-1.60355">
        <ele>18</ele>
        <time>2017-01-14T02:09:29Z</time>
      </trkpt>
      <trkpt lat="48.5954" lon="-1.6037">
        <ele>18</ele>
        <time>2017-01-14T02:11:29Z</time>
      </trkpt>
      <trkpt lat="48.59541" lon="-1.60384">
        <ele>17</ele>
        <time>2017-01-14T02:13:29Z</time>
      </trkpt>
      <trkpt lat="48.59543" lon="-1.60398">
        <ele>16</ele>
        <time>2017-01-14T02:15:29Z</time>
      </trkpt>
      <trkpt lat="48.59543" lon="-1.60412">
        <ele>16</ele>
        <time>2017-01-14T02:17:29Z</time>
      </trkpt>
      <trkpt lat="48.59544" lon="-1.60427">
        <ele>15</ele>
        <time>2017-01-14T02:19:29Z</time>
      </trkpt>
      <trkpt lat="48.59545" lon="-1.6044">
        <ele>15</ele>
        <time>2017-01-14T02:21:29Z</time>
      </trkpt>
      <trkpt lat="48.59546" lon="-1.60457">
        <ele>15</ele>
        <time>2017-01-14T02:23:29Z</time>
      </trkpt>
      <trkpt lat="48.59548" lon="-1.6047">
        <ele>14</ele>
        <time>2017-01-14T02:25:29Z</time>
      </trkpt>
      <trkpt lat="48.59549" lon="-1.60486">
        <ele>14</ele>
        <time>2017-01-14T02:27:29Z</time>
      </trkpt>
      <trkpt lat="48.5955" lon="-1.60499">
        <ele>13</ele>
        <time>2017-01-14T02:29:29Z</time>
      </trkpt>
      <trkpt lat="48.5955" lon="-1.60514">
        <ele>14</ele>
        <time>2017-01-14T02:31:29Z</time>
      </trkpt>
      <trkpt lat="48.5955" lon="-1.60529">
        <ele>14</ele>
        <time>2017-01-14T02:33:29Z</time>
      </trkpt>
      <trkpt lat="48.59552" lon="-1.60542">
        <ele>13</ele>
        <time>2017-01-14T02:35:29Z</time>
      </trkpt>
      <trkpt lat="48.59551" lon="-1.60557">
        <ele>14</ele>
        <time>2017-01-14T02:37:29Z</time>
      </trkpt>
      <trkpt lat="48.59551" lon="-1.60571">
        <ele>14</ele>
        <time>2017-01-14T02:39:29Z</time>
      </trkpt>
      <trkpt lat="48.59552" lon="-1.60586">
        <ele>14</ele>
        <time>2017-01-14T02:41:29Z</time>
      </trkpt>
      <trkpt lat="48.59554" lon="-1.606">
        <ele>14</ele>
        <time>2017-01-14T02:43:29Z</time>
      </trkpt>
      <trkpt lat="48.59555" lon="-1.60631">
        <ele>16</ele>
        <time>2017-01-14T02:45:29Z</time>
      </trkpt>
      <trkpt lat="48.59555" lon="-1.60648">
        <ele>17</ele>
        <time>2017-01-14T02:47:29Z</time>
      </trkpt>
      <trkpt lat="48.59555" lon="-1.60678">
        <ele>19</ele>
        <time>2017-01-14T02:49:29Z</time>
      </trkpt>
      <trkpt lat="48.59556" lon="-1.60693">
        <ele>19</ele>
        <time>2017-01-14T02:51:29Z</time>
      </trkpt>
      <trkpt lat="48.59556" lon="-1.60708">
        <ele>19</ele>
        <time>2017-01-14T02:53:29Z</time>
      </trkpt>
      <trkpt lat="48.59557" lon="-1.60724">
        <ele>19</ele>
        <time>2017-01-14T02:55:29Z</time>
      </trkpt>
      <trkpt lat="48.59558" lon="-1.6074">
        <ele>19</ele>
        <time>2017-01-14T02:57:29Z</time>
      </trkpt>
      <trkpt lat="48.59559" lon="-1.60754">
        <ele>19</ele>
        <time>2017-01-14T02:59:29Z</time>
      </trkpt>
      <trkpt lat="48.59561" lon="-1.60768">
        <ele>18</ele>
        <time>2017-01-14T03:01:29Z</time>
      </trkpt>
      <trkpt lat="48.5956" lon="-1.60801">
        <ele>19</ele>
        <time>2017-01-14T03:03:29Z</time>
      </trkpt>
      <trkpt lat="48.59558" lon="-1.60833">
        <ele>20</ele>
        <time>2017-01-14T03:05:29Z</time>
      </trkpt>
      <trkpt lat="48.59559" lon="-1.60847">
        <ele>19</ele>
        <time>2017-01-14T03:07:29Z</time>
      </trkpt>
      <trkpt lat="48.59559" lon="-1.60863">
        <ele>19</ele>
        <time>2017-01-14T03:09:29Z</time>
      </trkpt>
      <trkpt lat="48.59557" lon="-1.60878">
        <ele>20</ele>
        <time>2017-01-14T03:11:29Z</time>
      </trkpt>
      <trkpt lat="48.59559" lon="-1.60892">
        <ele>19</ele>
        <time>2017-01-14T03:13:29Z</time>
      </trkpt>
      <trkpt lat="48.59567" lon="-1.60894">
        <ele>16</ele>
        <time>2017-01-14T03:15:29Z</time>
      </trkpt>
      <trkpt lat="48.59575" lon="-1.60884">
        <ele>13</ele>
        <time>2017-01-14T03:17:29Z</time>
      </trkpt>
      <trkpt lat="48.59581" lon="-1.6088">
        <ele>10</ele>
        <time>2017-01-14T03:19:29Z</time>
      </trkpt>
      <trkpt lat="48.59583" lon="-1.60877">
        <ele>9</ele>
        <time>2017-01-14T03:21:29Z</time>
      </trkpt>
      <trkpt lat="48.5959" lon="-1.60875">
        <ele>9</ele>
        <time>2017-01-14T03:23:29Z</time>
      </trkpt>
      <trkpt lat="48.59601" lon="-1.60868">
        <ele>8</ele>
        <time>2017-01-14T03:25:29Z</time>
      </trkpt>
      <trkpt lat="48.59631" lon="-1.60855">
        <ele>7</ele>
        <time>2017-01-14T03:27:29Z</time>
      </trkpt>
      <trkpt lat="48.59651" lon="-1.60845">
        <ele>6</ele>
        <time>2017-01-14T03:29:29Z</time>
      </trkpt>
      <trkpt lat="48.59661" lon="-1.60841">
        <ele>5</ele>
        <time>2017-01-14T03:31:29Z</time>
      </trkpt>
      <trkpt lat="48.59679" lon="-1.60831">
        <ele>5</ele>
        <time>2017-01-14T03:33:29Z</time>
      </trkpt>
      <trkpt lat="48.59698" lon="-1.60823">
        <ele>5</ele>
        <time>2017-01-14T03:35:29Z</time>
      </trkpt>
      <trkpt lat="48.59708" lon="-1.60817">
        <ele>5</ele>
        <time>2017-01-14T03:37:29Z</time>
      </trkpt>
      <trkpt lat="48.59719" lon="-1.60813">
        <ele>5</ele>
        <time>2017-01-14T03:39:29Z</time>
      </trkpt>
      <trkpt lat="48.59748" lon="-1.60799">
        <ele>6</ele>
        <time>2017-01-14T03:41:29Z</time>
      </trkpt>
      <trkpt lat="48.59776" lon="-1.60786">
        <ele>5</ele>
        <time>2017-01-14T03:43:29Z</time>
      </trkpt>
      <trkpt lat="48.59785" lon="-1.60781">
        <ele>5</ele>
        <time>2017-01-14T03:45:29Z</time>
      </trkpt>
      <trkpt lat="48.59835" lon="-1.60757">
        <ele>5</ele>
        <time>2017-01-14T03:47:29Z</time>
      </trkpt>
      <trkpt lat="48.59863" lon="-1.60743">
        <ele>5</ele>
        <time>2017-01-14T03:49:29Z</time>
      </trkpt>
      <trkpt lat="48.59873" lon="-1.60737">
        <ele>5</ele>
        <time>2017-01-14T03:51:29Z</time>
      </trkpt>
      <trkpt lat="48.59882" lon="-1.60733">
        <ele>5</ele>
        <time>2017-01-14T03:53:29Z</time>
      </trkpt>
      <trkpt lat="48.59912" lon="-1.60717">
        <ele>5</ele>
        <time>2017-01-14T03:55:29Z</time>
      </trkpt>
      <trkpt lat="48.59922" lon="-1.60712">
        <ele>5</ele>
        <time>2017-01-14T03:57:29Z</time>
      </trkpt>
      <trkpt lat="48.59931" lon="-1.60706">
        <ele>5</ele>
        <time>2017-01-14T03:59:29Z</time>
      </trkpt>
      <trkpt lat="48.5994" lon="-1.60702">
        <ele>5</ele>
        <time>2017-01-14T04:01:29Z</time>
      </trkpt>
      <trkpt lat="48.5995" lon="-1.60697">
        <ele>5</ele>
        <time>2017-01-14T04:03:29Z</time>
      </trkpt>
      <trkpt lat="48.59959" lon="-1.60694">
        <ele>5</ele>
        <time>2017-01-14T04:05:29Z</time>
      </trkpt>
      <trkpt lat="48.59989" lon="-1.60679">
        <ele>5</ele>
        <time>2017-01-14T04:07:29Z</time>
      </trkpt>
      <trkpt lat="48.59998" lon="-1.60673">
        <ele>5</ele>
        <time>2017-01-14T04:09:29Z</time>
      </trkpt>
      <trkpt lat="48.60025" lon="-1.60663">
        <ele>5</ele>
        <time>2017-01-14T04:11:29Z</time>
      </trkpt>
      <trkpt lat="48.60034" lon="-1.60666">
        <ele>5</ele>
        <time>2017-01-14T04:13:29Z</time>
      </trkpt>
      <trkpt lat="48.6004" lon="-1.60679">
        <ele>5</ele>
        <time>2017-01-14T04:15:29Z</time>
      </trkpt>
      <trkpt lat="48.60044" lon="-1.60694">
        <ele>5</ele>
        <time>2017-01-14T04:17:29Z</time>
      </trkpt>
      <trkpt lat="48.60046" lon="-1.60707">
        <ele>5</ele>
        <time>2017-01-14T04:19:29Z</time>
      </trkpt>
      <trkpt lat="48.60049" lon="-1.60723">
        <ele>5</ele>
        <time>2017-01-14T04:21:29Z</time>
      </trkpt>
      <trkpt lat="48.60051" lon="-1.60738">
        <ele>5</ele>
        <time>2017-01-14T04:23:29Z</time>
      </trkpt>
      <trkpt lat="48.60054" lon="-1.60753">
        <ele>5</ele>
        <time>2017-01-14T04:25:29Z</time>
      </trkpt>
      <trkpt lat="48.60061" lon="-1.60783">
        <ele>4</ele>
        <time>2017-01-14T04:27:29Z</time>
      </trkpt>
      <trkpt lat="48.60065" lon="-1.60816">
        <ele>4</ele>
        <time>2017-01-14T04:29:29Z</time>
      </trkpt>
      <trkpt lat="48.60068" lon="-1.60831">
        <ele>4</ele>
        <time>2017-01-14T04:31:29Z</time>
      </trkpt>
      <trkpt lat="48.6007" lon="-1.60847">
        <ele>4</ele>
        <time>2017-01-14T04:33:29Z</time>
      </trkpt>
      <trkpt lat="48.60072" lon="-1.6086">
        <ele>4</ele>
        <time>2017-01-14T04:35:29Z</time>
      </trkpt>
      <trkpt lat="48.60073" lon="-1.60875">
        <ele>4</ele>
        <time>2017-01-14T04:37:29Z</time>
      </trkpt>
      <trkpt lat="48.60075" lon="-1.6089">
        <ele>4</ele>
        <time>2017-01-14T04:39:29Z</time>
      </trkpt>
      <trkpt lat="48.60076" lon="-1.60903">
        <ele>4</ele>
        <time>2017-01-14T04:41:29Z</time>
      </trkpt>
      <trkpt lat="48.60078" lon="-1.60935">
        <ele>4</ele>
        <time>2017-01-14T04:43:29Z</time>
      </trkpt>
      <trkpt lat="48.60078" lon="-1.60949">
        <ele>4</ele>
        <time>2017-01-14T04:45:29Z</time>
      </trkpt>
      <trkpt lat="48.60078" lon="-1.60979">
        <ele>5</ele>
        <time>2017-01-14T04:47:29Z</time>
      </trkpt>
      <trkpt lat="48.6008" lon="-1.61009">
        <ele>5</ele>
        <time>2017-01-14T04:49:29Z</time>
      </trkpt>
      <trkpt lat="48.60081" lon="-1.61024">
        <ele>5</ele>
        <time>2017-01-14T04:51:29Z</time>
      </trkpt>
      <trkpt lat="48.60083" lon="-1.61056">
        <ele>5</ele>
        <time>2017-01-14T04:53:29Z</time>
      </trkpt>
      <trkpt lat="48.60084" lon="-1.61072">
        <ele>5</ele>
        <time>2017-01-14T04:55:29Z</time>
      </trkpt>
      <trkpt lat="48.60084" lon="-1.61088">
        <ele>5</ele>
        <time>2017-01-14T04:57:29Z</time>
      </trkpt>
      <trkpt lat="48.60085" lon="-1.61103">
        <ele>5</ele>
        <time>2017-01-14T04:59:29Z</time>
      </trkpt>
      <trkpt lat="48.60086" lon="-1.61117">
        <ele>5</ele>
        <time>2017-01-14T05:01:29Z</time>
      </trkpt>
      <trkpt lat="48.60088" lon="-1.6116">
        <ele>5</ele>
        <time>2017-01-14T05:03:29Z</time>
      </trkpt>
      <trkpt lat="48.60089" lon="-1.61174">
        <ele>5</ele>
        <time>2017-01-14T05:05:29Z</time>
      </trkpt>
      <trkpt lat="48.60088" lon="-1.61191">
        <ele>5</ele>
        <time>2017-01-14T05:07:29Z</time>
      </trkpt>
      <trkpt lat="48.60088" lon="-1.61205">
        <ele>5</ele>
        <time>2017-01-14T05:09:29Z</time>
      </trkpt>
      <trkpt lat="48.60088" lon="-1.6122">
        <ele>5</ele>
        <time>2017-01-14T05:11:29Z</time>
      </trkpt>
      <trkpt lat="48.60088" lon="-1.61235">
        <ele>5</ele>
        <time>2017-01-14T05:13:29Z</time>
      </trkpt>
      <trkpt lat="48.60088" lon="-1.61251">
        <ele>5</ele>
        <time>2017-01-14T05:15:29Z</time>
      </trkpt>
      <trkpt lat="48.60089" lon="-1.61267">
        <ele>5</ele>
        <time>2017-01-14T05:17:29Z</time>
      </trkpt>
      <trkpt lat="48.60089" lon="-1.61281">
        <ele>5</ele>
        <time>2017-01-14T05:19:29Z</time>
      </trkpt>
      <trkpt lat="48.6009" lon="-1.61295">
        <ele>4</ele>
        <time>2017-01-14T05:21:29Z</time>
      </trkpt>
      <trkpt lat="48.6009" lon="-1.61311">
        <ele>4</ele>
        <time>2017-01-14T05:23:29Z</time>
      </trkpt>
      <trkpt lat="48.60092" lon="-1.61326">
        <ele>4</ele>
        <time>2017-01-14T05:25:29Z</time>
      </trkpt>
      <trkpt lat="48.60095" lon="-1.61357">
        <ele>4</ele>
        <time>2017-01-14T05:27:29Z</time>
      </trkpt>
      <trkpt lat="48.60095" lon="-1.61387">
        <ele>5</ele>
        <time>2017-01-14T05:29:29Z</time>
      </trkpt>
      <trkpt lat="48.60095" lon="-1.61403">
        <ele>5</ele>
        <time>2017-01-14T05:31:29Z</time>
      </trkpt>
      <trkpt lat="48.60093" lon="-1.61419">
        <ele>5</ele>
        <time>2017-01-14T05:33:29Z</time>
      </trkpt>
      <trkpt lat="48.60091" lon="-1.61432">
        <ele>5</ele>
        <time>2017-01-14T05:35:29Z</time>
      </trkpt>
      <trkpt lat="48.60088" lon="-1.61446">
        <ele>5</ele>
        <time>2017-01-14T05:37:29Z</time>
      </trkpt>
      <trkpt lat="48.60084" lon="-1.6146">
        <ele>5</ele>
        <time>2017-01-14T05:39:29Z</time>
      </trkpt>
      <trkpt lat="48.60082" lon="-1.61474">
        <ele>5</ele>
        <time>2017-01-14T05:41:29Z</time>
      </trkpt>
      <trkpt lat="48.60086" lon="-1.61487">
        <ele>5</ele>
        <time>2017-01-14T05:43:29Z</time>
      </trkpt>
      <trkpt lat="48.60096" lon="-1.61488">
        <ele>5</ele>
        <time>2017-01-14T05:45:29Z</time>
      </trkpt>
      <trkpt lat="48.60116" lon="-1.61489">
        <ele>5</ele>
        <time>2017-01-14T05:47:29Z</time>
      </trkpt>
      <trkpt lat="48.60126" lon="-1.61488">
        <ele>6</ele>
        <time>2017-01-14T05:49:29Z</time>
      </trkpt>
      <trkpt lat="48.60144" lon="-1.61486">
        <ele>6</ele>
        <time>2017-01-14T05:51:29Z</time>
      </trkpt>
      <trkpt lat="48.60154" lon="-1.61486">
        <ele>6</ele>
        <time>2017-01-14T05:53:29Z</time>
      </trkpt>
      <trkpt lat="48.60173" lon="-1.61485">
        <ele>6</ele>
        <time>2017-01-14T05:55:29Z</time>
      </trkpt>
      <trkpt lat="48.60183" lon="-1.61484">
        <ele>6</ele>
        <time>2017-01-14T05:57:29Z</time>
      </trkpt>
      <trkpt lat="48.60193" lon="-1.61482">
        <ele>6</ele>
        <time>2017-01-14T05:59:29Z</time>
      </trkpt>
      <trkpt lat="48.60203" lon="-1.61481">
        <ele>6</ele>
        <time>2017-01-14T06:01:29Z</time>
      </trkpt>
      <trkpt lat="48.60223" lon="-1.61482">
        <ele>6</ele>
        <time>2017-01-14T06:03:29Z</time>
      </trkpt>
      <trkpt lat="48.60232" lon="-1.61483">
        <ele>6</ele>
        <time>2017-01-14T06:05:29Z</time>
      </trkpt>
      <trkpt lat="48.60242" lon="-1.61485">
        <ele>6</ele>
        <time>2017-01-14T06:07:29Z</time>
      </trkpt>
      <trkpt lat="48.60252" lon="-1.6149">
        <ele>6</ele>
        <time>2017-01-14T06:09:29Z</time>
      </trkpt>
      <trkpt lat="48.60261" lon="-1.61499">
        <ele>6</ele>
        <time>2017-01-14T06:11:29Z</time>
      </trkpt>
      <trkpt lat="48.60263" lon="-1.61515">
        <ele>6</ele>
        <time>2017-01-14T06:13:29Z</time>
      </trkpt>
      <trkpt lat="48.60261" lon="-1.61531">
        <ele>6</ele>
        <time>2017-01-14T06:15:29Z</time>
      </trkpt>
      <trkpt lat="48.60259" lon="-1.61545">
        <ele>5</ele>
        <time>2017-01-14T06:17:29Z</time>
      </trkpt>
      <trkpt lat="48.60255" lon="-1.6156">
        <ele>5</ele>
        <time>2017-01-14T06:19:29Z</time>
      </trkpt>
      <trkpt lat="48.60251" lon="-1.61575">
        <ele>5</ele>
        <time>2017-01-14T06:21:29Z</time>
      </trkpt>
      <trkpt lat="48.60249" lon="-1.61588">
        <ele>5</ele>
        <time>2017-01-14T06:23:29Z</time>
      </trkpt>
      <trkpt lat="48.60246" lon="-1.61604">
        <ele>5</ele>
        <time>2017-01-14T06:25:29Z</time>
      </trkpt>
      <trkpt lat="48.60241" lon="-1.61634">
        <ele>5</ele>
        <time>2017-01-14T06:27:29Z</time>
      </trkpt>
      <trkpt lat="48.60236" lon="-1.61664">
        <ele>5</ele>
        <time>2017-01-14T06:29:29Z</time>
      </trkpt>
      <trkpt lat="48.60233" lon="-1.61694">
        <ele>5</ele>
        <time>2017-01-14T06:31:29Z</time>
      </trkpt>
      <trkpt lat="48.60233" lon="-1.61709">
        <ele>5</ele>
        <time>2017-01-14T06:33:29Z</time>
      </trkpt>
      <trkpt lat="48.6023" lon="-1.61751">
        <ele>5</ele>
        <time>2017-01-14T06:35:29Z</time>
      </trkpt>
      <trkpt lat="48.60229" lon="-1.61765">
        <ele>5</ele>
        <time>2017-01-14T06:37:29Z</time>
      </trkpt>
      <trkpt lat="48.60228" lon="-1.61781">
        <ele>5</ele>
        <time>2017-01-14T06:39:29Z</time>
      </trkpt>
      <trkpt lat="48.60227" lon="-1.61813">
        <ele>5</ele>
        <time>2017-01-14T06:41:29Z</time>
      </trkpt>
      <trkpt lat="48.60226" lon="-1.61828">
        <ele>5</ele>
        <time>2017-01-14T06:43:29Z</time>
      </trkpt>
      <trkpt lat="48.60224" lon="-1.61842">
        <ele>5</ele>
        <time>2017-01-14T06:45:29Z</time>
      </trkpt>
      <trkpt lat="48.60223" lon="-1.61857">
        <ele>5</ele>
        <time>2017-01-14T06:47:29Z</time>
      </trkpt>
      <trkpt lat="48.6022" lon="-1.6192">
        <ele>5</ele>
        <time>2017-01-14T06:49:29Z</time>
      </trkpt>
      <trkpt lat="48.60221" lon="-1.61937">
        <ele>5</ele>
        <time>2017-01-14T06:51:29Z</time>
      </trkpt>
      <trkpt lat="48.60221" lon="-1.61951">
        <ele>5</ele>
        <time>2017-01-14T06:53:29Z</time>
      </trkpt>
      <trkpt lat="48.60221" lon="-1.61994">
        <ele>4</ele>
        <time>2017-01-14T06:55:29Z</time>
      </trkpt>
      <trkpt lat="48.60222" lon="-1.62008">
        <ele>4</ele>
        <time>2017-01-14T06:57:29Z</time>
      </trkpt>
      <trkpt lat="48.60223" lon="-1.62023">
        <ele>5</ele>
        <time>2017-01-14T06:59:29Z</time>
      </trkpt>
      <trkpt lat="48.60228" lon="-1.62053">
        <ele>5</ele>
        <time>2017-01-14T07:01:29Z</time>
      </trkpt>
      <trkpt lat="48.6023" lon="-1.6208">
        <ele>5</ele>
        <time>2017-01-14T07:03:29Z</time>
      </trkpt>
      <trkpt lat="48.60232" lon="-1.62096">
        <ele>5</ele>
        <time>2017-01-14T07:05:29Z</time>
      </trkpt>
      <trkpt lat="48.60233" lon="-1.62111">
        <ele>5</ele>
        <time>2017-01-14T07:07:29Z</time>
      </trkpt>
      <trkpt lat="48.6024" lon="-1.62152">
        <ele>4</ele>
        <time>2017-01-14T07:09:29Z</time>
      </trkpt>
      <trkpt lat="48.60246" lon="-1.62168">
        <ele>4</ele>
        <time>2017-01-14T07:11:29Z</time>
      </trkpt>
      <trkpt lat="48.6025" lon="-1.62181">
        <ele>4</ele>
        <time>2017-01-14T07:13:29Z</time>
      </trkpt>
      <trkpt lat="48.60256" lon="-1.62195">
        <ele>4</ele>
        <time>2017-01-14T07:15:29Z</time>
      </trkpt>
      <trkpt lat="48.60262" lon="-1.62207">
        <ele>4</ele>
        <time>2017-01-14T07:17:29Z</time>
      </trkpt>
      <trkpt lat="48.60267" lon="-1.62219">
        <ele>4</ele>
        <time>2017-01-14T07:19:29Z</time>
      </trkpt>
      <trkpt lat="48.60272" lon="-1.62232">
        <ele>4</ele>
        <time>2017-01-14T07:21:29Z</time>
      </trkpt>
      <trkpt lat="48.60279" lon="-1.62247">
        <ele>4</ele>
        <time>2017-01-14T07:23:29Z</time>
      </trkpt>
      <trkpt lat="48.60291" lon="-1.62274">
        <ele>4</ele>
        <time>2017-01-14T07:25:29Z</time>
      </trkpt>
      <trkpt lat="48.60301" lon="-1.62298">
        <ele>4</ele>
        <time>2017-01-14T07:27:29Z</time>
      </trkpt>
      <trkpt lat="48.60306" lon="-1.62311">
        <ele>4</ele>
        <time>2017-01-14T07:29:29Z</time>
      </trkpt>
      <trkpt lat="48.6032" lon="-1.62352">
        <ele>5</ele>
        <time>2017-01-14T07:31:29Z</time>
      </trkpt>
      <trkpt lat="48.60323" lon="-1.62368">
        <ele>5</ele>
        <time>2017-01-14T07:33:29Z</time>
      </trkpt>
      <trkpt lat="48.60326" lon="-1.62383">
        <ele>5</ele>
        <time>2017-01-14T07:35:29Z</time>
      </trkpt>
      <trkpt lat="48.60334" lon="-1.62411">
        <ele>6</ele>
        <time>2017-01-14T07:37:29Z</time>
      </trkpt>
      <trkpt lat="48.60338" lon="-1.62425">
        <ele>6</ele>
        <time>2017-01-14T07:39:29Z</time>
      </trkpt>
      <trkpt lat="48.60342" lon="-1.62438">
        <ele>6</ele>
        <time>2017-01-14T07:41:29Z</time>
      </trkpt>
      <trkpt lat="48.60344" lon="-1.62452">
        <ele>6</ele>
        <time>2017-01-14T07:43:29Z</time>
      </trkpt>
      <trkpt lat="48.60349" lon="-1.62467">
        <ele>5</ele>
        <time>2017-01-14T07:45:29Z</time>
      </trkpt>
      <trkpt lat="48.60352" lon="-1.62481">
        <ele>5</ele>
        <time>2017-01-14T07:47:29Z</time>
      </trkpt>
      <trkpt lat="48.60357" lon="-1.62495">
        <ele>5</ele>
        <time>2017-01-14T07:49:29Z</time>
      </trkpt>
      <trkpt lat="48.6036" lon="-1.62508">
        <ele>5</ele>
        <time>2017-01-14T07:51:29Z</time>
      </trkpt>
      <trkpt lat="48.60364" lon="-1.6252">
        <ele>5</ele>
        <time>2017-01-14T07:53:29Z</time>
      </trkpt>
      <trkpt lat="48.60371" lon="-1.62548">
        <ele>5</ele>
        <time>2017-01-14T07:55:29Z</time>
      </trkpt>
      <trkpt lat="48.60377" lon="-1.62577">
        <ele>5</ele>
        <time>2017-01-14T07:57:29Z</time>
      </trkpt>
      <trkpt lat="48.60379" lon="-1.62592">
        <ele>5</ele>
        <time>2017-01-14T07:59:29Z</time>
      </trkpt>
      <trkpt lat="48.60381" lon="-1.62606">
        <ele>5</ele>
        <time>2017-01-14T08:01:29Z</time>
      </trkpt>
      <trkpt lat="48.60383" lon="-1.62619">
        <ele>5</ele>
        <time>2017-01-14T08:03:29Z</time>
      </trkpt>
      <trkpt lat="48.60385" lon="-1.62631">
        <ele>5</ele>
        <time>2017-01-14T08:05:29Z</time>
      </trkpt>
      <trkpt lat="48.60386" lon="-1.62648">
        <ele>5</ele>
        <time>2017-01-14T08:07:29Z</time>
      </trkpt>
      <trkpt lat="48.60388" lon="-1.62663">
        <ele>5</ele>
        <time>2017-01-14T08:09:29Z</time>
      </trkpt>
      <trkpt lat="48.60388" lon="-1.62679">
        <ele>5</ele>
        <time>2017-01-14T08:11:29Z</time>
      </trkpt>
      <trkpt lat="48.60388" lon="-1.62696">
        <ele>5</ele>
        <time>2017-01-14T08:13:29Z</time>
      </trkpt>
      <trkpt lat="48.60387" lon="-1.62711">
        <ele>5</ele>
        <time>2017-01-14T08:15:29Z</time>
      </trkpt>
      <trkpt lat="48.60385" lon="-1.62726">
        <ele>5</ele>
        <time>2017-01-14T08:17:29Z</time>
      </trkpt>
      <trkpt lat="48.60383" lon="-1.62742">
        <ele>5</ele>
        <time>2017-01-14T08:19:29Z</time>
      </trkpt>
      <trkpt lat="48.60382" lon="-1.62757">
        <ele>5</ele>
        <time>2017-01-14T08:21:29Z</time>
      </trkpt>
      <trkpt lat="48.6038" lon="-1.6277">
        <ele>5</ele>
        <time>2017-01-14T08:23:29Z</time>
      </trkpt>
      <trkpt lat="48.6038" lon="-1.62801">
        <ele>5</ele>
        <time>2017-01-14T08:25:29Z</time>
      </trkpt>
      <trkpt lat="48.6038" lon="-1.62817">
        <ele>5</ele>
        <time>2017-01-14T08:27:29Z</time>
      </trkpt>
      <trkpt lat="48.6038" lon="-1.62833">
        <ele>5</ele>
        <time>2017-01-14T08:29:29Z</time>
      </trkpt>
      <trkpt lat="48.60381" lon="-1.62848">
        <ele>4</ele>
        <time>2017-01-14T08:31:29Z</time>
      </trkpt>
      <trkpt lat="48.6038" lon="-1.62863">
        <ele>4</ele>
        <time>2017-01-14T08:33:29Z</time>
      </trkpt>
      <trkpt lat="48.60379" lon="-1.62879">
        <ele>4</ele>
        <time>2017-01-14T08:35:29Z</time>
      </trkpt>
      <trkpt lat="48.60376" lon="-1.62911">
        <ele>4</ele>
        <time>2017-01-14T08:37:29Z</time>
      </trkpt>
      <trkpt lat="48.60376" lon="-1.62927">
        <ele>4</ele>
        <time>2017-01-14T08:39:29Z</time>
      </trkpt>
      <trkpt lat="48.60376" lon="-1.62943">
        <ele>4</ele>
        <time>2017-01-14T08:41:29Z</time>
      </trkpt>
      <trkpt lat="48.60377" lon="-1.62958">
        <ele>4</ele>
        <time>2017-01-14T08:43:29Z</time>
      </trkpt>
      <trkpt lat="48.60382" lon="-1.62972">
        <ele>4</ele>
        <time>2017-01-14T08:45:29Z</time>
      </trkpt>
      <trkpt lat="48.60386" lon="-1.62987">
        <ele>4</ele>
        <time>2017-01-14T08:47:29Z</time>
      </trkpt>
      <trkpt lat="48.60389" lon="-1.63002">
        <ele>4</ele>
        <time>2017-01-14T08:49:29Z</time>
      </trkpt>
      <trkpt lat="48.6039" lon="-1.63017">
        <ele>4</ele>
        <time>2017-01-14T08:51:29Z</time>
      </trkpt>
      <trkpt lat="48.60392" lon="-1.63048">
        <ele>4</ele>
        <time>2017-01-14T08:53:29Z</time>
      </trkpt>
      <trkpt lat="48.60391" lon="-1.63062">
        <ele>4</ele>
        <time>2017-01-14T08:55:29Z</time>
      </trkpt>
      <trkpt lat="48.60393" lon="-1.63094">
        <ele>4</ele>
        <time>2017-01-14T08:57:29Z</time>
      </trkpt>
      <trkpt lat="48.60391" lon="-1.63125">
        <ele>4</ele>
        <time>2017-01-14T08:59:29Z</time>
      </trkpt>
      <trkpt lat="48.60392" lon="-1.63139">
        <ele>4</ele>
        <time>2017-01-14T09:01:29Z</time>
      </trkpt>
      <trkpt lat="48.60392" lon="-1.63153">
        <ele>4</ele>
        <time>2017-01-14T09:03:29Z</time>
      </trkpt>
      <trkpt lat="48.60392" lon="-1.63169">
        <ele>4</ele>
        <time>2017-01-14T09:05:29Z</time>
      </trkpt>
      <trkpt lat="48.60393" lon="-1.63198">
        <ele>4</ele>
        <time>2017-01-14T09:07:29Z</time>
      </trkpt>
      <trkpt lat="48.60396" lon="-1.63213">
        <ele>4</ele>
        <time>2017-01-14T09:09:29Z</time>
      </trkpt>
      <trkpt lat="48.60397" lon="-1.63229">
        <ele>4</ele>
        <time>2017-01-14T09:11:29Z</time>
      </trkpt>
      <trkpt lat="48.60398" lon="-1.63245">
        <ele>4</ele>
        <time>2017-01-14T09:13:29Z</time>
      </trkpt>
      <trkpt lat="48.60398" lon="-1.63261">
        <ele>4</ele>
        <time>2017-01-14T09:15:29Z</time>
      </trkpt>
      <trkpt lat="48.60397" lon="-1.63293">
        <ele>4</ele>
        <time>2017-01-14T09:17:29Z</time>
      </trkpt>
      <trkpt lat="48.60397" lon="-1.63308">
        <ele>4</ele>
        <time>2017-01-14T09:19:29Z</time>
      </trkpt>
      <trkpt lat="48.60395" lon="-1.63324">
        <ele>4</ele>
        <time>2017-01-14T09:21:29Z</time>
      </trkpt>
      <trkpt lat="48.60394" lon="-1.63339">
        <ele>4</ele>
        <time>2017-01-14T09:23:29Z</time>
      </trkpt>
      <trkpt lat="48.60397" lon="-1.63353">
        <ele>4</ele>
        <time>2017-01-14T09:25:29Z</time>
      </trkpt>
      <trkpt lat="48.60406" lon="-1.63357">
        <ele>4</ele>
        <time>2017-01-14T09:27:29Z</time>
      </trkpt>
      <trkpt lat="48.60416" lon="-1.63361">
        <ele>4</ele>
        <time>2017-01-14T09:29:29Z</time>
      </trkpt>
      <trkpt lat="48.60427" lon="-1.63363">
        <ele>4</ele>
        <time>2017-01-14T09:31:29Z</time>
      </trkpt>
      <trkpt lat="48.60437" lon="-1.63365">
        <ele>4</ele>
        <time>2017-01-14T09:33:29Z</time>
      </trkpt>
      <trkpt lat="48.60458" lon="-1.63371">
        <ele>4</ele>
        <time>2017-01-14T09:35:29Z</time>
      </trkpt>
      <trkpt lat="48.60487" lon="-1.63378">
        <ele>4</ele>
        <time>2017-01-14T09:37:29Z</time>
      </trkpt>
      <trkpt lat="48.60497" lon="-1.63383">
        <ele>4</ele>
        <time>2017-01-14T09:39:29Z</time>
      </trkpt>
      <trkpt lat="48.60517" lon="-1.63387">
        <ele>4</ele>
        <time>2017-01-14T09:41:29Z</time>
      </trkpt>
      <trkpt lat="48.60558" lon="-1.63394">
        <ele>5</ele>
        <time>2017-01-14T09:43:29Z</time>
      </trkpt>
      <trkpt lat="48.60569" lon="-1.63398">
        <ele>5</ele>
        <time>2017-01-14T09:45:29Z</time>
      </trkpt>
      <trkpt lat="48.60579" lon="-1.634">
        <ele>5</ele>
        <time>2017-01-14T09:47:29Z</time>
      </trkpt>
      <trkpt lat="48.606" lon="-1.63407">
        <ele>5</ele>
        <time>2017-01-14T09:49:29Z</time>
      </trkpt>
      <trkpt lat="48.6061" lon="-1.63409">
        <ele>5</ele>
        <time>2017-01-14T09:51:29Z</time>
      </trkpt>
      <trkpt lat="48.60621" lon="-1.63411">
        <ele>5</ele>
        <time>2017-01-14T09:53:29Z</time>
      </trkpt>
      <trkpt lat="48.60659" lon="-1.6342">
        <ele>6</ele>
        <time>2017-01-14T09:55:29Z</time>
      </trkpt>
      <trkpt lat="48.60677" lon="-1.6342">
        <ele>6</ele>
        <time>2017-01-14T09:57:29Z</time>
      </trkpt>
      <trkpt lat="48.6069" lon="-1.6342">
        <ele>6</ele>
        <time>2017-01-14T09:59:29Z</time>
      </trkpt>
      <trkpt lat="48.60703" lon="-1.63423">
        <ele>6</ele>
        <time>2017-01-14T10:01:29Z</time>
      </trkpt>
      <trkpt lat="48.60707" lon="-1.63437">
        <ele>6</ele>
        <time>2017-01-14T10:03:29Z</time>
      </trkpt>
      <trkpt lat="48.6071" lon="-1.63452">
        <ele>6</ele>
        <time>2017-01-14T10:05:29Z</time>
      </trkpt>
      <trkpt lat="48.6071" lon="-1.63469">
        <ele>5</ele>
        <time>2017-01-14T10:07:29Z</time>
      </trkpt>
      <trkpt lat="48.60708" lon="-1.63495">
        <ele>5</ele>
        <time>2017-01-14T10:09:29Z</time>
      </trkpt>
      <trkpt lat="48.60707" lon="-1.63512">
        <ele>5</ele>
        <time>2017-01-14T10:11:29Z</time>
      </trkpt>
      <trkpt lat="48.60706" lon="-1.6353">
        <ele>5</ele>
        <time>2017-01-14T10:13:29Z</time>
      </trkpt>
      <trkpt lat="48.60706" lon="-1.63557">
        <ele>5</ele>
        <time>2017-01-14T10:15:29Z</time>
      </trkpt>
      <trkpt lat="48.60707" lon="-1.63575">
        <ele>5</ele>
        <time>2017-01-14T10:17:29Z</time>
      </trkpt>
      <trkpt lat="48.60707" lon="-1.63592">
        <ele>6</ele>
        <time>2017-01-14T10:19:29Z</time>
      </trkpt>
      <trkpt lat="48.60708" lon="-1.63607">
        <ele>6</ele>
        <time>2017-01-14T10:21:29Z</time>
      </trkpt>
      <trkpt lat="48.60708" lon="-1.63644">
        <ele>6</ele>
        <time>2017-01-14T10:23:29Z</time>
      </trkpt>
      <trkpt lat="48.6071" lon="-1.63662">
        <ele>6</ele>
        <time>2017-01-14T10:25:29Z</time>
      </trkpt>
      <trkpt lat="48.6071" lon="-1.63683">
        <ele>6</ele>
        <time>2017-01-14T10:27:29Z</time>
      </trkpt>
      <trkpt lat="48.60711" lon="-1.63697">
        <ele>6</ele>
        <time>2017-01-14T10:29:29Z</time>
      </trkpt>
      <trkpt lat="48.60711" lon="-1.63714">
        <ele>6</ele>
        <time>2017-01-14T10:31:29Z</time>
      </trkpt>
      <trkpt lat="48.60711" lon="-1.63731">
        <ele>6</ele>
        <time>2017-01-14T10:33:29Z</time>
      </trkpt>
      <trkpt lat="48.60714" lon="-1.63765">
        <ele>6</ele>
        <time>2017-01-14T10:35:29Z</time>
      </trkpt>
      <trkpt lat="48.60715" lon="-1.63781">
        <ele>6</ele>
        <time>2017-01-14T10:37:29Z</time>
      </trkpt>
      <trkpt lat="48.60716" lon="-1.63798">
        <ele>5</ele>
        <time>2017-01-14T10:39:29Z</time>
      </trkpt>
      <trkpt lat="48.60718" lon="-1.63815">
        <ele>5</ele>
        <time>2017-01-14T10:41:29Z</time>
      </trkpt>
      <trkpt lat="48.60722" lon="-1.63831">
        <ele>5</ele>
        <time>2017-01-14T10:43:29Z</time>
      </trkpt>
      <trkpt lat="48.60724" lon="-1.63848">
        <ele>5</ele>
        <time>2017-01-14T10:45:29Z</time>
      </trkpt>
      <trkpt lat="48.60726" lon="-1.63863">
        <ele>5</ele>
        <time>2017-01-14T10:47:29Z</time>
      </trkpt>
      <trkpt lat="48.60734" lon="-1.63912">
        <ele>6</ele>
        <time>2017-01-14T10:49:29Z</time>
      </trkpt>
      <trkpt lat="48.60736" lon="-1.63927">
        <ele>6</ele>
        <time>2017-01-14T10:51:29Z</time>
      </trkpt>
      <trkpt lat="48.60744" lon="-1.63957">
        <ele>6</ele>
        <time>2017-01-14T10:53:29Z</time>
      </trkpt>
      <trkpt lat="48.60747" lon="-1.63971">
        <ele>6</ele>
        <time>2017-01-14T10:55:29Z</time>
      </trkpt>
      <trkpt lat="48.60749" lon="-1.63985">
        <ele>6</ele>
        <time>2017-01-14T10:57:29Z</time>
      </trkpt>
      <trkpt lat="48.60745" lon="-1.63998">
        <ele>6</ele>
        <time>2017-01-14T10:59:29Z</time>
      </trkpt>
      <trkpt lat="48.60735" lon="-1.6401">
        <ele>6</ele>
        <time>2017-01-14T11:01:29Z</time>
      </trkpt>
      <trkpt lat="48.60724" lon="-1.64018">
        <ele>6</ele>
        <time>2017-01-14T11:03:29Z</time>
      </trkpt>
      <trkpt lat="48.60715" lon="-1.64027">
        <ele>6</ele>
        <time>2017-01-14T11:05:29Z</time>
      </trkpt>
      <trkpt lat="48.6071" lon="-1.64038">
        <ele>6</ele>
        <time>2017-01-14T11:07:29Z</time>
      </trkpt>
      <trkpt lat="48.60707" lon="-1.64051">
        <ele>5</ele>
        <time>2017-01-14T11:09:29Z</time>
      </trkpt>
      <trkpt lat="48.60705" lon="-1.64066">
        <ele>5</ele>
        <time>2017-01-14T11:11:29Z</time>
      </trkpt>
      <trkpt lat="48.60707" lon="-1.64097">
        <ele>5</ele>
        <time>2017-01-14T11:13:29Z</time>
      </trkpt>
      <trkpt lat="48.60709" lon="-1.64114">
        <ele>5</ele>
        <time>2017-01-14T11:15:29Z</time>
      </trkpt>
      <trkpt lat="48.60711" lon="-1.64132">
        <ele>5</ele>
        <time>2017-01-14T11:17:29Z</time>
      </trkpt>
      <trkpt lat="48.60711" lon="-1.64148">
        <ele>5</ele>
        <time>2017-01-14T11:19:29Z</time>
      </trkpt>
      <trkpt lat="48.60713" lon="-1.64164">
        <ele>5</ele>
        <time>2017-01-14T11:21:29Z</time>
      </trkpt>
      <trkpt lat="48.60716" lon="-1.64179">
        <ele>5</ele>
        <time>2017-01-14T11:23:29Z</time>
      </trkpt>
      <trkpt lat="48.60716" lon="-1.64195">
        <ele>4</ele>
        <time>2017-01-14T11:25:29Z</time>
      </trkpt>
      <trkpt lat="48.60722" lon="-1.64229">
        <ele>4</ele>
        <time>2017-01-14T11:27:29Z</time>
      </trkpt>
      <trkpt lat="48.60724" lon="-1.64261">
        <ele>4</ele>
        <time>2017-01-14T11:29:29Z</time>
      </trkpt>
      <trkpt lat="48.60726" lon="-1.64277">
        <ele>4</ele>
        <time>2017-01-14T11:31:29Z</time>
      </trkpt>
      <trkpt lat="48.60728" lon="-1.64293">
        <ele>4</ele>
        <time>2017-01-14T11:33:29Z</time>
      </trkpt>
      <trkpt lat="48.6073" lon="-1.64311">
        <ele>4</ele>
        <time>2017-01-14T11:35:29Z</time>
      </trkpt>
      <trkpt lat="48.60732" lon="-1.64327">
        <ele>4</ele>
        <time>2017-01-14T11:37:29Z</time>
      </trkpt>
      <trkpt lat="48.60734" lon="-1.64344">
        <ele>4</ele>
        <time>2017-01-14T11:39:29Z</time>
      </trkpt>
      <trkpt lat="48.60736" lon="-1.64358">
        <ele>4</ele>
        <time>2017-01-14T11:41:29Z</time>
      </trkpt>
      <trkpt lat="48.60739" lon="-1.64389">
        <ele>5</ele>
        <time>2017-01-14T11:43:29Z</time>
      </trkpt>
      <trkpt lat="48.6074" lon="-1.64405">
        <ele>5</ele>
        <time>2017-01-14T11:45:29Z</time>
      </trkpt>
      <trkpt lat="48.60742" lon="-1.64424">
        <ele>5</ele>
        <time>2017-01-14T11:47:29Z</time>
      </trkpt>
      <trkpt lat="48.60745" lon="-1.64442">
        <ele>5</ele>
        <time>2017-01-14T11:49:29Z</time>
      </trkpt>
      <trkpt lat="48.60745" lon="-1.64458">
        <ele>5</ele>
        <time>2017-01-14T11:51:29Z</time>
      </trkpt>
      <trkpt lat="48.60746" lon="-1.64475">
        <ele>5</ele>
        <time>2017-01-14T11:53:29Z</time>
      </trkpt>
      <trkpt lat="48.60748" lon="-1.64494">
        <ele>5</ele>
        <time>2017-01-14T11:55:29Z</time>
      </trkpt>
      <trkpt lat="48.60749" lon="-1.6451">
        <ele>5</ele>
        <time>2017-01-14T11:57:29Z</time>
      </trkpt>
      <trkpt lat="48.60753" lon="-1.64524">
        <ele>5</ele>
        <time>2017-01-14T11:59:29Z</time>
      </trkpt>
      <trkpt lat="48.60759" lon="-1.64571">
        <ele>6</ele>
        <time>2017-01-14T12:01:29Z</time>
      </trkpt>
      <trkpt lat="48.6076" lon="-1.64588">
        <ele>6</ele>
        <time>2017-01-14T12:03:29Z</time>
      </trkpt>
      <trkpt lat="48.60762" lon="-1.64605">
        <ele>6</ele>
        <time>2017-01-14T12:05:29Z</time>
      </trkpt>
      <trkpt lat="48.60764" lon="-1.64622">
        <ele>6</ele>
        <time>2017-01-14T12:07:29Z</time>
      </trkpt>
      <trkpt lat="48.60766" lon="-1.64656">
        <ele>6</ele>
        <time>2017-01-14T12:09:29Z</time>
      </trkpt>
      <trkpt lat="48.60766" lon="-1.64671">
        <ele>6</ele>
        <time>2017-01-14T12:11:29Z</time>
      </trkpt>
      <trkpt lat="48.60768" lon="-1.64687">
        <ele>6</ele>
        <time>2017-01-14T12:13:29Z</time>
      </trkpt>
      <trkpt lat="48.60769" lon="-1.64702">
        <ele>6</ele>
        <time>2017-01-14T12:15:29Z</time>
      </trkpt>
      <trkpt lat="48.60771" lon="-1.64717">
        <ele>5</ele>
        <time>2017-01-14T12:17:29Z</time>
      </trkpt>
      <trkpt lat="48.60774" lon="-1.64749">
        <ele>5</ele>
        <time>2017-01-14T12:19:29Z</time>
      </trkpt>
      <trkpt lat="48.60777" lon="-1.64766">
        <ele>5</ele>
        <time>2017-01-14T12:21:29Z</time>
      </trkpt>
      <trkpt lat="48.6078" lon="-1.64782">
        <ele>5</ele>
        <time>2017-01-14T12:23:29Z</time>
      </trkpt>
      <trkpt lat="48.60783" lon="-1.64799">
        <ele>5</ele>
        <time>2017-01-14T12:25:29Z</time>
      </trkpt>
      <trkpt lat="48.60786" lon="-1.64816">
        <ele>5</ele>
        <time>2017-01-14T12:27:29Z</time>
      </trkpt>
      <trkpt lat="48.60789" lon="-1.64833">
        <ele>5</ele>
        <time>2017-01-14T12:29:29Z</time>
      </trkpt>
      <trkpt lat="48.6079" lon="-1.6485">
        <ele>5</ele>
        <time>2017-01-14T12:31:29Z</time>
      </trkpt>
      <trkpt lat="48.60792" lon="-1.64867">
        <ele>5</ele>
        <time>2017-01-14T12:33:29Z</time>
      </trkpt>
      <trkpt lat="48.60795" lon="-1.64882">
        <ele>5</ele>
        <time>2017-01-14T12:35:29Z</time>
      </trkpt>
      <trkpt lat="48.60797" lon="-1.64897">
        <ele>5</ele>
        <time>2017-01-14T12:37:29Z</time>
      </trkpt>
      <trkpt lat="48.60799" lon="-1.64933">
        <ele>5</ele>
        <time>2017-01-14T12:39:29Z</time>
      </trkpt>
      <trkpt lat="48.60802" lon="-1.64949">
        <ele>5</ele>
        <time>2017-01-14T12:41:29Z</time>
      </trkpt>
      <trkpt lat="48.60803" lon="-1.64965">
        <ele>5</ele>
        <time>2017-01-14T12:43:29Z</time>
      </trkpt>
      <trkpt lat="48.60805" lon="-1.64979">
        <ele>5</ele>
        <time>2017-01-14T12:45:29Z</time>
      </trkpt>
      <trkpt lat="48.60805" lon="-1.64996">
        <ele>5</ele>
        <time>2017-01-14T12:47:29Z</time>
      </trkpt>
      <trkpt lat="48.60809" lon="-1.65027">
        <ele>6</ele>
        <time>2017-01-14T12:49:29Z</time>
      </trkpt>
      <trkpt lat="48.60813" lon="-1.6506">
        <ele>6</ele>
        <time>2017-01-14T12:51:29Z</time>
      </trkpt>
      <trkpt lat="48.60816" lon="-1.65079">
        <ele>6</ele>
        <time>2017-01-14T12:53:29Z</time>
      </trkpt>
      <trkpt lat="48.60818" lon="-1.65093">
        <ele>6</ele>
        <time>2017-01-14T12:55:29Z</time>
      </trkpt>
      <trkpt lat="48.6082" lon="-1.65109">
        <ele>6</ele>
        <time>2017-01-14T12:57:29Z</time>
      </trkpt>
      <trkpt lat="48.60821" lon="-1.65124">
        <ele>6</ele>
        <time>2017-01-14T12:59:29Z</time>
      </trkpt>
      <trkpt lat="48.60825" lon="-1.65141">
        <ele>6</ele>
        <time>2017-01-14T13:01:29Z</time>
      </trkpt>
      <trkpt lat="48.60827" lon="-1.65157">
        <ele>6</ele>
        <time>2017-01-14T13:03:29Z</time>
      </trkpt>
      <trkpt lat="48.60826" lon="-1.65174">
        <ele>6</ele>
        <time>2017-01-14T13:05:29Z</time>
      </trkpt>
      <trkpt lat="48.60828" lon="-1.65187">
        <ele>6</ele>
        <time>2017-01-14T13:07:29Z</time>
      </trkpt>
      <trkpt lat="48.60831" lon="-1.65202">
        <ele>6</ele>
        <time>2017-01-14T13:09:29Z</time>
      </trkpt>
      <trkpt lat="48.60833" lon="-1.65218">
        <ele>6</ele>
        <time>2017-01-14T13:11:29Z</time>
      </trkpt>
      <trkpt lat="48.60834" lon="-1.65235">
        <ele>6</ele>
        <time>2017-01-14T13:13:29Z</time>
      </trkpt>
      <trkpt lat="48.60839" lon="-1.65268">
        <ele>6</ele>
        <time>2017-01-14T13:15:29Z</time>
      </trkpt>
      <trkpt lat="48.6084" lon="-1.65284">
        <ele>5</ele>
        <time>2017-01-14T13:17:29Z</time>
      </trkpt>
      <trkpt lat="48.60841" lon="-1.653">
        <ele>5</ele>
        <time>2017-01-14T13:19:29Z</time>
      </trkpt>
      <trkpt lat="48.60843" lon="-1.65315">
        <ele>5</ele>
        <time>2017-01-14T13:21:29Z</time>
      </trkpt>
      <trkpt lat="48.60846" lon="-1.65331">
        <ele>5</ele>
        <time>2017-01-14T13:23:29Z</time>
      </trkpt>
      <trkpt lat="48.60848" lon="-1.65347">
        <ele>5</ele>
        <time>2017-01-14T13:25:29Z</time>
      </trkpt>
      <trkpt lat="48.60849" lon="-1.65363">
        <ele>5</ele>
        <time>2017-01-14T13:27:29Z</time>
      </trkpt>
      <trkpt lat="48.60852" lon="-1.65379">
        <ele>5</ele>
        <time>2017-01-14T13:29:29Z</time>
      </trkpt>
      <trkpt lat="48.60852" lon="-1.65394">
        <ele>5</ele>
        <time>2017-01-14T13:31:29Z</time>
      </trkpt>
      <trkpt lat="48.60853" lon="-1.6541">
        <ele>5</ele>
        <time>2017-01-14T13:33:29Z</time>
      </trkpt>
      <trkpt lat="48.60857" lon="-1.65438">
        <ele>5</ele>
        <time>2017-01-14T13:35:29Z</time>
      </trkpt>
      <trkpt lat="48.60858" lon="-1.65455">
        <ele>5</ele>
        <time>2017-01-14T13:37:29Z</time>
      </trkpt>
      <trkpt lat="48.60857" lon="-1.65469">
        <ele>5</ele>
        <time>2017-01-14T13:39:29Z</time>
      </trkpt>
      <trkpt lat="48.60854" lon="-1.65487">
        <ele>5</ele>
        <time>2017-01-14T13:41:29Z</time>
      </trkpt>
      <trkpt lat="48.60851" lon="-1.65501">
        <ele>5</ele>
        <time>2017-01-14T13:43:29Z</time>
      </trkpt>
      <trkpt lat="48.60847" lon="-1.65516">
        <ele>5</ele>
        <time>2017-01-14T13:45:29Z</time>
      </trkpt>
      <trkpt lat="48.60843" lon="-1.65531">
        <ele>5</ele>
        <time>2017-01-14T13:47:29Z</time>
      </trkpt>
      <trkpt lat="48.60837" lon="-1.65546">
        <ele>5</ele>
        <time>2017-01-14T13:49:29Z</time>
      </trkpt>
      <trkpt lat="48.60833" lon="-1.65558">
        <ele>5</ele>
        <time>2017-01-14T13:51:29Z</time>
      </trkpt>
      <trkpt lat="48.60828" lon="-1.65572">
        <ele>5</ele>
        <time>2017-01-14T13:53:29Z</time>
      </trkpt>
      <trkpt lat="48.60824" lon="-1.65586">
        <ele>5</ele>
        <time>2017-01-14T13:55:29Z</time>
      </trkpt>
      <trkpt lat="48.60818" lon="-1.65599">
        <ele>5</ele>
        <time>2017-01-14T13:57:29Z</time>
      </trkpt>
      <trkpt lat="48.60814" lon="-1.65613">
        <ele>5</ele>
        <time>2017-01-14T13:59:29Z</time>
      </trkpt>
      <trkpt lat="48.60809" lon="-1.65629">
        <ele>5</ele>
        <time>2017-01-14T14:01:29Z</time>
      </trkpt>
      <trkpt lat="48.60804" lon="-1.65642">
        <ele>5</ele>
        <time>2017-01-14T14:03:29Z</time>
      </trkpt>
      <trkpt lat="48.60794" lon="-1.65669">
        <ele>5</ele>
        <time>2017-01-14T14:05:29Z</time>
      </trkpt>
      <trkpt lat="48.60789" lon="-1.65681">
        <ele>6</ele>
        <time>2017-01-14T14:07:29Z</time>
      </trkpt>
      <trkpt lat="48.60784" lon="-1.65699">
        <ele>6</ele>
        <time>2017-01-14T14:09:29Z</time>
      </trkpt>
      <trkpt lat="48.60779" lon="-1.65713">
        <ele>6</ele>
        <time>2017-01-14T14:11:29Z</time>
      </trkpt>
      <trkpt lat="48.60774" lon="-1.65726">
        <ele>6</ele>
        <time>2017-01-14T14:13:29Z</time>
      </trkpt>
      <trkpt lat="48.6077" lon="-1.65741">
        <ele>6</ele>
        <time>2017-01-14T14:15:29Z</time>
      </trkpt>
      <trkpt lat="48.60766" lon="-1.65754">
        <ele>6</ele>
        <time>2017-01-14T14:17:29Z</time>
      </trkpt>
      <trkpt lat="48.60756" lon="-1.65783">
        <ele>6</ele>
        <time>2017-01-14T14:19:29Z</time>
      </trkpt>
      <trkpt lat="48.60749" lon="-1.65811">
        <ele>6</ele>
        <time>2017-01-14T14:21:29Z</time>
      </trkpt>
      <trkpt lat="48.60745" lon="-1.65826">
        <ele>6</ele>
        <time>2017-01-14T14:23:29Z</time>
      </trkpt>
      <trkpt lat="48.60741" lon="-1.65842">
        <ele>6</ele>
        <time>2017-01-14T14:25:29Z</time>
      </trkpt>
      <trkpt lat="48.60737" lon="-1.65859">
        <ele>6</ele>
        <time>2017-01-14T14:27:29Z</time>
      </trkpt>
      <trkpt lat="48.6073" lon="-1.65891">
        <ele>6</ele>
        <time>2017-01-14T14:29:29Z</time>
      </trkpt>
      <trkpt lat="48.60728" lon="-1.65906">
        <ele>7</ele>
        <time>2017-01-14T14:31:29Z</time>
      </trkpt>
      <trkpt lat="48.60728" lon="-1.65956">
        <ele>7</ele>
        <time>2017-01-14T14:33:29Z</time>
      </trkpt>
      <trkpt lat="48.60729" lon="-1.65973">
        <ele>7</ele>
        <time>2017-01-14T14:35:29Z</time>
      </trkpt>
      <trkpt lat="48.60732" lon="-1.66008">
        <ele>7</ele>
        <time>2017-01-14T14:37:29Z</time>
      </trkpt>
      <trkpt lat="48.60735" lon="-1.66023">
        <ele>6</ele>
        <time>2017-01-14T14:39:29Z</time>
      </trkpt>
      <trkpt lat="48.6074" lon="-1.66041">
        <ele>6</ele>
        <time>2017-01-14T14:41:29Z</time>
      </trkpt>
      <trkpt lat="48.60744" lon="-1.66057">
        <ele>6</ele>
        <time>2017-01-14T14:43:29Z</time>
      </trkpt>
      <trkpt lat="48.60748" lon="-1.66072">
        <ele>6</ele>
        <time>2017-01-14T14:45:29Z</time>
      </trkpt>
      <trkpt lat="48.60754" lon="-1.66086">
        <ele>6</ele>
        <time>2017-01-14T14:47:29Z</time>
      </trkpt>
      <trkpt lat="48.60763" lon="-1.66113">
        <ele>6</ele>
        <time>2017-01-14T14:49:29Z</time>
      </trkpt>
      <trkpt lat="48.6077" lon="-1.66127">
        <ele>5</ele>
        <time>2017-01-14T14:51:29Z</time>
      </trkpt>
      <trkpt lat="48.60776" lon="-1.66144">
        <ele>5</ele>
        <time>2017-01-14T14:53:29Z</time>
      </trkpt>
      <trkpt lat="48.60785" lon="-1.66178">
        <ele>5</ele>
        <time>2017-01-14T14:55:29Z</time>
      </trkpt>
      <trkpt lat="48.60791" lon="-1.66194">
        <ele>5</ele>
        <time>2017-01-14T14:57:29Z</time>
      </trkpt>
      <trkpt lat="48.60796" lon="-1.66207">
        <ele>5</ele>
        <time>2017-01-14T14:59:29Z</time>
      </trkpt>
      <trkpt lat="48.60801" lon="-1.66221">
        <ele>6</ele>
        <time>2017-01-14T15:01:29Z</time>
      </trkpt>
      <trkpt lat="48.60806" lon="-1.66234">
        <ele>6</ele>
        <time>2017-01-14T15:03:29Z</time>
      </trkpt>
      <trkpt lat="48.60812" lon="-1.66246">
        <ele>6</ele>
        <time>2017-01-14T15:05:29Z</time>
      </trkpt>
      <trkpt lat="48.60817" lon="-1.66262">
        <ele>6</ele>
        <time>2017-01-14T15:07:29Z</time>
      </trkpt>
      <trkpt lat="48.60821" lon="-1.66282">
        <ele>6</ele>
        <time>2017-01-14T15:09:29Z</time>
      </trkpt>
      <trkpt lat="48.60824" lon="-1.66304">
        <ele>5</ele>
        <time>2017-01-14T15:11:29Z</time>
      </trkpt>
      <trkpt lat="48.60829" lon="-1.66323">
        <ele>5</ele>
        <time>2017-01-14T15:13:29Z</time>
      </trkpt>
      <trkpt lat="48.6084" lon="-1.66357">
        <ele>5</ele>
        <time>2017-01-14T15:15:29Z</time>
      </trkpt>
      <trkpt lat="48.60844" lon="-1.66374">
        <ele>5</ele>
        <time>2017-01-14T15:17:29Z</time>
      </trkpt>
      <trkpt lat="48.60849" lon="-1.66389">
        <ele>5</ele>
        <time>2017-01-14T15:19:29Z</time>
      </trkpt>
      <trkpt lat="48.60854" lon="-1.66404">
        <ele>5</ele>
        <time>2017-01-14T15:21:29Z</time>
      </trkpt>
      <trkpt lat="48.60859" lon="-1.66419">
        <ele>5</ele>
        <time>2017-01-14T15:23:29Z</time>
      </trkpt>
      <trkpt lat="48.60865" lon="-1.66433">
        <ele>5</ele>
        <time>2017-01-14T15:25:29Z</time>
      </trkpt>
      <trkpt lat="48.60876" lon="-1.66464">
        <ele>5</ele>
        <time>2017-01-14T15:27:29Z</time>
      </trkpt>
      <trkpt lat="48.6088" lon="-1.6648">
        <ele>6</ele>
        <time>2017-01-14T15:29:29Z</time>
      </trkpt>
      <trkpt lat="48.60885" lon="-1.66496">
        <ele>6</ele>
        <time>2017-01-14T15:31:29Z</time>
      </trkpt>
      <trkpt lat="48.60891" lon="-1.66511">
        <ele>6</ele>
        <time>2017-01-14T15:33:29Z</time>
      </trkpt>
      <trkpt lat="48.60897" lon="-1.66526">
        <ele>6</ele>
        <time>2017-01-14T15:35:29Z</time>
      </trkpt>
      <trkpt lat="48.60902" lon="-1.66541">
        <ele>6</ele>
        <time>2017-01-14T15:37:29Z</time>
      </trkpt>
      <trkpt lat="48.60906" lon="-1.66554">
        <ele>7</ele>
        <time>2017-01-14T15:39:29Z</time>
      </trkpt>
      <trkpt lat="48.60911" lon="-1.66567">
        <ele>7</ele>
        <time>2017-01-14T15:41:29Z</time>
      </trkpt>
      <trkpt lat="48.60916" lon="-1.66578">
        <ele>7</ele>
        <time>2017-01-14T15:43:29Z</time>
      </trkpt>
      <trkpt lat="48.60924" lon="-1.66574">
        <ele>7</ele>
        <time>2017-01-14T15:45:29Z</time>
      </trkpt>
      <trkpt lat="48.60933" lon="-1.66568">
        <ele>7</ele>
        <time>2017-01-14T15:47:29Z</time>
      </trkpt>
      <trkpt lat="48.60942" lon="-1.66562">
        <ele>6</ele>
        <time>2017-01-14T15:49:29Z</time>
      </trkpt>
      <trkpt lat="48.60951" lon="-1.66557">
        <ele>6</ele>
        <time>2017-01-14T15:51:29Z</time>
      </trkpt>
      <trkpt lat="48.6096" lon="-1.66552">
        <ele>6</ele>
        <time>2017-01-14T15:53:29Z</time>
      </trkpt>
      <trkpt lat="48.6097" lon="-1.66552">
        <ele>6</ele>
        <time>2017-01-14T15:55:29Z</time>
      </trkpt>
      <trkpt lat="48.60973" lon="-1.6656">
        <ele>6</ele>
        <time>2017-01-14T15:57:29Z</time>
      </trkpt>
      <trkpt lat="48.60975" lon="-1.66557">
        <ele>6</ele>
        <time>2017-01-14T15:59:29Z</time>
      </trkpt>
      <trkpt lat="48.60981" lon="-1.66552">
        <ele>5</ele>
        <time>2017-01-14T16:01:29Z</time>
      </trkpt>
      <trkpt lat="48.60974" lon="-1.66553">
        <ele>6</ele>
        <time>2017-01-14T16:03:29Z</time>
      </trkpt>
      <trkpt lat="48.60976" lon="-1.66555">
        <ele>6</ele>
        <time>2017-01-14T16:05:29Z</time>
      </trkpt>
      <trkpt lat="48.60978" lon="-1.66557">
        <ele>6</ele>
        <time>2017-01-14T16:07:29Z</time>
      </trkpt>
      <trkpt lat="48.6098" lon="-1.66563">
        <ele>5</ele>
        <time>2017-01-14T16:09:29Z</time>
      </trkpt>
      <trkpt lat="48.6098" lon="-1.6657">
        <ele>5</ele>
        <time>2017-01-14T16:11:29Z</time>
      </trkpt>
      <trkpt lat="48.60984" lon="-1.66579">
        <ele>5</ele>
        <time>2017-01-14T16:13:29Z</time>
      </trkpt>
      <trkpt lat="48.60993" lon="-1.66584">
        <ele>5</ele>
        <time>2017-01-14T16:15:29Z</time>
      </trkpt>
      <trkpt lat="48.61004" lon="-1.6659">
        <ele>5</ele>
        <time>2017-01-14T16:17:29Z</time>
      </trkpt>
      <trkpt lat="48.61014" lon="-1.66593">
        <ele>5</ele>
        <time>2017-01-14T16:19:29Z</time>
      </trkpt>
      <trkpt lat="48.61024" lon="-1.666">
        <ele>5</ele>
        <time>2017-01-14T16:21:29Z</time>
      </trkpt>
      <trkpt lat="48.61025" lon="-1.66612">
        <ele>5</ele>
        <time>2017-01-14T16:23:29Z</time>
      </trkpt>
      <trkpt lat="48.61024" lon="-1.66624">
        <ele>5</ele>
        <time>2017-01-14T16:25:29Z</time>
      </trkpt>
      <trkpt lat="48.61025" lon="-1.66635">
        <ele>6</ele>
        <time>2017-01-14T16:27:29Z</time>
      </trkpt>
      <trkpt lat="48.61029" lon="-1.66667">
        <ele>6</ele>
        <time>2017-01-14T16:29:29Z</time>
      </trkpt>
      <trkpt lat="48.61031" lon="-1.66697">
        <ele>6</ele>
        <time>2017-01-14T16:31:29Z</time>
      </trkpt>
      <trkpt lat="48.61031" lon="-1.66708">
        <ele>6</ele>
        <time>2017-01-14T16:33:29Z</time>
      </trkpt>
      <trkpt lat="48.61033" lon="-1.6672">
        <ele>6</ele>
        <time>2017-01-14T16:35:29Z</time>
      </trkpt>
      <trkpt lat="48.61036" lon="-1.66739">
        <ele>7</ele>
        <time>2017-01-14T16:37:29Z</time>
      </trkpt>
      <trkpt lat="48.61038" lon="-1.66755">
        <ele>7</ele>
        <time>2017-01-14T16:39:29Z</time>
      </trkpt>
      <trkpt lat="48.61042" lon="-1.6677">
        <ele>7</ele>
        <time>2017-01-14T16:41:29Z</time>
      </trkpt>
      <trkpt lat="48.61043" lon="-1.66789">
        <ele>7</ele>
        <time>2017-01-14T16:43:29Z</time>
      </trkpt>
      <trkpt lat="48.61045" lon="-1.66804">
        <ele>6</ele>
        <time>2017-01-14T16:45:29Z</time>
      </trkpt>
      <trkpt lat="48.61048" lon="-1.6682">
        <ele>6</ele>
        <time>2017-01-14T16:47:29Z</time>
      </trkpt>
      <trkpt lat="48.61054" lon="-1.6684">
        <ele>6</ele>
        <time>2017-01-14T16:49:29Z</time>
      </trkpt>
      <trkpt lat="48.61061" lon="-1.6687">
        <ele>6</ele>
        <time>2017-01-14T16:51:29Z</time>
      </trkpt>
      <trkpt lat="48.61065" lon="-1.66883">
        <ele>5</ele>
        <time>2017-01-14T16:53:29Z</time>
      </trkpt>
      <trkpt lat="48.61074" lon="-1.66916">
        <ele>5</ele>
        <time>2017-01-14T16:55:29Z</time>
      </trkpt>
      <trkpt lat="48.6108" lon="-1.66939">
        <ele>5</ele>
        <time>2017-01-14T16:57:29Z</time>
      </trkpt>
      <trkpt lat="48.61082" lon="-1.66949">
        <ele>5</ele>
        <time>2017-01-14T16:59:29Z</time>
      </trkpt>
      <trkpt lat="48.61087" lon="-1.6698">
        <ele>5</ele>
        <time>2017-01-14T17:01:29Z</time>
      </trkpt>
      <trkpt lat="48.61092" lon="-1.66996">
        <ele>5</ele>
        <time>2017-01-14T17:03:29Z</time>
      </trkpt>
      <trkpt lat="48.61093" lon="-1.67009">
        <ele>5</ele>
        <time>2017-01-14T17:05:29Z</time>
      </trkpt>
      <trkpt lat="48.61094" lon="-1.67022">
        <ele>5</ele>
        <time>2017-01-14T17:07:29Z</time>
      </trkpt>
      <trkpt lat="48.61095" lon="-1.67034">
        <ele>5</ele>
        <time>2017-01-14T17:09:29Z</time>
      </trkpt>
      <trkpt lat="48.61097" lon="-1.67047">
        <ele>5</ele>
        <time>2017-01-14T17:11:29Z</time>
      </trkpt>
      <trkpt lat="48.61096" lon="-1.67063">
        <ele>5</ele>
        <time>2017-01-14T17:13:29Z</time>
      </trkpt>
      <trkpt lat="48.61098" lon="-1.67078">
        <ele>5</ele>
        <time>2017-01-14T17:15:29Z</time>
      </trkpt>
      <trkpt lat="48.61098" lon="-1.67093">
        <ele>5</ele>
        <time>2017-01-14T17:17:29Z</time>
      </trkpt>
      <trkpt lat="48.61098" lon="-1.67108">
        <ele>5</ele>
        <time>2017-01-14T17:19:29Z</time>
      </trkpt>
      <trkpt lat="48.61095" lon="-1.67122">
        <ele>6</ele>
        <time>2017-01-14T17:21:29Z</time>
      </trkpt>
      <trkpt lat="48.61094" lon="-1.67134">
        <ele>6</ele>
        <time>2017-01-14T17:23:29Z</time>
      </trkpt>
      <trkpt lat="48.61091" lon="-1.67149">
        <ele>6</ele>
        <time>2017-01-14T17:25:29Z</time>
      </trkpt>
      <trkpt lat="48.61092" lon="-1.67202">
        <ele>6</ele>
        <time>2017-01-14T17:27:29Z</time>
      </trkpt>
      <trkpt lat="48.61095" lon="-1.67226">
        <ele>7</ele>
        <time>2017-01-14T17:29:29Z</time>
      </trkpt>
      <trkpt lat="48.61093" lon="-1.67248">
        <ele>7</ele>
        <time>2017-01-14T17:31:29Z</time>
      </trkpt>
      <trkpt lat="48.61093" lon="-1.6727">
        <ele>7</ele>
        <time>2017-01-14T17:33:29Z</time>
      </trkpt>
      <trkpt lat="48.61093" lon="-1.67285">
        <ele>7</ele>
        <time>2017-01-14T17:35:29Z</time>
      </trkpt>
      <trkpt lat="48.61092" lon="-1.67303">
        <ele>6</ele>
        <time>2017-01-14T17:37:29Z</time>
      </trkpt>
      <trkpt lat="48.61092" lon="-1.67319">
        <ele>6</ele>
        <time>2017-01-14T17:39:29Z</time>
      </trkpt>
      <trkpt lat="48.6109" lon="-1.67334">
        <ele>6</ele>
        <time>2017-01-14T17:41:29Z</time>
      </trkpt>
      <trkpt lat="48.61089" lon="-1.67347">
        <ele>6</ele>
        <time>2017-01-14T17:43:29Z</time>
      </trkpt>
      <trkpt lat="48.61089" lon="-1.67362">
        <ele>6</ele>
        <time>2017-01-14T17:45:29Z</time>
      </trkpt>
      <trkpt lat="48.61089" lon="-1.67377">
        <ele>6</ele>
        <time>2017-01-14T17:47:29Z</time>
      </trkpt>
      <trkpt lat="48.61088" lon="-1.6739">
        <ele>7</ele>
        <time>2017-01-14T17:49:29Z</time>
      </trkpt>
      <trkpt lat="48.61089" lon="-1.67406">
        <ele>7</ele>
        <time>2017-01-14T17:51:29Z</time>
      </trkpt>
      <trkpt lat="48.61087" lon="-1.6742">
        <ele>7</ele>
        <time>2017-01-14T17:53:29Z</time>
      </trkpt>
      <trkpt lat="48.61085" lon="-1.6745">
        <ele>7</ele>
        <time>2017-01-14T17:55:29Z</time>
      </trkpt>
      <trkpt lat="48.61083" lon="-1.67464">
        <ele>6</ele>
        <time>2017-01-14T17:57:29Z</time>
      </trkpt>
      <trkpt lat="48.61084" lon="-1.67478">
        <ele>6</ele>
        <time>2017-01-14T17:59:29Z</time>
      </trkpt>
      <trkpt lat="48.61083" lon="-1.67491">
        <ele>6</ele>
        <time>2017-01-14T18:01:29Z</time>
      </trkpt>
      <trkpt lat="48.61081" lon="-1.67503">
        <ele>6</ele>
        <time>2017-01-14T18:03:29Z</time>
      </trkpt>
      <trkpt lat="48.61082" lon="-1.67513">
        <ele>6</ele>
        <time>2017-01-14T18:05:29Z</time>
      </trkpt>
      <trkpt lat="48.6108" lon="-1.6753">
        <ele>6</ele>
        <time>2017-01-14T18:07:29Z</time>
      </trkpt>
      <trkpt lat="48.61077" lon="-1.6756">
        <ele>7</ele>
        <time>2017-01-14T18:09:29Z</time>
      </trkpt>
      <trkpt lat="48.61076" lon="-1.67573">
        <ele>7</ele>
        <time>2017-01-14T18:11:29Z</time>
      </trkpt>
      <trkpt lat="48.61076" lon="-1.67583">
        <ele>7</ele>
        <time>2017-01-14T18:13:29Z</time>
      </trkpt>
      <trkpt lat="48.61076" lon="-1.676">
        <ele>7</ele>
        <time>2017-01-14T18:15:29Z</time>
      </trkpt>
      <trkpt lat="48.61074" lon="-1.67616">
        <ele>7</ele>
        <time>2017-01-14T18:17:29Z</time>
      </trkpt>
      <trkpt lat="48.61072" lon="-1.67631">
        <ele>7</ele>
        <time>2017-01-14T18:19:29Z</time>
      </trkpt>
      <trkpt lat="48.61071" lon="-1.67654">
        <ele>7</ele>
        <time>2017-01-14T18:21:29Z</time>
      </trkpt>
      <trkpt lat="48.6107" lon="-1.67665">
        <ele>7</ele>
        <time>2017-01-14T18:23:29Z</time>
      </trkpt>
      <trkpt lat="48.61072" lon="-1.67678">
        <ele>7</ele>
        <time>2017-01-14T18:25:29Z</time>
      </trkpt>
      <trkpt lat="48.6107" lon="-1.67695">
        <ele>7</ele>
        <time>2017-01-14T18:27:29Z</time>
      </trkpt>
      <trkpt lat="48.6107" lon="-1.67711">
        <ele>6</ele>
        <time>2017-01-14T18:29:29Z</time>
      </trkpt>
      <trkpt lat="48.61071" lon="-1.67732">
        <ele>6</ele>
        <time>2017-01-14T18:31:29Z</time>
      </trkpt>
      <trkpt lat="48.61071" lon="-1.67744">
        <ele>6</ele>
        <time>2017-01-14T18:33:29Z</time>
      </trkpt>
      <trkpt lat="48.6107" lon="-1.67775">
        <ele>6</ele>
        <time>2017-01-14T18:35:29Z</time>
      </trkpt>
      <trkpt lat="48.61069" lon="-1.6779">
        <ele>6</ele>
        <time>2017-01-14T18:37:29Z</time>
      </trkpt>
      <trkpt lat="48.61066" lon="-1.67819">
        <ele>6</ele>
        <time>2017-01-14T18:39:29Z</time>
      </trkpt>
      <trkpt lat="48.61066" lon="-1.67849">
        <ele>6</ele>
        <time>2017-01-14T18:41:29Z</time>
      </trkpt>
      <trkpt lat="48.61063" lon="-1.67895">
        <ele>6</ele>
        <time>2017-01-14T18:43:29Z</time>
      </trkpt>
      <trkpt lat="48.61062" lon="-1.6791">
        <ele>6</ele>
        <time>2017-01-14T18:45:29Z</time>
      </trkpt>
      <trkpt lat="48.61061" lon="-1.67926">
        <ele>6</ele>
        <time>2017-01-14T18:47:29Z</time>
      </trkpt>
      <trkpt lat="48.61054" lon="-1.67974">
        <ele>6</ele>
        <time>2017-01-14T18:49:29Z</time>
      </trkpt>
      <trkpt lat="48.61052" lon="-1.6799">
        <ele>6</ele>
        <time>2017-01-14T18:51:29Z</time>
      </trkpt>
      <trkpt lat="48.61048" lon="-1.68005">
        <ele>6</ele>
        <time>2017-01-14T18:53:29Z</time>
      </trkpt>
      <trkpt lat="48.61046" lon="-1.68036">
        <ele>6</ele>
        <time>2017-01-14T18:55:29Z</time>
      </trkpt>
      <trkpt lat="48.61044" lon="-1.68051">
        <ele>6</ele>
        <time>2017-01-14T18:57:29Z</time>
      </trkpt>
      <trkpt lat="48.61042" lon="-1.68066">
        <ele>6</ele>
        <time>2017-01-14T18:59:29Z</time>
      </trkpt>
      <trkpt lat="48.61041" lon="-1.68082">
        <ele>6</ele>
        <time>2017-01-14T19:01:29Z</time>
      </trkpt>
      <trkpt lat="48.61041" lon="-1.68098">
        <ele>6</ele>
        <time>2017-01-14T19:03:29Z</time>
      </trkpt>
      <trkpt lat="48.61037" lon="-1.68128">
        <ele>6</ele>
        <time>2017-01-14T19:05:29Z</time>
      </trkpt>
      <trkpt lat="48.61036" lon="-1.68141">
        <ele>6</ele>
        <time>2017-01-14T19:07:29Z</time>
      </trkpt>
      <trkpt lat="48.61035" lon="-1.68157">
        <ele>6</ele>
        <time>2017-01-14T19:09:29Z</time>
      </trkpt>
      <trkpt lat="48.6103" lon="-1.68204">
        <ele>6</ele>
        <time>2017-01-14T19:11:29Z</time>
      </trkpt>
      <trkpt lat="48.61029" lon="-1.68219">
        <ele>6</ele>
        <time>2017-01-14T19:13:29Z</time>
      </trkpt>
      <trkpt lat="48.61027" lon="-1.68234">
        <ele>6</ele>
        <time>2017-01-14T19:15:29Z</time>
      </trkpt>
      <trkpt lat="48.61027" lon="-1.68249">
        <ele>6</ele>
        <time>2017-01-14T19:17:29Z</time>
      </trkpt>
      <trkpt lat="48.61026" lon="-1.68266">
        <ele>6</ele>
        <time>2017-01-14T19:19:29Z</time>
      </trkpt>
      <trkpt lat="48.61025" lon="-1.68281">
        <ele>5</ele>
        <time>2017-01-14T19:21:29Z</time>
      </trkpt>
      <trkpt lat="48.61024" lon="-1.68298">
        <ele>5</ele>
        <time>2017-01-14T19:23:29Z</time>
      </trkpt>
      <trkpt lat="48.61021" lon="-1.68313">
        <ele>5</ele>
        <time>2017-01-14T19:25:29Z</time>
      </trkpt>
      <trkpt lat="48.61019" lon="-1.68328">
        <ele>5</ele>
        <time>2017-01-14T19:27:29Z</time>
      </trkpt>
      <trkpt lat="48.61017" lon="-1.68344">
        <ele>5</ele>
        <time>2017-01-14T19:29:29Z</time>
      </trkpt>
      <trkpt lat="48.61016" lon="-1.6836">
        <ele>5</ele>
        <time>2017-01-14T19:31:29Z</time>
      </trkpt>
      <trkpt lat="48.61014" lon="-1.68377">
        <ele>5</ele>
        <time>2017-01-14T19:33:29Z</time>
      </trkpt>
      <trkpt lat="48.61012" lon="-1.68393">
        <ele>6</ele>
        <time>2017-01-14T19:35:29Z</time>
      </trkpt>
      <trkpt lat="48.61008" lon="-1.68424">
        <ele>6</ele>
        <time>2017-01-14T19:37:29Z</time>
      </trkpt>
      <trkpt lat="48.61003" lon="-1.68439">
        <ele>6</ele>
        <time>2017-01-14T19:39:29Z</time>
      </trkpt>
      <trkpt lat="48.61001" lon="-1.68456">
        <ele>6</ele>
        <time>2017-01-14T19:41:29Z</time>
      </trkpt>
      <trkpt lat="48.60999" lon="-1.68489">
        <ele>6</ele>
        <time>2017-01-14T19:43:29Z</time>
      </trkpt>
      <trkpt lat="48.60994" lon="-1.68533">
        <ele>6</ele>
        <time>2017-01-14T19:45:29Z</time>
      </trkpt>
      <trkpt lat="48.60993" lon="-1.68549">
        <ele>6</ele>
        <time>2017-01-14T19:47:29Z</time>
      </trkpt>
      <trkpt lat="48.60988" lon="-1.68577">
        <ele>6</ele>
        <time>2017-01-14T19:49:29Z</time>
      </trkpt>
      <trkpt lat="48.60987" lon="-1.68593">
        <ele>6</ele>
        <time>2017-01-14T19:51:29Z</time>
      </trkpt>
      <trkpt lat="48.60984" lon="-1.68609">
        <ele>5</ele>
        <time>2017-01-14T19:53:29Z</time>
      </trkpt>
      <trkpt lat="48.60982" lon="-1.68625">
        <ele>4</ele>
        <time>2017-01-14T19:55:29Z</time>
      </trkpt>
      <trkpt lat="48.6098" lon="-1.6864">
        <ele>3</ele>
        <time>2017-01-14T19:57:29Z</time>
      </trkpt>
      <trkpt lat="48.60976" lon="-1.68671">
        <ele>2</ele>
        <time>2017-01-14T19:59:29Z</time>
      </trkpt>
      <trkpt lat="48.60983" lon="-1.68669">
        <ele>1</ele>
        <time>2017-01-14T20:01:29Z</time>
      </trkpt>
      <trkpt lat="48.60993" lon="-1.6867">
        <ele>1</ele>
        <time>2017-01-14T20:03:29Z</time>
      </trkpt>
      <trkpt lat="48.6101" lon="-1.68684">
        <ele>7.6</ele>
        <time>2017-01-14T20:05:29Z</time>
      </trkpt>
      <trkpt lat="48.61012" lon="-1.68698">
        <ele>7.6</ele>
        <time>2017-01-14T20:07:29Z</time>
      </trkpt>
      <trkpt lat="48.61009" lon="-1.68713">
        <ele>7.7</ele>
        <time>2017-01-14T20:09:29Z</time>
      </trkpt>
      <trkpt lat="48.61003" lon="-1.68755">
        <ele>7</ele>
        <time>2017-01-14T20:11:29Z</time>
      </trkpt>
      <trkpt lat="48.61001" lon="-1.68771">
        <ele>7</ele>
        <time>2017-01-14T20:13:29Z</time>
      </trkpt>
      <trkpt lat="48.60998" lon="-1.68787">
        <ele>7.1</ele>
        <time>2017-01-14T20:15:29Z</time>
      </trkpt>
      <trkpt lat="48.60997" lon="-1.68802">
        <ele>7.1</ele>
        <time>2017-01-14T20:17:29Z</time>
      </trkpt>
      <trkpt lat="48.60993" lon="-1.68818">
        <ele>1</ele>
        <time>2017-01-14T20:19:29Z</time>
      </trkpt>
      <trkpt lat="48.60991" lon="-1.68849">
        <ele>1</ele>
        <time>2017-01-14T20:21:29Z</time>
      </trkpt>
      <trkpt lat="48.60989" lon="-1.68865">
        <ele>1</ele>
        <time>2017-01-14T20:23:29Z</time>
      </trkpt>
      <trkpt lat="48.60986" lon="-1.68878">
        <ele>1</ele>
        <time>2017-01-14T20:25:29Z</time>
      </trkpt>
      <trkpt lat="48.60984" lon="-1.68892">
        <ele>1</ele>
        <time>2017-01-14T20:27:29Z</time>
      </trkpt>
      <trkpt lat="48.6098" lon="-1.68906">
        <ele>2</ele>
        <time>2017-01-14T20:29:29Z</time>
      </trkpt>
      <trkpt lat="48.60972" lon="-1.68948">
        <ele>3</ele>
        <time>2017-01-14T20:31:29Z</time>
      </trkpt>
      <trkpt lat="48.60969" lon="-1.68962">
        <ele>3</ele>
        <time>2017-01-14T20:33:29Z</time>
      </trkpt>
      <trkpt lat="48.60967" lon="-1.68977">
        <ele>3</ele>
        <time>2017-01-14T20:35:29Z</time>
      </trkpt>
      <trkpt lat="48.60965" lon="-1.68993">
        <ele>3</ele>
        <time>2017-01-14T20:37:29Z</time>
      </trkpt>
      <trkpt lat="48.60963" lon="-1.69021">
        <ele>3</ele>
        <time>2017-01-14T20:39:29Z</time>
      </trkpt>
      <trkpt lat="48.6096" lon="-1.69035">
        <ele>3</ele>
        <time>2017-01-14T20:41:29Z</time>
      </trkpt>
      <trkpt lat="48.60959" lon="-1.6905">
        <ele>3</ele>
        <time>2017-01-14T20:43:29Z</time>
      </trkpt>
      <trkpt lat="48.60958" lon="-1.69066">
        <ele>3</ele>
        <time>2017-01-14T20:45:29Z</time>
      </trkpt>
      <trkpt lat="48.60957" lon="-1.69082">
        <ele>3</ele>
        <time>2017-01-14T20:47:29Z</time>
      </trkpt>
      <trkpt lat="48.60955" lon="-1.69096">
        <ele>3</ele>
        <time>2017-01-14T20:49:29Z</time>
      </trkpt>
      <trkpt lat="48.60953" lon="-1.69109">
        <ele>3</ele>
        <time>2017-01-14T20:51:29Z</time>
      </trkpt>
      <trkpt lat="48.6095" lon="-1.69122">
        <ele>4</ele>
        <time>2017-01-14T20:53:29Z</time>
      </trkpt>
      <trkpt lat="48.60946" lon="-1.69153">
        <ele>4</ele>
        <time>2017-01-14T20:55:29Z</time>
      </trkpt>
      <trkpt lat="48.6094" lon="-1.6918">
        <ele>4</ele>
        <time>2017-01-14T20:57:29Z</time>
      </trkpt>
      <trkpt lat="48.60939" lon="-1.69194">
        <ele>4</ele>
        <time>2017-01-14T20:59:29Z</time>
      </trkpt>
      <trkpt lat="48.60936" lon="-1.69209">
        <ele>5</ele>
        <time>2017-01-14T21:01:29Z</time>
      </trkpt>
      <trkpt lat="48.60928" lon="-1.69239">
        <ele>5</ele>
        <time>2017-01-14T21:03:29Z</time>
      </trkpt>
      <trkpt lat="48.60926" lon="-1.69253">
        <ele>5</ele>
        <time>2017-01-14T21:05:29Z</time>
      </trkpt>
      <trkpt lat="48.60925" lon="-1.69268">
        <ele>4</ele>
        <time>2017-01-14T21:07:29Z</time>
      </trkpt>
      <trkpt lat="48.60923" lon="-1.69282">
        <ele>3</ele>
        <time>2017-01-14T21:09:29Z</time>
      </trkpt>
      <trkpt lat="48.60921" lon="-1.69295">
        <ele>3</ele>
        <time>2017-01-14T21:11:29Z</time>
      </trkpt>
      <trkpt lat="48.60918" lon="-1.69308">
        <ele>2</ele>
        <time>2017-01-14T21:13:29Z</time>
      </trkpt>
      <trkpt lat="48.60913" lon="-1.69338">
        <ele>7</ele>
        <time>2017-01-14T21:15:29Z</time>
      </trkpt>
      <trkpt lat="48.60911" lon="-1.69353">
        <ele>1</ele>
        <time>2017-01-14T21:17:29Z</time>
      </trkpt>
      <trkpt lat="48.60908" lon="-1.69368">
        <ele>1</ele>
        <time>2017-01-14T21:19:29Z</time>
      </trkpt>
      <trkpt lat="48.60906" lon="-1.69381">
        <ele>1</ele>
        <time>2017-01-14T21:21:29Z</time>
      </trkpt>
      <trkpt lat="48.60903" lon="-1.69396">
        <ele>1</ele>
        <time>2017-01-14T21:23:29Z</time>
      </trkpt>
      <trkpt lat="48.60895" lon="-1.69441">
        <ele>2</ele>
        <time>2017-01-14T21:25:29Z</time>
      </trkpt>
      <trkpt lat="48.60893" lon="-1.69456">
        <ele>2</ele>
        <time>2017-01-14T21:27:29Z</time>
      </trkpt>
      <trkpt lat="48.60891" lon="-1.69471">
        <ele>2</ele>
        <time>2017-01-14T21:29:29Z</time>
      </trkpt>
      <trkpt lat="48.60889" lon="-1.69485">
        <ele>2</ele>
        <time>2017-01-14T21:31:29Z</time>
      </trkpt>
      <trkpt lat="48.60886" lon="-1.69499">
        <ele>2</ele>
        <time>2017-01-14T21:33:29Z</time>
      </trkpt>
      <trkpt lat="48.60883" lon="-1.69514">
        <ele>2</ele>
        <time>2017-01-14T21:35:29Z</time>
      </trkpt>
      <trkpt lat="48.60881" lon="-1.69526">
        <ele>3</ele>
        <time>2017-01-14T21:37:29Z</time>
      </trkpt>
      <trkpt lat="48.6088" lon="-1.69538">
        <ele>3</ele>
        <time>2017-01-14T21:39:29Z</time>
      </trkpt>
      <trkpt lat="48.60877" lon="-1.6957">
        <ele>3</ele>
        <time>2017-01-14T21:41:29Z</time>
      </trkpt>
      <trkpt lat="48.60875" lon="-1.69585">
        <ele>3</ele>
        <time>2017-01-14T21:43:29Z</time>
      </trkpt>
      <trkpt lat="48.60873" lon="-1.696">
        <ele>3</ele>
        <time>2017-01-14T21:45:29Z</time>
      </trkpt>
      <trkpt lat="48.60872" lon="-1.69615">
        <ele>3</ele>
        <time>2017-01-14T21:47:29Z</time>
      </trkpt>
      <trkpt lat="48.6087" lon="-1.6963">
        <ele>3</ele>
        <time>2017-01-14T21:49:29Z</time>
      </trkpt>
      <trkpt lat="48.60865" lon="-1.69659">
        <ele>3</ele>
        <time>2017-01-14T21:51:29Z</time>
      </trkpt>
      <trkpt lat="48.60862" lon="-1.69688">
        <ele>4</ele>
        <time>2017-01-14T21:53:29Z</time>
      </trkpt>
      <trkpt lat="48.60856" lon="-1.69748">
        <ele>5</ele>
        <time>2017-01-14T21:55:29Z</time>
      </trkpt>
      <trkpt lat="48.60855" lon="-1.69763">
        <ele>5</ele>
        <time>2017-01-14T21:57:29Z</time>
      </trkpt>
      <trkpt lat="48.60855" lon="-1.69778">
        <ele>4</ele>
        <time>2017-01-14T21:59:29Z</time>
      </trkpt>
      <trkpt lat="48.60853" lon="-1.69807">
        <ele>4</ele>
        <time>2017-01-14T22:01:29Z</time>
      </trkpt>
      <trkpt lat="48.60852" lon="-1.69823">
        <ele>3</ele>
        <time>2017-01-14T22:03:29Z</time>
      </trkpt>
      <trkpt lat="48.60851" lon="-1.69837">
        <ele>3</ele>
        <time>2017-01-14T22:05:29Z</time>
      </trkpt>
      <trkpt lat="48.60849" lon="-1.69851">
        <ele>3</ele>
        <time>2017-01-14T22:07:29Z</time>
      </trkpt>
      <trkpt lat="48.60848" lon="-1.69868">
        <ele>2</ele>
        <time>2017-01-14T22:09:29Z</time>
      </trkpt>
      <trkpt lat="48.60846" lon="-1.69895">
        <ele>1</ele>
        <time>2017-01-14T22:11:29Z</time>
      </trkpt>
      <trkpt lat="48.60843" lon="-1.69912">
        <ele>7.5</ele>
        <time>2017-01-14T22:13:29Z</time>
      </trkpt>
      <trkpt lat="48.60842" lon="-1.69926">
        <ele>7.6</ele>
        <time>2017-01-14T22:15:29Z</time>
      </trkpt>
      <trkpt lat="48.6084" lon="-1.6994">
        <ele>7.6</ele>
        <time>2017-01-14T22:17:29Z</time>
      </trkpt>
      <trkpt lat="48.60839" lon="-1.69953">
        <ele>7.6</ele>
        <time>2017-01-14T22:19:29Z</time>
      </trkpt>
      <trkpt lat="48.60837" lon="-1.69968">
        <ele>7.7</ele>
        <time>2017-01-14T22:21:29Z</time>
      </trkpt>
      <trkpt lat="48.60835" lon="-1.69996">
        <ele>7.9</ele>
        <time>2017-01-14T22:23:29Z</time>
      </trkpt>
      <trkpt lat="48.60834" lon="-1.70011">
        <ele>8</ele>
        <time>2017-01-14T22:25:29Z</time>
      </trkpt>
      <trkpt lat="48.60832" lon="-1.70027">
        <ele>8</ele>
        <time>2017-01-14T22:27:29Z</time>
      </trkpt>
      <trkpt lat="48.60829" lon="-1.70057">
        <ele>7</ele>
        <time>2017-01-14T22:29:29Z</time>
      </trkpt>
      <trkpt lat="48.60826" lon="-1.70088">
        <ele>7</ele>
        <time>2017-01-14T22:31:29Z</time>
      </trkpt>
      <trkpt lat="48.60822" lon="-1.70119">
        <ele>7</ele>
        <time>2017-01-14T22:33:29Z</time>
      </trkpt>
      <trkpt lat="48.60821" lon="-1.70135">
        <ele>7</ele>
        <time>2017-01-14T22:35:29Z</time>
      </trkpt>
      <trkpt lat="48.60818" lon="-1.70164">
        <ele>7</ele>
        <time>2017-01-14T22:37:29Z</time>
      </trkpt>
      <trkpt lat="48.60817" lon="-1.70179">
        <ele>7.3</ele>
        <time>2017-01-14T22:39:29Z</time>
      </trkpt>
      <trkpt lat="48.6081" lon="-1.70225">
        <ele>1</ele>
        <time>2017-01-14T22:41:29Z</time>
      </trkpt>
      <trkpt lat="48.60809" lon="-1.70254">
        <ele>2</ele>
        <time>2017-01-14T22:43:29Z</time>
      </trkpt>
      <trkpt lat="48.60807" lon="-1.70269">
        <ele>2</ele>
        <time>2017-01-14T22:45:29Z</time>
      </trkpt>
      <trkpt lat="48.60805" lon="-1.70284">
        <ele>2</ele>
        <time>2017-01-14T22:47:29Z</time>
      </trkpt>
      <trkpt lat="48.60804" lon="-1.70298">
        <ele>2</ele>
        <time>2017-01-14T22:49:29Z</time>
      </trkpt>
      <trkpt lat="48.60803" lon="-1.70313">
        <ele>2</ele>
        <time>2017-01-14T22:51:29Z</time>
      </trkpt>
      <trkpt lat="48.60799" lon="-1.70331">
        <ele>2</ele>
        <time>2017-01-14T22:53:29Z</time>
      </trkpt>
      <trkpt lat="48.60798" lon="-1.70364">
        <ele>2</ele>
        <time>2017-01-14T22:55:29Z</time>
      </trkpt>
      <trkpt lat="48.60796" lon="-1.70377">
        <ele>2</ele>
        <time>2017-01-14T22:57:29Z</time>
      </trkpt>
      <trkpt lat="48.60794" lon="-1.70391">
        <ele>3</ele>
        <time>2017-01-14T22:59:29Z</time>
      </trkpt>
      <trkpt lat="48.60794" lon="-1.70405">
        <ele>2</ele>
        <time>2017-01-14T23:01:29Z</time>
      </trkpt>
      <trkpt lat="48.60793" lon="-1.70421">
        <ele>2</ele>
        <time>2017-01-14T23:03:29Z</time>
      </trkpt>
      <trkpt lat="48.60791" lon="-1.70436">
        <ele>3</ele>
        <time>2017-01-14T23:05:29Z</time>
      </trkpt>
      <trkpt lat="48.60789" lon="-1.70451">
        <ele>3</ele>
        <time>2017-01-14T23:07:29Z</time>
      </trkpt>
      <trkpt lat="48.60786" lon="-1.70465">
        <ele>3</ele>
        <time>2017-01-14T23:09:29Z</time>
      </trkpt>
      <trkpt lat="48.60786" lon="-1.70481">
        <ele>3</ele>
        <time>2017-01-14T23:11:29Z</time>
      </trkpt>
      <trkpt lat="48.60784" lon="-1.70496">
        <ele>3</ele>
        <time>2017-01-14T23:13:29Z</time>
      </trkpt>
      <trkpt lat="48.60776" lon="-1.70553">
        <ele>1</ele>
        <time>2017-01-14T23:15:29Z</time>
      </trkpt>
      <trkpt lat="48.60775" lon="-1.70569">
        <ele>1</ele>
        <time>2017-01-14T23:17:29Z</time>
      </trkpt>
      <trkpt lat="48.60773" lon="-1.70584">
        <ele>7</ele>
        <time>2017-01-14T23:19:29Z</time>
      </trkpt>
      <trkpt lat="48.60767" lon="-1.70615">
        <ele>7.1</ele>
        <time>2017-01-14T23:21:29Z</time>
      </trkpt>
      <trkpt lat="48.60765" lon="-1.70631">
        <ele>7.3</ele>
        <time>2017-01-14T23:23:29Z</time>
      </trkpt>
      <trkpt lat="48.60761" lon="-1.70644">
        <ele>7.5</ele>
        <time>2017-01-14T23:25:29Z</time>
      </trkpt>
      <trkpt lat="48.60759" lon="-1.70658">
        <ele>7.2</ele>
        <time>2017-01-14T23:27:29Z</time>
      </trkpt>
      <trkpt lat="48.60757" lon="-1.70673">
        <ele>7</ele>
        <time>2017-01-14T23:29:29Z</time>
      </trkpt>
      <trkpt lat="48.60754" lon="-1.70687">
        <ele>7</ele>
        <time>2017-01-14T23:31:29Z</time>
      </trkpt>
      <trkpt lat="48.6075" lon="-1.70699">
        <ele>7</ele>
        <time>2017-01-14T23:33:29Z</time>
      </trkpt>
      <trkpt lat="48.60746" lon="-1.70713">
        <ele>7</ele>
        <time>2017-01-14T23:35:29Z</time>
      </trkpt>
      <trkpt lat="48.60736" lon="-1.70739">
        <ele>1</ele>
        <time>2017-01-14T23:37:29Z</time>
      </trkpt>
      <trkpt lat="48.60722" lon="-1.70761">
        <ele>2</ele>
        <time>2017-01-14T23:39:29Z</time>
      </trkpt>
      <trkpt lat="48.60708" lon="-1.70781">
        <ele>4</ele>
        <time>2017-01-14T23:41:29Z</time>
      </trkpt>
      <trkpt lat="48.607" lon="-1.70788">
        <ele>4</ele>
        <time>2017-01-14T23:43:29Z</time>
      </trkpt>
      <trkpt lat="48.60699" lon="-1.70802">
        <ele>5</ele>
        <time>2017-01-14T23:45:29Z</time>
      </trkpt>
      <trkpt lat="48.60702" lon="-1.70808">
        <ele>4</ele>
        <time>2017-01-14T23:47:29Z</time>
      </trkpt>
      <trkpt lat="48.60706" lon="-1.70821">
        <ele>4</ele>
        <time>2017-01-14T23:49:29Z</time>
      </trkpt>
      <trkpt lat="48.60708" lon="-1.70836">
        <ele>4</ele>
        <time>2017-01-14T23:51:29Z</time>
      </trkpt>
      <trkpt lat="48.60711" lon="-1.70866">
        <ele>3</ele>
        <time>2017-01-14T23:53:29Z</time>
      </trkpt>
      <trkpt lat="48.60712" lon="-1.7088">
        <ele>3</ele>
        <time>2017-01-14T23:55:29Z</time>
      </trkpt>
      <trkpt lat="48.60713" lon="-1.70894">
        <ele>3</ele>
        <time>2017-01-14T23:57:29Z</time>
      </trkpt>
      <trkpt lat="48.60715" lon="-1.7091">
        <ele>3</ele>
        <time>2017-01-14T23:59:29Z</time>
      </trkpt>
      <trkpt lat="48.60717" lon="-1.70925">
        <ele>2</ele>
        <time>2017-01-15T00:01:29Z</time>
      </trkpt>
      <trkpt lat="48.60718" lon="-1.70955">
        <ele>1</ele>
        <time>2017-01-15T00:03:29Z</time>
      </trkpt>
      <trkpt lat="48.60718" lon="-1.70969">
        <ele>1</ele>
        <time>2017-01-15T00:05:29Z</time>
      </trkpt>
      <trkpt lat="48.60719" lon="-1.70985">
        <ele>7</ele>
        <time>2017-01-15T00:07:29Z</time>
      </trkpt>
      <trkpt lat="48.6072" lon="-1.71014">
        <ele>7</ele>
        <time>2017-01-15T00:09:29Z</time>
      </trkpt>
      <trkpt lat="48.60721" lon="-1.71028">
        <ele>7</ele>
        <time>2017-01-15T00:11:29Z</time>
      </trkpt>
      <trkpt lat="48.60722" lon="-1.71043">
        <ele>7</ele>
        <time>2017-01-15T00:13:29Z</time>
      </trkpt>
      <trkpt lat="48.60725" lon="-1.71073">
        <ele>7</ele>
        <time>2017-01-15T00:15:29Z</time>
      </trkpt>
      <trkpt lat="48.60726" lon="-1.71088">
        <ele>7</ele>
        <time>2017-01-15T00:17:29Z</time>
      </trkpt>
      <trkpt lat="48.60728" lon="-1.71101">
        <ele>2</ele>
        <time>2017-01-15T00:19:29Z</time>
      </trkpt>
      <trkpt lat="48.6073" lon="-1.71117">
        <ele>3</ele>
        <time>2017-01-15T00:21:29Z</time>
      </trkpt>
      <trkpt lat="48.60732" lon="-1.71132">
        <ele>5</ele>
        <time>2017-01-15T00:23:29Z</time>
      </trkpt>
      <trkpt lat="48.60733" lon="-1.71146">
        <ele>6</ele>
        <time>2017-01-15T00:25:29Z</time>
      </trkpt>
      <trkpt lat="48.60735" lon="-1.7116">
        <ele>7</ele>
        <time>2017-01-15T00:27:29Z</time>
      </trkpt>
      <trkpt lat="48.60736" lon="-1.71174">
        <ele>8</ele>
        <time>2017-01-15T00:29:29Z</time>
      </trkpt>
      <trkpt lat="48.60739" lon="-1.7119">
        <ele>7</ele>
        <time>2017-01-15T00:31:29Z</time>
      </trkpt>
      <trkpt lat="48.60741" lon="-1.71203">
        <ele>7</ele>
        <time>2017-01-15T00:33:29Z</time>
      </trkpt>
      <trkpt lat="48.60741" lon="-1.71218">
        <ele>7</ele>
        <time>2017-01-15T00:35:29Z</time>
      </trkpt>
      <trkpt lat="48.60741" lon="-1.71233">
        <ele>6</ele>
        <time>2017-01-15T00:37:29Z</time>
      </trkpt>
      <trkpt lat="48.60739" lon="-1.71264">
        <ele>6</ele>
        <time>2017-01-15T00:39:29Z</time>
      </trkpt>
      <trkpt lat="48.60739" lon="-1.71279">
        <ele>5</ele>
        <time>2017-01-15T00:41:29Z</time>
      </trkpt>
      <trkpt lat="48.60737" lon="-1.71293">
        <ele>5</ele>
        <time>2017-01-15T00:43:29Z</time>
      </trkpt>
      <trkpt lat="48.60738" lon="-1.71309">
        <ele>4</ele>
        <time>2017-01-15T00:45:29Z</time>
      </trkpt>
      <trkpt lat="48.60739" lon="-1.71324">
        <ele>4</ele>
        <time>2017-01-15T00:47:29Z</time>
      </trkpt>
      <trkpt lat="48.60738" lon="-1.7134">
        <ele>3</ele>
        <time>2017-01-15T00:49:29Z</time>
      </trkpt>
      <trkpt lat="48.6074" lon="-1.71354">
        <ele>3</ele>
        <time>2017-01-15T00:51:29Z</time>
      </trkpt>
      <trkpt lat="48.60739" lon="-1.71368">
        <ele>3</ele>
        <time>2017-01-15T00:53:29Z</time>
      </trkpt>
      <trkpt lat="48.6074" lon="-1.71383">
        <ele>3</ele>
        <time>2017-01-15T00:55:29Z</time>
      </trkpt>
      <trkpt lat="48.6074" lon="-1.71413">
        <ele>3</ele>
        <time>2017-01-15T00:57:29Z</time>
      </trkpt>
      <trkpt lat="48.60741" lon="-1.71428">
        <ele>4</ele>
        <time>2017-01-15T00:59:29Z</time>
      </trkpt>
      <trkpt lat="48.60741" lon="-1.71458">
        <ele>4</ele>
        <time>2017-01-15T01:01:29Z</time>
      </trkpt>
      <trkpt lat="48.60741" lon="-1.71473">
        <ele>5</ele>
        <time>2017-01-15T01:03:29Z</time>
      </trkpt>
      <trkpt lat="48.60741" lon="-1.71503">
        <ele>5</ele>
        <time>2017-01-15T01:05:29Z</time>
      </trkpt>
      <trkpt lat="48.60741" lon="-1.71519">
        <ele>5</ele>
        <time>2017-01-15T01:07:29Z</time>
      </trkpt>
      <trkpt lat="48.60742" lon="-1.71534">
        <ele>4</ele>
        <time>2017-01-15T01:09:29Z</time>
      </trkpt>
      <trkpt lat="48.60742" lon="-1.71549">
        <ele>4</ele>
        <time>2017-01-15T01:11:29Z</time>
      </trkpt>
      <trkpt lat="48.60743" lon="-1.71564">
        <ele>4</ele>
        <time>2017-01-15T01:13:29Z</time>
      </trkpt>
      <trkpt lat="48.60743" lon="-1.7158">
        <ele>3</ele>
        <time>2017-01-15T01:15:29Z</time>
      </trkpt>
      <trkpt lat="48.60744" lon="-1.71595">
        <ele>3</ele>
        <time>2017-01-15T01:17:29Z</time>
      </trkpt>
      <trkpt lat="48.60746" lon="-1.71609">
        <ele>3</ele>
        <time>2017-01-15T01:19:29Z</time>
      </trkpt>
      <trkpt lat="48.60747" lon="-1.71623">
        <ele>4</ele>
        <time>2017-01-15T01:21:29Z</time>
      </trkpt>
      <trkpt lat="48.60751" lon="-1.71653">
        <ele>4</ele>
        <time>2017-01-15T01:23:29Z</time>
      </trkpt>
      <trkpt lat="48.60754" lon="-1.71667">
        <ele>4</ele>
        <time>2017-01-15T01:25:29Z</time>
      </trkpt>
      <trkpt lat="48.60763" lon="-1.71695">
        <ele>4</ele>
        <time>2017-01-15T01:27:29Z</time>
      </trkpt>
      <trkpt lat="48.60765" lon="-1.71707">
        <ele>4</ele>
        <time>2017-01-15T01:29:29Z</time>
      </trkpt>
      <trkpt lat="48.60769" lon="-1.71721">
        <ele>5</ele>
        <time>2017-01-15T01:31:29Z</time>
      </trkpt>
      <trkpt lat="48.60772" lon="-1.71735">
        <ele>5</ele>
        <time>2017-01-15T01:33:29Z</time>
      </trkpt>
      <trkpt lat="48.60774" lon="-1.71749">
        <ele>6</ele>
        <time>2017-01-15T01:35:29Z</time>
      </trkpt>
      <trkpt lat="48.60778" lon="-1.71763">
        <ele>6</ele>
        <time>2017-01-15T01:37:29Z</time>
      </trkpt>
      <trkpt lat="48.60779" lon="-1.71778">
        <ele>5</ele>
        <time>2017-01-15T01:39:29Z</time>
      </trkpt>
      <trkpt lat="48.6078" lon="-1.71792">
        <ele>5</ele>
        <time>2017-01-15T01:41:29Z</time>
      </trkpt>
      <trkpt lat="48.60782" lon="-1.71805">
        <ele>4</ele>
        <time>2017-01-15T01:43:29Z</time>
      </trkpt>
      <trkpt lat="48.60782" lon="-1.7182">
        <ele>3</ele>
        <time>2017-01-15T01:45:29Z</time>
      </trkpt>
      <trkpt lat="48.60784" lon="-1.71835">
        <ele>3</ele>
        <time>2017-01-15T01:47:29Z</time>
      </trkpt>
      <trkpt lat="48.60784" lon="-1.71849">
        <ele>3</ele>
        <time>2017-01-15T01:49:29Z</time>
      </trkpt>
      <trkpt lat="48.60786" lon="-1.71877">
        <ele>3</ele>
        <time>2017-01-15T01:51:29Z</time>
      </trkpt>
      <trkpt lat="48.60788" lon="-1.71907">
        <ele>3</ele>
        <time>2017-01-15T01:53:29Z</time>
      </trkpt>
      <trkpt lat="48.60789" lon="-1.7192">
        <ele>3</ele>
        <time>2017-01-15T01:55:29Z</time>
      </trkpt>
      <trkpt lat="48.6079" lon="-1.71967">
        <ele>3</ele>
        <time>2017-01-15T01:57:29Z</time>
      </trkpt>
      <trkpt lat="48.60789" lon="-1.71983">
        <ele>3</ele>
        <time>2017-01-15T01:59:29Z</time>
      </trkpt>
      <trkpt lat="48.60789" lon="-1.71997">
        <ele>4</ele>
        <time>2017-01-15T02:01:29Z</time>
      </trkpt>
      <trkpt lat="48.60789" lon="-1.72028">
        <ele>4</ele>
        <time>2017-01-15T02:03:29Z</time>
      </trkpt>
      <trkpt lat="48.60787" lon="-1.72043">
        <ele>4</ele>
        <time>2017-01-15T02:05:29Z</time>
      </trkpt>
      <trkpt lat="48.60787" lon="-1.72057">
        <ele>4</ele>
        <time>2017-01-15T02:07:29Z</time>
      </trkpt>
      <trkpt lat="48.60789" lon="-1.72072">
        <ele>4</ele>
        <time>2017-01-15T02:09:29Z</time>
      </trkpt>
      <trkpt lat="48.60788" lon="-1.72102">
        <ele>5</ele>
        <time>2017-01-15T02:11:29Z</time>
      </trkpt>
      <trkpt lat="48.60789" lon="-1.72132">
        <ele>5</ele>
        <time>2017-01-15T02:13:29Z</time>
      </trkpt>
      <trkpt lat="48.60789" lon="-1.72148">
        <ele>5</ele>
        <time>2017-01-15T02:15:29Z</time>
      </trkpt>
      <trkpt lat="48.60789" lon="-1.72164">
        <ele>6</ele>
        <time>2017-01-15T02:17:29Z</time>
      </trkpt>
      <trkpt lat="48.60788" lon="-1.72179">
        <ele>5</ele>
        <time>2017-01-15T02:19:29Z</time>
      </trkpt>
      <trkpt lat="48.60788" lon="-1.72194">
        <ele>5</ele>
        <time>2017-01-15T02:21:29Z</time>
      </trkpt>
      <trkpt lat="48.60787" lon="-1.72209">
        <ele>5</ele>
        <time>2017-01-15T02:23:29Z</time>
      </trkpt>
      <trkpt lat="48.60786" lon="-1.7224">
        <ele>5</ele>
        <time>2017-01-15T02:25:29Z</time>
      </trkpt>
      <trkpt lat="48.60784" lon="-1.72284">
        <ele>4</ele>
        <time>2017-01-15T02:27:29Z</time>
      </trkpt>
      <trkpt lat="48.60782" lon="-1.72294">
        <ele>4</ele>
        <time>2017-01-15T02:29:29Z</time>
      </trkpt>
      <trkpt lat="48.6078" lon="-1.72308">
        <ele>4</ele>
        <time>2017-01-15T02:31:29Z</time>
      </trkpt>
      <trkpt lat="48.60776" lon="-1.72323">
        <ele>4</ele>
        <time>2017-01-15T02:33:29Z</time>
      </trkpt>
      <trkpt lat="48.60774" lon="-1.72338">
        <ele>4</ele>
        <time>2017-01-15T02:35:29Z</time>
      </trkpt>
      <trkpt lat="48.60772" lon="-1.72355">
        <ele>4</ele>
        <time>2017-01-15T02:37:29Z</time>
      </trkpt>
      <trkpt lat="48.6077" lon="-1.72368">
        <ele>4</ele>
        <time>2017-01-15T02:39:29Z</time>
      </trkpt>
      <trkpt lat="48.6077" lon="-1.72383">
        <ele>4</ele>
        <time>2017-01-15T02:41:29Z</time>
      </trkpt>
      <trkpt lat="48.60771" lon="-1.72398">
        <ele>4</ele>
        <time>2017-01-15T02:43:29Z</time>
      </trkpt>
      <trkpt lat="48.60772" lon="-1.72413">
        <ele>4</ele>
        <time>2017-01-15T02:45:29Z</time>
      </trkpt>
      <trkpt lat="48.60773" lon="-1.72427">
        <ele>4</ele>
        <time>2017-01-15T02:47:29Z</time>
      </trkpt>
      <trkpt lat="48.60775" lon="-1.72443">
        <ele>3</ele>
        <time>2017-01-15T02:49:29Z</time>
      </trkpt>
      <trkpt lat="48.60776" lon="-1.72459">
        <ele>3</ele>
        <time>2017-01-15T02:51:29Z</time>
      </trkpt>
      <trkpt lat="48.60776" lon="-1.72475">
        <ele>3</ele>
        <time>2017-01-15T02:53:29Z</time>
      </trkpt>
      <trkpt lat="48.60776" lon="-1.7249">
        <ele>3</ele>
        <time>2017-01-15T02:55:29Z</time>
      </trkpt>
      <trkpt lat="48.60776" lon="-1.72506">
        <ele>3</ele>
        <time>2017-01-15T02:57:29Z</time>
      </trkpt>
      <trkpt lat="48.60776" lon="-1.7252">
        <ele>3</ele>
        <time>2017-01-15T02:59:29Z</time>
      </trkpt>
      <trkpt lat="48.60775" lon="-1.72564">
        <ele>2</ele>
        <time>2017-01-15T03:01:29Z</time>
      </trkpt>
      <trkpt lat="48.60776" lon="-1.72579">
        <ele>2</ele>
        <time>2017-01-15T03:03:29Z</time>
      </trkpt>
      <trkpt lat="48.60773" lon="-1.7259">
        <ele>2</ele>
        <time>2017-01-15T03:05:29Z</time>
      </trkpt>
      <trkpt lat="48.60765" lon="-1.72593">
        <ele>3</ele>
        <time>2017-01-15T03:07:29Z</time>
      </trkpt>
      <trkpt lat="48.60759" lon="-1.72593">
        <ele>3</ele>
        <time>2017-01-15T03:09:29Z</time>
      </trkpt>
      <trkpt lat="48.60751" lon="-1.72602">
        <ele>3</ele>
        <time>2017-01-15T03:11:29Z</time>
      </trkpt>
      <trkpt lat="48.60749" lon="-1.72592">
        <ele>3</ele>
        <time>2017-01-15T03:13:29Z</time>
      </trkpt>
      <trkpt lat="48.60756" lon="-1.72563">
        <ele>3</ele>
        <time>2017-01-15T03:15:29Z</time>
      </trkpt>
      <trkpt lat="48.60753" lon="-1.7255">
        <ele>4</ele>
        <time>2017-01-15T03:17:29Z</time>
      </trkpt>
      <trkpt lat="48.60751" lon="-1.7254">
        <ele>4</ele>
        <time>2017-01-15T03:19:29Z</time>
      </trkpt>
      <trkpt lat="48.60749" lon="-1.72509">
        <ele>5</ele>
        <time>2017-01-15T03:21:29Z</time>
      </trkpt>
      <trkpt lat="48.60747" lon="-1.72495">
        <ele>5</ele>
        <time>2017-01-15T03:23:29Z</time>
      </trkpt>
      <trkpt lat="48.60747" lon="-1.7248">
        <ele>5</ele>
        <time>2017-01-15T03:25:29Z</time>
      </trkpt>
      <trkpt lat="48.60751" lon="-1.72466">
        <ele>5</ele>
        <time>2017-01-15T03:27:29Z</time>
      </trkpt>
      <trkpt lat="48.60754" lon="-1.72451">
        <ele>5</ele>
        <time>2017-01-15T03:29:29Z</time>
      </trkpt>
      <trkpt lat="48.60759" lon="-1.72437">
        <ele>4</ele>
        <time>2017-01-15T03:31:29Z</time>
      </trkpt>
      <trkpt lat="48.60762" lon="-1.72422">
        <ele>4</ele>
        <time>2017-01-15T03:33:29Z</time>
      </trkpt>
      <trkpt lat="48.60752" lon="-1.72396">
        <ele>5</ele>
        <time>2017-01-15T03:35:29Z</time>
      </trkpt>
      <trkpt lat="48.60746" lon="-1.72383">
        <ele>5</ele>
        <time>2017-01-15T03:37:29Z</time>
      </trkpt>
      <trkpt lat="48.60738" lon="-1.72377">
        <ele>5</ele>
        <time>2017-01-15T03:39:29Z</time>
      </trkpt>
      <trkpt lat="48.6073" lon="-1.72373">
        <ele>5</ele>
        <time>2017-01-15T03:41:29Z</time>
      </trkpt>
      <trkpt lat="48.60721" lon="-1.72368">
        <ele>5</ele>
        <time>2017-01-15T03:43:29Z</time>
      </trkpt>
      <trkpt lat="48.6071" lon="-1.72366">
        <ele>5</ele>
        <time>2017-01-15T03:45:29Z</time>
      </trkpt>
      <trkpt lat="48.60691" lon="-1.72363">
        <ele>5</ele>
        <time>2017-01-15T03:47:29Z</time>
      </trkpt>
      <trkpt lat="48.60681" lon="-1.72363">
        <ele>5</ele>
        <time>2017-01-15T03:49:29Z</time>
      </trkpt>
      <trkpt lat="48.60672" lon="-1.72362">
        <ele>5</ele>
        <time>2017-01-15T03:51:29Z</time>
      </trkpt>
      <trkpt lat="48.60662" lon="-1.7236">
        <ele>5</ele>
        <time>2017-01-15T03:53:29Z</time>
      </trkpt>
      <trkpt lat="48.60644" lon="-1.72358">
        <ele>5</ele>
        <time>2017-01-15T03:55:29Z</time>
      </trkpt>
      <trkpt lat="48.60635" lon="-1.72357">
        <ele>5</ele>
        <time>2017-01-15T03:57:29Z</time>
      </trkpt>
      <trkpt lat="48.60626" lon="-1.72355">
        <ele>5</ele>
        <time>2017-01-15T03:59:29Z</time>
      </trkpt>
      <trkpt lat="48.60614" lon="-1.72354">
        <ele>5</ele>
        <time>2017-01-15T04:01:29Z</time>
      </trkpt>
      <trkpt lat="48.60605" lon="-1.72347">
        <ele>5</ele>
        <time>2017-01-15T04:03:29Z</time>
      </trkpt>
      <trkpt lat="48.60594" lon="-1.72341">
        <ele>5</ele>
        <time>2017-01-15T04:05:29Z</time>
      </trkpt>
      <trkpt lat="48.60585" lon="-1.72345">
        <ele>5</ele>
        <time>2017-01-15T04:07:29Z</time>
      </trkpt>
      <trkpt lat="48.60583" lon="-1.72358">
        <ele>5</ele>
        <time>2017-01-15T04:09:29Z</time>
      </trkpt>
      <trkpt lat="48.60585" lon="-1.72374">
        <ele>5</ele>
        <time>2017-01-15T04:11:29Z</time>
      </trkpt>
      <trkpt lat="48.60586" lon="-1.72388">
        <ele>6</ele>
        <time>2017-01-15T04:13:29Z</time>
      </trkpt>
      <trkpt lat="48.60586" lon="-1.72403">
        <ele>6</ele>
        <time>2017-01-15T04:15:29Z</time>
      </trkpt>
      <trkpt lat="48.60586" lon="-1.72418">
        <ele>6</ele>
        <time>2017-01-15T04:17:29Z</time>
      </trkpt>
      <trkpt lat="48.60587" lon="-1.72432">
        <ele>6</ele>
        <time>2017-01-15T04:19:29Z</time>
      </trkpt>
      <trkpt lat="48.60587" lon="-1.72463">
        <ele>6</ele>
        <time>2017-01-15T04:21:29Z</time>
      </trkpt>
      <trkpt lat="48.60586" lon="-1.72479">
        <ele>6</ele>
        <time>2017-01-15T04:23:29Z</time>
      </trkpt>
      <trkpt lat="48.60584" lon="-1.72496">
        <ele>6</ele>
        <time>2017-01-15T04:25:29Z</time>
      </trkpt>
      <trkpt lat="48.60583" lon="-1.72513">
        <ele>6</ele>
        <time>2017-01-15T04:27:29Z</time>
      </trkpt>
      <trkpt lat="48.60584" lon="-1.72545">
        <ele>5</ele>
        <time>2017-01-15T04:29:29Z</time>
      </trkpt>
      <trkpt lat="48.60582" lon="-1.72575">
        <ele>4</ele>
        <time>2017-01-15T04:31:29Z</time>
      </trkpt>
      <trkpt lat="48.60582" lon="-1.72591">
        <ele>4</ele>
        <time>2017-01-15T04:33:29Z</time>
      </trkpt>
      <trkpt lat="48.6058" lon="-1.7262">
        <ele>4</ele>
        <time>2017-01-15T04:35:29Z</time>
      </trkpt>
      <trkpt lat="48.6058" lon="-1.72636">
        <ele>5</ele>
        <time>2017-01-15T04:37:29Z</time>
      </trkpt>
      <trkpt lat="48.60578" lon="-1.72651">
        <ele>5</ele>
        <time>2017-01-15T04:39:29Z</time>
      </trkpt>
      <trkpt lat="48.60576" lon="-1.72666">
        <ele>5</ele>
        <time>2017-01-15T04:41:29Z</time>
      </trkpt>
      <trkpt lat="48.60573" lon="-1.72711">
        <ele>5</ele>
        <time>2017-01-15T04:43:29Z</time>
      </trkpt>
      <trkpt lat="48.60572" lon="-1.72727">
        <ele>5</ele>
        <time>2017-01-15T04:45:29Z</time>
      </trkpt>
      <trkpt lat="48.60571" lon="-1.72741">
        <ele>5</ele>
        <time>2017-01-15T04:47:29Z</time>
      </trkpt>
      <trkpt lat="48.60571" lon="-1.72772">
        <ele>5</ele>
        <time>2017-01-15T04:49:29Z</time>
      </trkpt>
      <trkpt lat="48.6057" lon="-1.72817">
        <ele>4</ele>
        <time>2017-01-15T04:51:29Z</time>
      </trkpt>
      <trkpt lat="48.60569" lon="-1.72832">
        <ele>4</ele>
        <time>2017-01-15T04:53:29Z</time>
      </trkpt>
      <trkpt lat="48.60568" lon="-1.72847">
        <ele>4</ele>
        <time>2017-01-15T04:55:29Z</time>
      </trkpt>
      <trkpt lat="48.60566" lon="-1.72862">
        <ele>4</ele>
        <time>2017-01-15T04:57:29Z</time>
      </trkpt>
      <trkpt lat="48.60565" lon="-1.72877">
        <ele>4</ele>
        <time>2017-01-15T04:59:29Z</time>
      </trkpt>
      <trkpt lat="48.60565" lon="-1.72906">
        <ele>4</ele>
        <time>2017-01-15T05:01:29Z</time>
      </trkpt>
      <trkpt lat="48.60564" lon="-1.72948">
        <ele>4</ele>
        <time>2017-01-15T05:03:29Z</time>
      </trkpt>
      <trkpt lat="48.60565" lon="-1.72963">
        <ele>5</ele>
        <time>2017-01-15T05:05:29Z</time>
      </trkpt>
      <trkpt lat="48.60565" lon="-1.72995">
        <ele>5</ele>
        <time>2017-01-15T05:07:29Z</time>
      </trkpt>
      <trkpt lat="48.60564" lon="-1.73041">
        <ele>6</ele>
        <time>2017-01-15T05:09:29Z</time>
      </trkpt>
      <trkpt lat="48.60564" lon="-1.73057">
        <ele>6</ele>
        <time>2017-01-15T05:11:29Z</time>
      </trkpt>
      <trkpt lat="48.60564" lon="-1.73073">
        <ele>6</ele>
        <time>2017-01-15T05:13:29Z</time>
      </trkpt>
      <trkpt lat="48.60563" lon="-1.731">
        <ele>6</ele>
        <time>2017-01-15T05:15:29Z</time>
      </trkpt>
      <trkpt lat="48.60564" lon="-1.73114">
        <ele>6</ele>
        <time>2017-01-15T05:17:29Z</time>
      </trkpt>
      <trkpt lat="48.60563" lon="-1.7313">
        <ele>5</ele>
        <time>2017-01-15T05:19:29Z</time>
      </trkpt>
      <trkpt lat="48.60562" lon="-1.73145">
        <ele>5</ele>
        <time>2017-01-15T05:21:29Z</time>
      </trkpt>
      <trkpt lat="48.60561" lon="-1.73191">
        <ele>5</ele>
        <time>2017-01-15T05:23:29Z</time>
      </trkpt>
      <trkpt lat="48.6056" lon="-1.73204">
        <ele>5</ele>
        <time>2017-01-15T05:25:29Z</time>
      </trkpt>
      <trkpt lat="48.60558" lon="-1.73219">
        <ele>6</ele>
        <time>2017-01-15T05:27:29Z</time>
      </trkpt>
      <trkpt lat="48.60557" lon="-1.73235">
        <ele>6</ele>
        <time>2017-01-15T05:29:29Z</time>
      </trkpt>
      <trkpt lat="48.60558" lon="-1.73248">
        <ele>6</ele>
        <time>2017-01-15T05:31:29Z</time>
      </trkpt>
      <trkpt lat="48.60557" lon="-1.73262">
        <ele>6</ele>
        <time>2017-01-15T05:33:29Z</time>
      </trkpt>
      <trkpt lat="48.60556" lon="-1.73276">
        <ele>6</ele>
        <time>2017-01-15T05:35:29Z</time>
      </trkpt>
      <trkpt lat="48.60553" lon="-1.7329">
        <ele>6</ele>
        <time>2017-01-15T05:37:29Z</time>
      </trkpt>
      <trkpt lat="48.60544" lon="-1.73298">
        <ele>6</ele>
        <time>2017-01-15T05:39:29Z</time>
      </trkpt>
      <trkpt lat="48.60536" lon="-1.73304">
        <ele>6</ele>
        <time>2017-01-15T05:41:29Z</time>
      </trkpt>
      <trkpt lat="48.60527" lon="-1.73312">
        <ele>6</ele>
        <time>2017-01-15T05:43:29Z</time>
      </trkpt>
      <trkpt lat="48.6052" lon="-1.73322">
        <ele>6</ele>
        <time>2017-01-15T05:45:29Z</time>
      </trkpt>
      <trkpt lat="48.60511" lon="-1.73331">
        <ele>5</ele>
        <time>2017-01-15T05:47:29Z</time>
      </trkpt>
      <trkpt lat="48.60502" lon="-1.73335">
        <ele>5</ele>
        <time>2017-01-15T05:49:29Z</time>
      </trkpt>
      <trkpt lat="48.60494" lon="-1.73337">
        <ele>5</ele>
        <time>2017-01-15T05:51:29Z</time>
      </trkpt>
      <trkpt lat="48.60487" lon="-1.73337">
        <ele>5</ele>
        <time>2017-01-15T05:53:29Z</time>
      </trkpt>
      <trkpt lat="48.60495" lon="-1.73336">
        <ele>5</ele>
        <time>2017-01-15T05:55:29Z</time>
      </trkpt>
      <trkpt lat="48.60499" lon="-1.73337">
        <ele>5</ele>
        <time>2017-01-15T05:57:29Z</time>
      </trkpt>
      <trkpt lat="48.60508" lon="-1.73334">
        <ele>5</ele>
        <time>2017-01-15T05:59:29Z</time>
      </trkpt>
      <trkpt lat="48.60486" lon="-1.73328">
        <ele>5</ele>
        <time>2017-01-15T06:01:29Z</time>
      </trkpt>
      <trkpt lat="48.60488" lon="-1.73333">
        <ele>5</ele>
        <time>2017-01-15T06:03:29Z</time>
      </trkpt>
      <trkpt lat="48.60496" lon="-1.73339">
        <ele>5</ele>
        <time>2017-01-15T06:05:29Z</time>
      </trkpt>
      <trkpt lat="48.60503" lon="-1.73337">
        <ele>5</ele>
        <time>2017-01-15T06:07:29Z</time>
      </trkpt>
      <trkpt lat="48.60501" lon="-1.73332">
        <ele>5</ele>
        <time>2017-01-15T06:09:29Z</time>
      </trkpt>
      <trkpt lat="48.60511" lon="-1.73325">
        <ele>5</ele>
        <time>2017-01-15T06:11:29Z</time>
      </trkpt>
      <trkpt lat="48.6052" lon="-1.73317">
        <ele>6</ele>
        <time>2017-01-15T06:13:29Z</time>
      </trkpt>
      <trkpt lat="48.6053" lon="-1.73312">
        <ele>6</ele>
        <time>2017-01-15T06:15:29Z</time>
      </trkpt>
      <trkpt lat="48.60538" lon="-1.73303">
        <ele>6</ele>
        <time>2017-01-15T06:17:29Z</time>
      </trkpt>
      <trkpt lat="48.60547" lon="-1.73302">
        <ele>6</ele>
        <time>2017-01-15T06:19:29Z</time>
      </trkpt>
      <trkpt lat="48.60552" lon="-1.73313">
        <ele>7</ele>
        <time>2017-01-15T06:21:29Z</time>
      </trkpt>
      <trkpt lat="48.60556" lon="-1.73325">
        <ele>7</ele>
        <time>2017-01-15T06:23:29Z</time>
      </trkpt>
      <trkpt lat="48.60556" lon="-1.73339">
        <ele>7</ele>
        <time>2017-01-15T06:25:29Z</time>
      </trkpt>
      <trkpt lat="48.60555" lon="-1.73347">
        <ele>7</ele>
        <time>2017-01-15T06:27:29Z</time>
      </trkpt>
      <trkpt lat="48.60555" lon="-1.7336">
        <ele>7</ele>
        <time>2017-01-15T06:29:29Z</time>
      </trkpt>
      <trkpt lat="48.60561" lon="-1.7337">
        <ele>7</ele>
        <time>2017-01-15T06:31:29Z</time>
      </trkpt>
      <trkpt lat="48.6056" lon="-1.73384">
        <ele>6</ele>
        <time>2017-01-15T06:33:29Z</time>
      </trkpt>
      <trkpt lat="48.60558" lon="-1.734">
        <ele>6</ele>
        <time>2017-01-15T06:35:29Z</time>
      </trkpt>
      <trkpt lat="48.60558" lon="-1.73434">
        <ele>5</ele>
        <time>2017-01-15T06:37:29Z</time>
      </trkpt>
      <trkpt lat="48.60557" lon="-1.7345">
        <ele>5</ele>
        <time>2017-01-15T06:39:29Z</time>
      </trkpt>
      <trkpt lat="48.60556" lon="-1.73467">
        <ele>5</ele>
        <time>2017-01-15T06:41:29Z</time>
      </trkpt>
      <trkpt lat="48.60557" lon="-1.73482">
        <ele>5</ele>
        <time>2017-01-15T06:43:29Z</time>
      </trkpt>
      <trkpt lat="48.60554" lon="-1.73538">
        <ele>4</ele>
        <time>2017-01-15T06:45:29Z</time>
      </trkpt>
      <trkpt lat="48.60553" lon="-1.73554">
        <ele>4</ele>
        <time>2017-01-15T06:47:29Z</time>
      </trkpt>
      <trkpt lat="48.60552" lon="-1.7357">
        <ele>4</ele>
        <time>2017-01-15T06:49:29Z</time>
      </trkpt>
      <trkpt lat="48.60551" lon="-1.73584">
        <ele>4</ele>
        <time>2017-01-15T06:51:29Z</time>
      </trkpt>
      <trkpt lat="48.60551" lon="-1.73599">
        <ele>4</ele>
        <time>2017-01-15T06:53:29Z</time>
      </trkpt>
      <trkpt lat="48.6055" lon="-1.73614">
        <ele>5</ele>
        <time>2017-01-15T06:55:29Z</time>
      </trkpt>
      <trkpt lat="48.60549" lon="-1.7363">
        <ele>5</ele>
        <time>2017-01-15T06:57:29Z</time>
      </trkpt>
      <trkpt lat="48.6055" lon="-1.73643">
        <ele>5</ele>
        <time>2017-01-15T06:59:29Z</time>
      </trkpt>
      <trkpt lat="48.6055" lon="-1.73658">
        <ele>6</ele>
        <time>2017-01-15T07:01:29Z</time>
      </trkpt>
      <trkpt lat="48.60549" lon="-1.73686">
        <ele>6</ele>
        <time>2017-01-15T07:03:29Z</time>
      </trkpt>
      <trkpt lat="48.60548" lon="-1.73702">
        <ele>5</ele>
        <time>2017-01-15T07:05:29Z</time>
      </trkpt>
      <trkpt lat="48.60548" lon="-1.73716">
        <ele>5</ele>
        <time>2017-01-15T07:07:29Z</time>
      </trkpt>
      <trkpt lat="48.60548" lon="-1.73729">
        <ele>5</ele>
        <time>2017-01-15T07:09:29Z</time>
      </trkpt>
      <trkpt lat="48.60546" lon="-1.73745">
        <ele>5</ele>
        <time>2017-01-15T07:11:29Z</time>
      </trkpt>
      <trkpt lat="48.60546" lon="-1.73759">
        <ele>5</ele>
        <time>2017-01-15T07:13:29Z</time>
      </trkpt>
      <trkpt lat="48.60545" lon="-1.73775">
        <ele>5</ele>
        <time>2017-01-15T07:15:29Z</time>
      </trkpt>
      <trkpt lat="48.60544" lon="-1.73788">
        <ele>5</ele>
        <time>2017-01-15T07:17:29Z</time>
      </trkpt>
      <trkpt lat="48.60543" lon="-1.73804">
        <ele>5</ele>
        <time>2017-01-15T07:19:29Z</time>
      </trkpt>
      <trkpt lat="48.60544" lon="-1.73817">
        <ele>5</ele>
        <time>2017-01-15T07:21:29Z</time>
      </trkpt>
      <trkpt lat="48.60542" lon="-1.73846">
        <ele>5</ele>
        <time>2017-01-15T07:23:29Z</time>
      </trkpt>
      <trkpt lat="48.60541" lon="-1.73888">
        <ele>5</ele>
        <time>2017-01-15T07:25:29Z</time>
      </trkpt>
      <trkpt lat="48.60541" lon="-1.73903">
        <ele>5</ele>
        <time>2017-01-15T07:27:29Z</time>
      </trkpt>
      <trkpt lat="48.6054" lon="-1.7392">
        <ele>5</ele>
        <time>2017-01-15T07:29:29Z</time>
      </trkpt>
      <trkpt lat="48.6054" lon="-1.73936">
        <ele>5</ele>
        <time>2017-01-15T07:31:29Z</time>
      </trkpt>
      <trkpt lat="48.6054" lon="-1.7395">
        <ele>5</ele>
        <time>2017-01-15T07:33:29Z</time>
      </trkpt>
      <trkpt lat="48.60539" lon="-1.73981">
        <ele>5</ele>
        <time>2017-01-15T07:35:29Z</time>
      </trkpt>
      <trkpt lat="48.60539" lon="-1.73997">
        <ele>5</ele>
        <time>2017-01-15T07:37:29Z</time>
      </trkpt>
      <trkpt lat="48.60539" lon="-1.74011">
        <ele>5</ele>
        <time>2017-01-15T07:39:29Z</time>
      </trkpt>
      <trkpt lat="48.60538" lon="-1.74027">
        <ele>5</ele>
        <time>2017-01-15T07:41:29Z</time>
      </trkpt>
      <trkpt lat="48.60538" lon="-1.74044">
        <ele>5</ele>
        <time>2017-01-15T07:43:29Z</time>
      </trkpt>
      <trkpt lat="48.60538" lon="-1.74061">
        <ele>6</ele>
        <time>2017-01-15T07:45:29Z</time>
      </trkpt>
      <trkpt lat="48.60538" lon="-1.74075">
        <ele>6</ele>
        <time>2017-01-15T07:47:29Z</time>
      </trkpt>
      <trkpt lat="48.60536" lon="-1.74089">
        <ele>6</ele>
        <time>2017-01-15T07:49:29Z</time>
      </trkpt>
      <trkpt lat="48.60535" lon="-1.74103">
        <ele>6</ele>
        <time>2017-01-15T07:51:29Z</time>
      </trkpt>
      <trkpt lat="48.60536" lon="-1.74119">
        <ele>7</ele>
        <time>2017-01-15T07:53:29Z</time>
      </trkpt>
      <trkpt lat="48.60533" lon="-1.7418">
        <ele>7</ele>
        <time>2017-01-15T07:55:29Z</time>
      </trkpt>
      <trkpt lat="48.60532" lon="-1.74196">
        <ele>7</ele>
        <time>2017-01-15T07:57:29Z</time>
      </trkpt>
      <trkpt lat="48.60531" lon="-1.74212">
        <ele>7</ele>
        <time>2017-01-15T07:59:29Z</time>
      </trkpt>
      <trkpt lat="48.6053" lon="-1.74226">
        <ele>7</ele>
        <time>2017-01-15T08:01:29Z</time>
      </trkpt>
      <trkpt lat="48.60529" lon="-1.74243">
        <ele>6</ele>
        <time>2017-01-15T08:03:29Z</time>
      </trkpt>
      <trkpt lat="48.60529" lon="-1.74258">
        <ele>6</ele>
        <time>2017-01-15T08:05:29Z</time>
      </trkpt>
      <trkpt lat="48.60528" lon="-1.74274">
        <ele>6</ele>
        <time>2017-01-15T08:07:29Z</time>
      </trkpt>
      <trkpt lat="48.60526" lon="-1.74335">
        <ele>5</ele>
        <time>2017-01-15T08:09:29Z</time>
      </trkpt>
      <trkpt lat="48.60526" lon="-1.74349">
        <ele>5</ele>
        <time>2017-01-15T08:11:29Z</time>
      </trkpt>
      <trkpt lat="48.60525" lon="-1.74365">
        <ele>5</ele>
        <time>2017-01-15T08:13:29Z</time>
      </trkpt>
      <trkpt lat="48.60525" lon="-1.74381">
        <ele>5</ele>
        <time>2017-01-15T08:15:29Z</time>
      </trkpt>
      <trkpt lat="48.60524" lon="-1.74397">
        <ele>5</ele>
        <time>2017-01-15T08:17:29Z</time>
      </trkpt>
      <trkpt lat="48.60524" lon="-1.74411">
        <ele>5</ele>
        <time>2017-01-15T08:19:29Z</time>
      </trkpt>
      <trkpt lat="48.60523" lon="-1.74427">
        <ele>5</ele>
        <time>2017-01-15T08:21:29Z</time>
      </trkpt>
      <trkpt lat="48.60523" lon="-1.74441">
        <ele>5</ele>
        <time>2017-01-15T08:23:29Z</time>
      </trkpt>
      <trkpt lat="48.60522" lon="-1.74458">
        <ele>5</ele>
        <time>2017-01-15T08:25:29Z</time>
      </trkpt>
      <trkpt lat="48.60521" lon="-1.74473">
        <ele>6</ele>
        <time>2017-01-15T08:27:29Z</time>
      </trkpt>
      <trkpt lat="48.6052" lon="-1.7449">
        <ele>6</ele>
        <time>2017-01-15T08:29:29Z</time>
      </trkpt>
      <trkpt lat="48.6052" lon="-1.74505">
        <ele>6</ele>
        <time>2017-01-15T08:31:29Z</time>
      </trkpt>
      <trkpt lat="48.60519" lon="-1.74521">
        <ele>6</ele>
        <time>2017-01-15T08:33:29Z</time>
      </trkpt>
      <trkpt lat="48.60519" lon="-1.74536">
        <ele>6</ele>
        <time>2017-01-15T08:35:29Z</time>
      </trkpt>
      <trkpt lat="48.60517" lon="-1.74551">
        <ele>6</ele>
        <time>2017-01-15T08:37:29Z</time>
      </trkpt>
      <trkpt lat="48.60517" lon="-1.74565">
        <ele>6</ele>
        <time>2017-01-15T08:39:29Z</time>
      </trkpt>
      <trkpt lat="48.60515" lon="-1.7458">
        <ele>7</ele>
        <time>2017-01-15T08:41:29Z</time>
      </trkpt>
      <trkpt lat="48.60515" lon="-1.74596">
        <ele>7</ele>
        <time>2017-01-15T08:43:29Z</time>
      </trkpt>
      <trkpt lat="48.60513" lon="-1.7461">
        <ele>6</ele>
        <time>2017-01-15T08:45:29Z</time>
      </trkpt>
      <trkpt lat="48.60512" lon="-1.74624">
        <ele>6</ele>
        <time>2017-01-15T08:47:29Z</time>
      </trkpt>
      <trkpt lat="48.6051" lon="-1.7464">
        <ele>6</ele>
        <time>2017-01-15T08:49:29Z</time>
      </trkpt>
      <trkpt lat="48.60509" lon="-1.74656">
        <ele>6</ele>
        <time>2017-01-15T08:51:29Z</time>
      </trkpt>
      <trkpt lat="48.60507" lon="-1.7467">
        <ele>6</ele>
        <time>2017-01-15T08:53:29Z</time>
      </trkpt>
      <trkpt lat="48.60504" lon="-1.74699">
        <ele>6</ele>
        <time>2017-01-15T08:55:29Z</time>
      </trkpt>
      <trkpt lat="48.60501" lon="-1.74714">
        <ele>6</ele>
        <time>2017-01-15T08:57:29Z</time>
      </trkpt>
      <trkpt lat="48.60501" lon="-1.74728">
        <ele>6</ele>
        <time>2017-01-15T08:59:29Z</time>
      </trkpt>
      <trkpt lat="48.60505" lon="-1.74743">
        <ele>6</ele>
        <time>2017-01-15T09:01:29Z</time>
      </trkpt>
      <trkpt lat="48.60508" lon="-1.74758">
        <ele>6</ele>
        <time>2017-01-15T09:03:29Z</time>
      </trkpt>
      <trkpt lat="48.6051" lon="-1.74774">
        <ele>6</ele>
        <time>2017-01-15T09:05:29Z</time>
      </trkpt>
      <trkpt lat="48.6051" lon="-1.74805">
        <ele>6</ele>
        <time>2017-01-15T09:07:29Z</time>
      </trkpt>
      <trkpt lat="48.60513" lon="-1.74836">
        <ele>7</ele>
        <time>2017-01-15T09:09:29Z</time>
      </trkpt>
      <trkpt lat="48.60512" lon="-1.74852">
        <ele>6</ele>
        <time>2017-01-15T09:11:29Z</time>
      </trkpt>
      <trkpt lat="48.60511" lon="-1.74866">
        <ele>6</ele>
        <time>2017-01-15T09:13:29Z</time>
      </trkpt>
      <trkpt lat="48.60509" lon="-1.74897">
        <ele>6</ele>
        <time>2017-01-15T09:15:29Z</time>
      </trkpt>
      <trkpt lat="48.60506" lon="-1.74912">
        <ele>6</ele>
        <time>2017-01-15T09:17:29Z</time>
      </trkpt>
      <trkpt lat="48.60505" lon="-1.74928">
        <ele>6</ele>
        <time>2017-01-15T09:19:29Z</time>
      </trkpt>
      <trkpt lat="48.60503" lon="-1.74943">
        <ele>6</ele>
        <time>2017-01-15T09:21:29Z</time>
      </trkpt>
      <trkpt lat="48.60502" lon="-1.74959">
        <ele>6</ele>
        <time>2017-01-15T09:23:29Z</time>
      </trkpt>
      <trkpt lat="48.605" lon="-1.74972">
        <ele>7</ele>
        <time>2017-01-15T09:25:29Z</time>
      </trkpt>
      <trkpt lat="48.60499" lon="-1.74988">
        <ele>7</ele>
        <time>2017-01-15T09:27:29Z</time>
      </trkpt>
      <trkpt lat="48.60496" lon="-1.75017">
        <ele>7</ele>
        <time>2017-01-15T09:29:29Z</time>
      </trkpt>
      <trkpt lat="48.60494" lon="-1.75033">
        <ele>7</ele>
        <time>2017-01-15T09:31:29Z</time>
      </trkpt>
      <trkpt lat="48.60492" lon="-1.75047">
        <ele>6</ele>
        <time>2017-01-15T09:33:29Z</time>
      </trkpt>
      <trkpt lat="48.6049" lon="-1.7506">
        <ele>6</ele>
        <time>2017-01-15T09:35:29Z</time>
      </trkpt>
      <trkpt lat="48.60488" lon="-1.75076">
        <ele>6</ele>
        <time>2017-01-15T09:37:29Z</time>
      </trkpt>
      <trkpt lat="48.60486" lon="-1.75091">
        <ele>6</ele>
        <time>2017-01-15T09:39:29Z</time>
      </trkpt>
      <trkpt lat="48.60483" lon="-1.75107">
        <ele>6</ele>
        <time>2017-01-15T09:41:29Z</time>
      </trkpt>
      <trkpt lat="48.60481" lon="-1.75122">
        <ele>7</ele>
        <time>2017-01-15T09:43:29Z</time>
      </trkpt>
      <trkpt lat="48.6048" lon="-1.75136">
        <ele>7</ele>
        <time>2017-01-15T09:45:29Z</time>
      </trkpt>
      <trkpt lat="48.60478" lon="-1.75151">
        <ele>7</ele>
        <time>2017-01-15T09:47:29Z</time>
      </trkpt>
      <trkpt lat="48.60472" lon="-1.75183">
        <ele>7</ele>
        <time>2017-01-15T09:49:29Z</time>
      </trkpt>
      <trkpt lat="48.6047" lon="-1.75198">
        <ele>7</ele>
        <time>2017-01-15T09:51:29Z</time>
      </trkpt>
      <trkpt lat="48.60467" lon="-1.75212">
        <ele>7</ele>
        <time>2017-01-15T09:53:29Z</time>
      </trkpt>
      <trkpt lat="48.60464" lon="-1.75228">
        <ele>7</ele>
        <time>2017-01-15T09:55:29Z</time>
      </trkpt>
      <trkpt lat="48.60462" lon="-1.75243">
        <ele>7</ele>
        <time>2017-01-15T09:57:29Z</time>
      </trkpt>
      <trkpt lat="48.60459" lon="-1.75259">
        <ele>7</ele>
        <time>2017-01-15T09:59:29Z</time>
      </trkpt>
      <trkpt lat="48.60457" lon="-1.75274">
        <ele>7</ele>
        <time>2017-01-15T10:01:29Z</time>
      </trkpt>
      <trkpt lat="48.60454" lon="-1.75287">
        <ele>6</ele>
        <time>2017-01-15T10:03:29Z</time>
      </trkpt>
      <trkpt lat="48.60451" lon="-1.75302">
        <ele>6</ele>
        <time>2017-01-15T10:05:29Z</time>
      </trkpt>
      <trkpt lat="48.60449" lon="-1.75317">
        <ele>6</ele>
        <time>2017-01-15T10:07:29Z</time>
      </trkpt>
      <trkpt lat="48.60447" lon="-1.7533">
        <ele>5</ele>
        <time>2017-01-15T10:09:29Z</time>
      </trkpt>
      <trkpt lat="48.60441" lon="-1.75361">
        <ele>5</ele>
        <time>2017-01-15T10:11:29Z</time>
      </trkpt>
      <trkpt lat="48.60437" lon="-1.75374">
        <ele>5</ele>
        <time>2017-01-15T10:13:29Z</time>
      </trkpt>
      <trkpt lat="48.60435" lon="-1.7539">
        <ele>5</ele>
        <time>2017-01-15T10:15:29Z</time>
      </trkpt>
      <trkpt lat="48.60431" lon="-1.75404">
        <ele>5</ele>
        <time>2017-01-15T10:17:29Z</time>
      </trkpt>
      <trkpt lat="48.60429" lon="-1.75419">
        <ele>5</ele>
        <time>2017-01-15T10:19:29Z</time>
      </trkpt>
      <trkpt lat="48.60426" lon="-1.75433">
        <ele>5</ele>
        <time>2017-01-15T10:21:29Z</time>
      </trkpt>
      <trkpt lat="48.60423" lon="-1.75445">
        <ele>5</ele>
        <time>2017-01-15T10:23:29Z</time>
      </trkpt>
      <trkpt lat="48.60419" lon="-1.75458">
        <ele>5</ele>
        <time>2017-01-15T10:25:29Z</time>
      </trkpt>
      <trkpt lat="48.60415" lon="-1.75471">
        <ele>5</ele>
        <time>2017-01-15T10:27:29Z</time>
      </trkpt>
      <trkpt lat="48.60411" lon="-1.75484">
        <ele>5</ele>
        <time>2017-01-15T10:29:29Z</time>
      </trkpt>
      <trkpt lat="48.60408" lon="-1.75497">
        <ele>5</ele>
        <time>2017-01-15T10:31:29Z</time>
      </trkpt>
      <trkpt lat="48.60396" lon="-1.75541">
        <ele>6</ele>
        <time>2017-01-15T10:33:29Z</time>
      </trkpt>
      <trkpt lat="48.60394" lon="-1.75554">
        <ele>6</ele>
        <time>2017-01-15T10:35:29Z</time>
      </trkpt>
      <trkpt lat="48.6039" lon="-1.75567">
        <ele>6</ele>
        <time>2017-01-15T10:37:29Z</time>
      </trkpt>
      <trkpt lat="48.60386" lon="-1.75597">
        <ele>6</ele>
        <time>2017-01-15T10:39:29Z</time>
      </trkpt>
      <trkpt lat="48.60383" lon="-1.75612">
        <ele>6</ele>
        <time>2017-01-15T10:41:29Z</time>
      </trkpt>
      <trkpt lat="48.6038" lon="-1.75643">
        <ele>6</ele>
        <time>2017-01-15T10:43:29Z</time>
      </trkpt>
      <trkpt lat="48.60377" lon="-1.75658">
        <ele>6</ele>
        <time>2017-01-15T10:45:29Z</time>
      </trkpt>
      <trkpt lat="48.60372" lon="-1.75689">
        <ele>6</ele>
        <time>2017-01-15T10:47:29Z</time>
      </trkpt>
      <trkpt lat="48.60369" lon="-1.75721">
        <ele>6</ele>
        <time>2017-01-15T10:49:29Z</time>
      </trkpt>
      <trkpt lat="48.60367" lon="-1.75735">
        <ele>6</ele>
        <time>2017-01-15T10:51:29Z</time>
      </trkpt>
      <trkpt lat="48.60366" lon="-1.75764">
        <ele>6</ele>
        <time>2017-01-15T10:53:29Z</time>
      </trkpt>
      <trkpt lat="48.60369" lon="-1.75807">
        <ele>7</ele>
        <time>2017-01-15T10:55:29Z</time>
      </trkpt>
      <trkpt lat="48.6037" lon="-1.7582">
        <ele>7</ele>
        <time>2017-01-15T10:57:29Z</time>
      </trkpt>
      <trkpt lat="48.60371" lon="-1.75834">
        <ele>7</ele>
        <time>2017-01-15T10:59:29Z</time>
      </trkpt>
      <trkpt lat="48.60372" lon="-1.75847">
        <ele>7</ele>
        <time>2017-01-15T11:01:29Z</time>
      </trkpt>
      <trkpt lat="48.60371" lon="-1.75861">
        <ele>7</ele>
        <time>2017-01-15T11:03:29Z</time>
      </trkpt>
      <trkpt lat="48.60371" lon="-1.75875">
        <ele>7</ele>
        <time>2017-01-15T11:05:29Z</time>
      </trkpt>
      <trkpt lat="48.60369" lon="-1.75905">
        <ele>7</ele>
        <time>2017-01-15T11:07:29Z</time>
      </trkpt>
      <trkpt lat="48.60368" lon="-1.75918">
        <ele>7</ele>
        <time>2017-01-15T11:09:29Z</time>
      </trkpt>
      <trkpt lat="48.60364" lon="-1.75966">
        <ele>6</ele>
        <time>2017-01-15T11:11:29Z</time>
      </trkpt>
      <trkpt lat="48.60363" lon="-1.7598">
        <ele>5</ele>
        <time>2017-01-15T11:13:29Z</time>
      </trkpt>
      <trkpt lat="48.6036" lon="-1.76029">
        <ele>6</ele>
        <time>2017-01-15T11:15:29Z</time>
      </trkpt>
      <trkpt lat="48.6036" lon="-1.7606">
        <ele>6</ele>
        <time>2017-01-15T11:17:29Z</time>
      </trkpt>
      <trkpt lat="48.60361" lon="-1.76076">
        <ele>7</ele>
        <time>2017-01-15T11:19:29Z</time>
      </trkpt>
      <trkpt lat="48.60361" lon="-1.7609">
        <ele>7</ele>
        <time>2017-01-15T11:21:29Z</time>
      </trkpt>
      <trkpt lat="48.60363" lon="-1.76106">
        <ele>7</ele>
        <time>2017-01-15T11:23:29Z</time>
      </trkpt>
      <trkpt lat="48.60363" lon="-1.7612">
        <ele>7</ele>
        <time>2017-01-15T11:25:29Z</time>
      </trkpt>
      <trkpt lat="48.60364" lon="-1.76136">
        <ele>7</ele>
        <time>2017-01-15T11:27:29Z</time>
      </trkpt>
      <trkpt lat="48.60366" lon="-1.76167">
        <ele>6</ele>
        <time>2017-01-15T11:29:29Z</time>
      </trkpt>
      <trkpt lat="48.60367" lon="-1.76182">
        <ele>6</ele>
        <time>2017-01-15T11:31:29Z</time>
      </trkpt>
      <trkpt lat="48.60365" lon="-1.76196">
        <ele>6</ele>
        <time>2017-01-15T11:33:29Z</time>
      </trkpt>
      <trkpt lat="48.60362" lon="-1.7621">
        <ele>6</ele>
        <time>2017-01-15T11:35:29Z</time>
      </trkpt>
      <trkpt lat="48.60355" lon="-1.7622">
        <ele>6</ele>
        <time>2017-01-15T11:37:29Z</time>
      </trkpt>
      <trkpt lat="48.60348" lon="-1.7622">
        <ele>6</ele>
        <time>2017-01-15T11:39:29Z</time>
      </trkpt>
      <trkpt lat="48.6034" lon="-1.76228">
        <ele>6</ele>
        <time>2017-01-15T11:41:29Z</time>
      </trkpt>
      <trkpt lat="48.60337" lon="-1.76246">
        <ele>6</ele>
        <time>2017-01-15T11:43:29Z</time>
      </trkpt>
      <trkpt lat="48.60335" lon="-1.76262">
        <ele>6</ele>
        <time>2017-01-15T11:45:29Z</time>
      </trkpt>
      <trkpt lat="48.60335" lon="-1.76275">
        <ele>6</ele>
        <time>2017-01-15T11:47:29Z</time>
      </trkpt>
      <trkpt lat="48.60334" lon="-1.76292">
        <ele>6</ele>
        <time>2017-01-15T11:49:29Z</time>
      </trkpt>
      <trkpt lat="48.60335" lon="-1.76308">
        <ele>7</ele>
        <time>2017-01-15T11:51:29Z</time>
      </trkpt>
      <trkpt lat="48.60336" lon="-1.76323">
        <ele>7</ele>
        <time>2017-01-15T11:53:29Z</time>
      </trkpt>
      <trkpt lat="48.60336" lon="-1.7634">
        <ele>7</ele>
        <time>2017-01-15T11:55:29Z</time>
      </trkpt>
      <trkpt lat="48.60335" lon="-1.76354">
        <ele>7</ele>
        <time>2017-01-15T11:57:29Z</time>
      </trkpt>
      <trkpt lat="48.60333" lon="-1.76368">
        <ele>7</ele>
        <time>2017-01-15T11:59:29Z</time>
      </trkpt>
      <trkpt lat="48.60328" lon="-1.76399">
        <ele>7</ele>
        <time>2017-01-15T12:01:29Z</time>
      </trkpt>
      <trkpt lat="48.60325" lon="-1.7643">
        <ele>7</ele>
        <time>2017-01-15T12:03:29Z</time>
      </trkpt>
      <trkpt lat="48.60323" lon="-1.76444">
        <ele>7</ele>
        <time>2017-01-15T12:05:29Z</time>
      </trkpt>
      <trkpt lat="48.6032" lon="-1.7646">
        <ele>7</ele>
        <time>2017-01-15T12:07:29Z</time>
      </trkpt>
      <trkpt lat="48.60318" lon="-1.76474">
        <ele>7</ele>
        <time>2017-01-15T12:09:29Z</time>
      </trkpt>
      <trkpt lat="48.60316" lon="-1.7649">
        <ele>7</ele>
        <time>2017-01-15T12:11:29Z</time>
      </trkpt>
      <trkpt lat="48.60316" lon="-1.76505">
        <ele>7</ele>
        <time>2017-01-15T12:13:29Z</time>
      </trkpt>
      <trkpt lat="48.60313" lon="-1.76519">
        <ele>7</ele>
        <time>2017-01-15T12:15:29Z</time>
      </trkpt>
      <trkpt lat="48.60306" lon="-1.76528">
        <ele>7</ele>
        <time>2017-01-15T12:17:29Z</time>
      </trkpt>
      <trkpt lat="48.60298" lon="-1.76528">
        <ele>6</ele>
        <time>2017-01-15T12:19:29Z</time>
      </trkpt>
      <trkpt lat="48.60288" lon="-1.7653">
        <ele>6</ele>
        <time>2017-01-15T12:21:29Z</time>
      </trkpt>
      <trkpt lat="48.6028" lon="-1.76541">
        <ele>6</ele>
        <time>2017-01-15T12:23:29Z</time>
      </trkpt>
      <trkpt lat="48.60278" lon="-1.76555">
        <ele>6</ele>
        <time>2017-01-15T12:25:29Z</time>
      </trkpt>
      <trkpt lat="48.60275" lon="-1.76586">
        <ele>6</ele>
        <time>2017-01-15T12:27:29Z</time>
      </trkpt>
      <trkpt lat="48.60274" lon="-1.76602">
        <ele>5</ele>
        <time>2017-01-15T12:29:29Z</time>
      </trkpt>
      <trkpt lat="48.60273" lon="-1.76617">
        <ele>5</ele>
        <time>2017-01-15T12:31:29Z</time>
      </trkpt>
      <trkpt lat="48.60271" lon="-1.76632">
        <ele>5</ele>
        <time>2017-01-15T12:33:29Z</time>
      </trkpt>
      <trkpt lat="48.60269" lon="-1.76647">
        <ele>5</ele>
        <time>2017-01-15T12:35:29Z</time>
      </trkpt>
      <trkpt lat="48.60268" lon="-1.76661">
        <ele>5</ele>
        <time>2017-01-15T12:37:29Z</time>
      </trkpt>
      <trkpt lat="48.60266" lon="-1.76676">
        <ele>5</ele>
        <time>2017-01-15T12:39:29Z</time>
      </trkpt>
      <trkpt lat="48.60264" lon="-1.7669">
        <ele>4</ele>
        <time>2017-01-15T12:41:29Z</time>
      </trkpt>
      <trkpt lat="48.6026" lon="-1.76702">
        <ele>4</ele>
        <time>2017-01-15T12:43:29Z</time>
      </trkpt>
      <trkpt lat="48.60255" lon="-1.76716">
        <ele>4</ele>
        <time>2017-01-15T12:45:29Z</time>
      </trkpt>
      <trkpt lat="48.60248" lon="-1.76748">
        <ele>4</ele>
        <time>2017-01-15T12:47:29Z</time>
      </trkpt>
      <trkpt lat="48.60246" lon="-1.76763">
        <ele>4</ele>
        <time>2017-01-15T12:49:29Z</time>
      </trkpt>
      <trkpt lat="48.60243" lon="-1.76778">
        <ele>4</ele>
        <time>2017-01-15T12:51:29Z</time>
      </trkpt>
      <trkpt lat="48.6024" lon="-1.76793">
        <ele>4</ele>
        <time>2017-01-15T12:53:29Z</time>
      </trkpt>
      <trkpt lat="48.60239" lon="-1.76807">
        <ele>4</ele>
        <time>2017-01-15T12:55:29Z</time>
      </trkpt>
      <trkpt lat="48.60236" lon="-1.76822">
        <ele>4</ele>
        <time>2017-01-15T12:57:29Z</time>
      </trkpt>
      <trkpt lat="48.60232" lon="-1.76837">
        <ele>4</ele>
        <time>2017-01-15T12:59:29Z</time>
      </trkpt>
      <trkpt lat="48.6023" lon="-1.76852">
        <ele>5</ele>
        <time>2017-01-15T13:01:29Z</time>
      </trkpt>
      <trkpt lat="48.60227" lon="-1.76866">
        <ele>5</ele>
        <time>2017-01-15T13:03:29Z</time>
      </trkpt>
      <trkpt lat="48.60223" lon="-1.76881">
        <ele>6</ele>
        <time>2017-01-15T13:05:29Z</time>
      </trkpt>
      <trkpt lat="48.60222" lon="-1.76897">
        <ele>7</ele>
        <time>2017-01-15T13:07:29Z</time>
      </trkpt>
      <trkpt lat="48.6022" lon="-1.76912">
        <ele>7</ele>
        <time>2017-01-15T13:09:29Z</time>
      </trkpt>
      <trkpt lat="48.60212" lon="-1.76937">
        <ele>8</ele>
        <time>2017-01-15T13:11:29Z</time>
      </trkpt>
      <trkpt lat="48.60205" lon="-1.76966">
        <ele>8</ele>
        <time>2017-01-15T13:13:29Z</time>
      </trkpt>
      <trkpt lat="48.60207" lon="-1.76981">
        <ele>8</ele>
        <time>2017-01-15T13:15:29Z</time>
      </trkpt>
      <trkpt lat="48.60207" lon="-1.76996">
        <ele>8</ele>
        <time>2017-01-15T13:17:29Z</time>
      </trkpt>
      <trkpt lat="48.60206" lon="-1.7701">
        <ele>9</ele>
        <time>2017-01-15T13:19:29Z</time>
      </trkpt>
      <trkpt lat="48.60204" lon="-1.77026">
        <ele>9</ele>
        <time>2017-01-15T13:21:29Z</time>
      </trkpt>
      <trkpt lat="48.60206" lon="-1.77039">
        <ele>9</ele>
        <time>2017-01-15T13:23:29Z</time>
      </trkpt>
      <trkpt lat="48.60208" lon="-1.77055">
        <ele>9</ele>
        <time>2017-01-15T13:25:29Z</time>
      </trkpt>
      <trkpt lat="48.60207" lon="-1.77089">
        <ele>8</ele>
        <time>2017-01-15T13:27:29Z</time>
      </trkpt>
      <trkpt lat="48.60212" lon="-1.77107">
        <ele>8</ele>
        <time>2017-01-15T13:29:29Z</time>
      </trkpt>
      <trkpt lat="48.60217" lon="-1.7712">
        <ele>8</ele>
        <time>2017-01-15T13:31:29Z</time>
      </trkpt>
      <trkpt lat="48.60221" lon="-1.77133">
        <ele>8</ele>
        <time>2017-01-15T13:33:29Z</time>
      </trkpt>
      <trkpt lat="48.60225" lon="-1.77147">
        <ele>7</ele>
        <time>2017-01-15T13:35:29Z</time>
      </trkpt>
      <trkpt lat="48.6023" lon="-1.77161">
        <ele>7</ele>
        <time>2017-01-15T13:37:29Z</time>
      </trkpt>
      <trkpt lat="48.60233" lon="-1.77175">
        <ele>7</ele>
        <time>2017-01-15T13:39:29Z</time>
      </trkpt>
      <trkpt lat="48.6024" lon="-1.77203">
        <ele>7</ele>
        <time>2017-01-15T13:41:29Z</time>
      </trkpt>
      <trkpt lat="48.60244" lon="-1.77215">
        <ele>7</ele>
        <time>2017-01-15T13:43:29Z</time>
      </trkpt>
      <trkpt lat="48.60246" lon="-1.77231">
        <ele>7</ele>
        <time>2017-01-15T13:45:29Z</time>
      </trkpt>
      <trkpt lat="48.60249" lon="-1.77245">
        <ele>7</ele>
        <time>2017-01-15T13:47:29Z</time>
      </trkpt>
      <trkpt lat="48.60259" lon="-1.77251">
        <ele>7</ele>
        <time>2017-01-15T13:49:29Z</time>
      </trkpt>
      <trkpt lat="48.60268" lon="-1.77252">
        <ele>7</ele>
        <time>2017-01-15T13:51:29Z</time>
      </trkpt>
      <trkpt lat="48.60279" lon="-1.77251">
        <ele>7</ele>
        <time>2017-01-15T13:53:29Z</time>
      </trkpt>
      <trkpt lat="48.60288" lon="-1.77253">
        <ele>7</ele>
        <time>2017-01-15T13:55:29Z</time>
      </trkpt>
      <trkpt lat="48.60297" lon="-1.77261">
        <ele>7</ele>
        <time>2017-01-15T13:57:29Z</time>
      </trkpt>
      <trkpt lat="48.60303" lon="-1.77274">
        <ele>7</ele>
        <time>2017-01-15T13:59:29Z</time>
      </trkpt>
      <trkpt lat="48.60307" lon="-1.77288">
        <ele>7</ele>
        <time>2017-01-15T14:01:29Z</time>
      </trkpt>
      <trkpt lat="48.60311" lon="-1.77315">
        <ele>7</ele>
        <time>2017-01-15T14:03:29Z</time>
      </trkpt>
      <trkpt lat="48.60315" lon="-1.77329">
        <ele>7</ele>
        <time>2017-01-15T14:05:29Z</time>
      </trkpt>
      <trkpt lat="48.60318" lon="-1.77342">
        <ele>7</ele>
        <time>2017-01-15T14:07:29Z</time>
      </trkpt>
      <trkpt lat="48.60321" lon="-1.77356">
        <ele>8</ele>
        <time>2017-01-15T14:09:29Z</time>
      </trkpt>
      <trkpt lat="48.60323" lon="-1.77372">
        <ele>8</ele>
        <time>2017-01-15T14:11:29Z</time>
      </trkpt>
      <trkpt lat="48.60325" lon="-1.77386">
        <ele>8</ele>
        <time>2017-01-15T14:13:29Z</time>
      </trkpt>
      <trkpt lat="48.60329" lon="-1.77399">
        <ele>9</ele>
        <time>2017-01-15T14:15:29Z</time>
      </trkpt>
      <trkpt lat="48.60347" lon="-1.77405">
        <ele>8</ele>
        <time>2017-01-15T14:17:29Z</time>
      </trkpt>
      <trkpt lat="48.60349" lon="-1.7742">
        <ele>9</ele>
        <time>2017-01-15T14:19:29Z</time>
      </trkpt>
      <trkpt lat="48.60353" lon="-1.77449">
        <ele>8</ele>
        <time>2017-01-15T14:21:29Z</time>
      </trkpt>
      <trkpt lat="48.60354" lon="-1.77463">
        <ele>8</ele>
        <time>2017-01-15T14:23:29Z</time>
      </trkpt>
      <trkpt lat="48.60355" lon="-1.7748">
        <ele>8</ele>
        <time>2017-01-15T14:25:29Z</time>
      </trkpt>
      <trkpt lat="48.60357" lon="-1.77496">
        <ele>7</ele>
        <time>2017-01-15T14:27:29Z</time>
      </trkpt>
      <trkpt lat="48.60358" lon="-1.77513">
        <ele>7</ele>
        <time>2017-01-15T14:29:29Z</time>
      </trkpt>
      <trkpt lat="48.60361" lon="-1.77558">
        <ele>7</ele>
        <time>2017-01-15T14:31:29Z</time>
      </trkpt>
      <trkpt lat="48.60361" lon="-1.77574">
        <ele>7</ele>
        <time>2017-01-15T14:33:29Z</time>
      </trkpt>
      <trkpt lat="48.60359" lon="-1.77588">
        <ele>7</ele>
        <time>2017-01-15T14:35:29Z</time>
      </trkpt>
      <trkpt lat="48.6036" lon="-1.77602">
        <ele>7</ele>
        <time>2017-01-15T14:37:29Z</time>
      </trkpt>
      <trkpt lat="48.60362" lon="-1.77617">
        <ele>7</ele>
        <time>2017-01-15T14:39:29Z</time>
      </trkpt>
      <trkpt lat="48.60364" lon="-1.77631">
        <ele>6</ele>
        <time>2017-01-15T14:41:29Z</time>
      </trkpt>
      <trkpt lat="48.60366" lon="-1.77646">
        <ele>6</ele>
        <time>2017-01-15T14:43:29Z</time>
      </trkpt>
      <trkpt lat="48.60369" lon="-1.77662">
        <ele>5</ele>
        <time>2017-01-15T14:45:29Z</time>
      </trkpt>
      <trkpt lat="48.60373" lon="-1.77675">
        <ele>5</ele>
        <time>2017-01-15T14:47:29Z</time>
      </trkpt>
      <trkpt lat="48.60375" lon="-1.7769">
        <ele>5</ele>
        <time>2017-01-15T14:49:29Z</time>
      </trkpt>
      <trkpt lat="48.60377" lon="-1.77706">
        <ele>4</ele>
        <time>2017-01-15T14:51:29Z</time>
      </trkpt>
      <trkpt lat="48.60381" lon="-1.77719">
        <ele>4</ele>
        <time>2017-01-15T14:53:29Z</time>
      </trkpt>
      <trkpt lat="48.60383" lon="-1.77733">
        <ele>4</ele>
        <time>2017-01-15T14:55:29Z</time>
      </trkpt>
      <trkpt lat="48.60391" lon="-1.77774">
        <ele>4</ele>
        <time>2017-01-15T14:57:29Z</time>
      </trkpt>
      <trkpt lat="48.60393" lon="-1.77789">
        <ele>4</ele>
        <time>2017-01-15T14:59:29Z</time>
      </trkpt>
      <trkpt lat="48.60395" lon="-1.77804">
        <ele>5</ele>
        <time>2017-01-15T15:01:29Z</time>
      </trkpt>
      <trkpt lat="48.60399" lon="-1.77819">
        <ele>6</ele>
        <time>2017-01-15T15:03:29Z</time>
      </trkpt>
      <trkpt lat="48.604" lon="-1.77834">
        <ele>6</ele>
        <time>2017-01-15T15:05:29Z</time>
      </trkpt>
      <trkpt lat="48.60403" lon="-1.77848">
        <ele>6</ele>
        <time>2017-01-15T15:07:29Z</time>
      </trkpt>
      <trkpt lat="48.60405" lon="-1.77862">
        <ele>6</ele>
        <time>2017-01-15T15:09:29Z</time>
      </trkpt>
      <trkpt lat="48.60406" lon="-1.77875">
        <ele>6</ele>
        <time>2017-01-15T15:11:29Z</time>
      </trkpt>
      <trkpt lat="48.60408" lon="-1.77889">
        <ele>6</ele>
        <time>2017-01-15T15:13:29Z</time>
      </trkpt>
      <trkpt lat="48.60411" lon="-1.77903">
        <ele>6</ele>
        <time>2017-01-15T15:15:29Z</time>
      </trkpt>
      <trkpt lat="48.60413" lon="-1.77917">
        <ele>6</ele>
        <time>2017-01-15T15:17:29Z</time>
      </trkpt>
      <trkpt lat="48.60419" lon="-1.77945">
        <ele>6</ele>
        <time>2017-01-15T15:19:29Z</time>
      </trkpt>
      <trkpt lat="48.60422" lon="-1.77959">
        <ele>5</ele>
        <time>2017-01-15T15:21:29Z</time>
      </trkpt>
      <trkpt lat="48.60425" lon="-1.77974">
        <ele>5</ele>
        <time>2017-01-15T15:23:29Z</time>
      </trkpt>
      <trkpt lat="48.60429" lon="-1.77986">
        <ele>5</ele>
        <time>2017-01-15T15:25:29Z</time>
      </trkpt>
      <trkpt lat="48.60432" lon="-1.78001">
        <ele>5</ele>
        <time>2017-01-15T15:27:29Z</time>
      </trkpt>
      <trkpt lat="48.60435" lon="-1.78014">
        <ele>5</ele>
        <time>2017-01-15T15:29:29Z</time>
      </trkpt>
      <trkpt lat="48.60439" lon="-1.78026">
        <ele>5</ele>
        <time>2017-01-15T15:31:29Z</time>
      </trkpt>
      <trkpt lat="48.60447" lon="-1.78054">
        <ele>6</ele>
        <time>2017-01-15T15:33:29Z</time>
      </trkpt>
      <trkpt lat="48.6045" lon="-1.78069">
        <ele>6</ele>
        <time>2017-01-15T15:35:29Z</time>
      </trkpt>
      <trkpt lat="48.60453" lon="-1.78083">
        <ele>6</ele>
        <time>2017-01-15T15:37:29Z</time>
      </trkpt>
      <trkpt lat="48.60456" lon="-1.78097">
        <ele>6</ele>
        <time>2017-01-15T15:39:29Z</time>
      </trkpt>
      <trkpt lat="48.60458" lon="-1.7811">
        <ele>6</ele>
        <time>2017-01-15T15:41:29Z</time>
      </trkpt>
      <trkpt lat="48.60458" lon="-1.78126">
        <ele>6</ele>
        <time>2017-01-15T15:43:29Z</time>
      </trkpt>
      <trkpt lat="48.6046" lon="-1.7814">
        <ele>6</ele>
        <time>2017-01-15T15:45:29Z</time>
      </trkpt>
      <trkpt lat="48.60462" lon="-1.78152">
        <ele>6</ele>
        <time>2017-01-15T15:47:29Z</time>
      </trkpt>
      <trkpt lat="48.60464" lon="-1.78166">
        <ele>6</ele>
        <time>2017-01-15T15:49:29Z</time>
      </trkpt>
      <trkpt lat="48.60468" lon="-1.78178">
        <ele>6</ele>
        <time>2017-01-15T15:51:29Z</time>
      </trkpt>
      <trkpt lat="48.60472" lon="-1.78191">
        <ele>6</ele>
        <time>2017-01-15T15:53:29Z</time>
      </trkpt>
      <trkpt lat="48.60478" lon="-1.78202">
        <ele>6</ele>
        <time>2017-01-15T15:55:29Z</time>
      </trkpt>
      <trkpt lat="48.60485" lon="-1.78205">
        <ele>6</ele>
        <time>2017-01-15T15:57:29Z</time>
      </trkpt>
      <trkpt lat="48.6049" lon="-1.78214">
        <ele>7</ele>
        <time>2017-01-15T15:59:29Z</time>
      </trkpt>
      <trkpt lat="48.60491" lon="-1.78231">
        <ele>7</ele>
        <time>2017-01-15T16:01:29Z</time>
      </trkpt>
      <trkpt lat="48.60489" lon="-1.78259">
        <ele>7</ele>
        <time>2017-01-15T16:03:29Z</time>
      </trkpt>
      <trkpt lat="48.60491" lon="-1.78274">
        <ele>7</ele>
        <time>2017-01-15T16:05:29Z</time>
      </trkpt>
      <trkpt lat="48.60494" lon="-1.78287">
        <ele>7</ele>
        <time>2017-01-15T16:07:29Z</time>
      </trkpt>
      <trkpt lat="48.60497" lon="-1.783">
        <ele>7</ele>
        <time>2017-01-15T16:09:29Z</time>
      </trkpt>
      <trkpt lat="48.60501" lon="-1.78314">
        <ele>7</ele>
        <time>2017-01-15T16:11:29Z</time>
      </trkpt>
      <trkpt lat="48.60503" lon="-1.78327">
        <ele>7</ele>
        <time>2017-01-15T16:13:29Z</time>
      </trkpt>
      <trkpt lat="48.60509" lon="-1.78357">
        <ele>7</ele>
        <time>2017-01-15T16:15:29Z</time>
      </trkpt>
      <trkpt lat="48.60513" lon="-1.78384">
        <ele>6</ele>
        <time>2017-01-15T16:17:29Z</time>
      </trkpt>
      <trkpt lat="48.60514" lon="-1.78398">
        <ele>6</ele>
        <time>2017-01-15T16:19:29Z</time>
      </trkpt>
      <trkpt lat="48.60516" lon="-1.78412">
        <ele>6</ele>
        <time>2017-01-15T16:21:29Z</time>
      </trkpt>
      <trkpt lat="48.6052" lon="-1.78423">
        <ele>6</ele>
        <time>2017-01-15T16:23:29Z</time>
      </trkpt>
      <trkpt lat="48.60523" lon="-1.78436">
        <ele>6</ele>
        <time>2017-01-15T16:25:29Z</time>
      </trkpt>
      <trkpt lat="48.60524" lon="-1.7845">
        <ele>6</ele>
        <time>2017-01-15T16:27:29Z</time>
      </trkpt>
      <trkpt lat="48.60529" lon="-1.78462">
        <ele>6</ele>
        <time>2017-01-15T16:29:29Z</time>
      </trkpt>
      <trkpt lat="48.60531" lon="-1.78477">
        <ele>7</ele>
        <time>2017-01-15T16:31:29Z</time>
      </trkpt>
      <trkpt lat="48.60535" lon="-1.78492">
        <ele>7</ele>
        <time>2017-01-15T16:33:29Z</time>
      </trkpt>
      <trkpt lat="48.60538" lon="-1.78508">
        <ele>7</ele>
        <time>2017-01-15T16:35:29Z</time>
      </trkpt>
      <trkpt lat="48.60544" lon="-1.78535">
        <ele>7</ele>
        <time>2017-01-15T16:37:29Z</time>
      </trkpt>
      <trkpt lat="48.60547" lon="-1.78549">
        <ele>7</ele>
        <time>2017-01-15T16:39:29Z</time>
      </trkpt>
      <trkpt lat="48.6055" lon="-1.78566">
        <ele>7</ele>
        <time>2017-01-15T16:41:29Z</time>
      </trkpt>
      <trkpt lat="48.60551" lon="-1.78579">
        <ele>7</ele>
        <time>2017-01-15T16:43:29Z</time>
      </trkpt>
      <trkpt lat="48.60555" lon="-1.78607">
        <ele>7</ele>
        <time>2017-01-15T16:45:29Z</time>
      </trkpt>
      <trkpt lat="48.60555" lon="-1.78624">
        <ele>7</ele>
        <time>2017-01-15T16:47:29Z</time>
      </trkpt>
      <trkpt lat="48.60557" lon="-1.78639">
        <ele>7</ele>
        <time>2017-01-15T16:49:29Z</time>
      </trkpt>
      <trkpt lat="48.60559" lon="-1.78653">
        <ele>7</ele>
        <time>2017-01-15T16:51:29Z</time>
      </trkpt>
      <trkpt lat="48.60563" lon="-1.78681">
        <ele>7</ele>
        <time>2017-01-15T16:53:29Z</time>
      </trkpt>
      <trkpt lat="48.60566" lon="-1.78695">
        <ele>7</ele>
        <time>2017-01-15T16:55:29Z</time>
      </trkpt>
      <trkpt lat="48.60568" lon="-1.78709">
        <ele>6</ele>
        <time>2017-01-15T16:57:29Z</time>
      </trkpt>
      <trkpt lat="48.6057" lon="-1.78724">
        <ele>6</ele>
        <time>2017-01-15T16:59:29Z</time>
      </trkpt>
      <trkpt lat="48.60571" lon="-1.7874">
        <ele>6</ele>
        <time>2017-01-15T17:01:29Z</time>
      </trkpt>
      <trkpt lat="48.60571" lon="-1.78753">
        <ele>6</ele>
        <time>2017-01-15T17:03:29Z</time>
      </trkpt>
      <trkpt lat="48.60573" lon="-1.78767">
        <ele>6</ele>
        <time>2017-01-15T17:05:29Z</time>
      </trkpt>
      <trkpt lat="48.60575" lon="-1.78781">
        <ele>6</ele>
        <time>2017-01-15T17:07:29Z</time>
      </trkpt>
      <trkpt lat="48.60578" lon="-1.78809">
        <ele>6</ele>
        <time>2017-01-15T17:09:29Z</time>
      </trkpt>
      <trkpt lat="48.60578" lon="-1.78836">
        <ele>6</ele>
        <time>2017-01-15T17:11:29Z</time>
      </trkpt>
      <trkpt lat="48.60581" lon="-1.78848">
        <ele>6</ele>
        <time>2017-01-15T17:13:29Z</time>
      </trkpt>
      <trkpt lat="48.60584" lon="-1.78863">
        <ele>6</ele>
        <time>2017-01-15T17:15:29Z</time>
      </trkpt>
      <trkpt lat="48.60586" lon="-1.78877">
        <ele>6</ele>
        <time>2017-01-15T17:17:29Z</time>
      </trkpt>
      <trkpt lat="48.60589" lon="-1.7889">
        <ele>6</ele>
        <time>2017-01-15T17:19:29Z</time>
      </trkpt>
      <trkpt lat="48.60591" lon="-1.78904">
        <ele>6</ele>
        <time>2017-01-15T17:21:29Z</time>
      </trkpt>
      <trkpt lat="48.60596" lon="-1.78918">
        <ele>6</ele>
        <time>2017-01-15T17:23:29Z</time>
      </trkpt>
      <trkpt lat="48.60598" lon="-1.78931">
        <ele>6</ele>
        <time>2017-01-15T17:25:29Z</time>
      </trkpt>
      <trkpt lat="48.60599" lon="-1.78947">
        <ele>6</ele>
        <time>2017-01-15T17:27:29Z</time>
      </trkpt>
      <trkpt lat="48.60601" lon="-1.78963">
        <ele>6</ele>
        <time>2017-01-15T17:29:29Z</time>
      </trkpt>
      <trkpt lat="48.60603" lon="-1.78978">
        <ele>6</ele>
        <time>2017-01-15T17:31:29Z</time>
      </trkpt>
      <trkpt lat="48.60603" lon="-1.78992">
        <ele>6</ele>
        <time>2017-01-15T17:33:29Z</time>
      </trkpt>
      <trkpt lat="48.60604" lon="-1.79008">
        <ele>6</ele>
        <time>2017-01-15T17:35:29Z</time>
      </trkpt>
      <trkpt lat="48.60606" lon="-1.79024">
        <ele>6</ele>
        <time>2017-01-15T17:37:29Z</time>
      </trkpt>
      <trkpt lat="48.60608" lon="-1.79039">
        <ele>6</ele>
        <time>2017-01-15T17:39:29Z</time>
      </trkpt>
      <trkpt lat="48.6061" lon="-1.79053">
        <ele>6</ele>
        <time>2017-01-15T17:41:29Z</time>
      </trkpt>
      <trkpt lat="48.60612" lon="-1.79069">
        <ele>6</ele>
        <time>2017-01-15T17:43:29Z</time>
      </trkpt>
      <trkpt lat="48.60614" lon="-1.79083">
        <ele>6</ele>
        <time>2017-01-15T17:45:29Z</time>
      </trkpt>
      <trkpt lat="48.60615" lon="-1.791">
        <ele>6</ele>
        <time>2017-01-15T17:47:29Z</time>
      </trkpt>
      <trkpt lat="48.60614" lon="-1.79114">
        <ele>6</ele>
        <time>2017-01-15T17:49:29Z</time>
      </trkpt>
      <trkpt lat="48.60612" lon="-1.7913">
        <ele>6</ele>
        <time>2017-01-15T17:51:29Z</time>
      </trkpt>
      <trkpt lat="48.60612" lon="-1.79145">
        <ele>6</ele>
        <time>2017-01-15T17:53:29Z</time>
      </trkpt>
      <trkpt lat="48.60613" lon="-1.7916">
        <ele>7</ele>
        <time>2017-01-15T17:55:29Z</time>
      </trkpt>
      <trkpt lat="48.60614" lon="-1.79175">
        <ele>7</ele>
        <time>2017-01-15T17:57:29Z</time>
      </trkpt>
      <trkpt lat="48.60615" lon="-1.79189">
        <ele>7</ele>
        <time>2017-01-15T17:59:29Z</time>
      </trkpt>
      <trkpt lat="48.60618" lon="-1.79203">
        <ele>7</ele>
        <time>2017-01-15T18:01:29Z</time>
      </trkpt>
      <trkpt lat="48.60621" lon="-1.79233">
        <ele>6</ele>
        <time>2017-01-15T18:03:29Z</time>
      </trkpt>
      <trkpt lat="48.60622" lon="-1.79262">
        <ele>6</ele>
        <time>2017-01-15T18:05:29Z</time>
      </trkpt>
      <trkpt lat="48.60624" lon="-1.79276">
        <ele>6</ele>
        <time>2017-01-15T18:07:29Z</time>
      </trkpt>
      <trkpt lat="48.60627" lon="-1.79319">
        <ele>7</ele>
        <time>2017-01-15T18:09:29Z</time>
      </trkpt>
      <trkpt lat="48.60629" lon="-1.79335">
        <ele>7</ele>
        <time>2017-01-15T18:11:29Z</time>
      </trkpt>
      <trkpt lat="48.6063" lon="-1.7935">
        <ele>6</ele>
        <time>2017-01-15T18:13:29Z</time>
      </trkpt>
      <trkpt lat="48.60632" lon="-1.79364">
        <ele>6</ele>
        <time>2017-01-15T18:15:29Z</time>
      </trkpt>
      <trkpt lat="48.60633" lon="-1.79378">
        <ele>6</ele>
        <time>2017-01-15T18:17:29Z</time>
      </trkpt>
      <trkpt lat="48.60634" lon="-1.79394">
        <ele>6</ele>
        <time>2017-01-15T18:19:29Z</time>
      </trkpt>
      <trkpt lat="48.60636" lon="-1.79409">
        <ele>6</ele>
        <time>2017-01-15T18:21:29Z</time>
      </trkpt>
      <trkpt lat="48.60638" lon="-1.79424">
        <ele>6</ele>
        <time>2017-01-15T18:23:29Z</time>
      </trkpt>
      <trkpt lat="48.60638" lon="-1.79439">
        <ele>6</ele>
        <time>2017-01-15T18:25:29Z</time>
      </trkpt>
      <trkpt lat="48.60641" lon="-1.79453">
        <ele>6</ele>
        <time>2017-01-15T18:27:29Z</time>
      </trkpt>
      <trkpt lat="48.60642" lon="-1.79466">
        <ele>6</ele>
        <time>2017-01-15T18:29:29Z</time>
      </trkpt>
      <trkpt lat="48.60639" lon="-1.79481">
        <ele>6</ele>
        <time>2017-01-15T18:31:29Z</time>
      </trkpt>
      <trkpt lat="48.60638" lon="-1.79494">
        <ele>6</ele>
        <time>2017-01-15T18:33:29Z</time>
      </trkpt>
      <trkpt lat="48.60638" lon="-1.79509">
        <ele>6</ele>
        <time>2017-01-15T18:35:29Z</time>
      </trkpt>
      <trkpt lat="48.60641" lon="-1.79524">
        <ele>6</ele>
        <time>2017-01-15T18:37:29Z</time>
      </trkpt>
      <trkpt lat="48.60644" lon="-1.79536">
        <ele>6</ele>
        <time>2017-01-15T18:39:29Z</time>
      </trkpt>
      <trkpt lat="48.60644" lon="-1.79547">
        <ele>5</ele>
        <time>2017-01-15T18:41:29Z</time>
      </trkpt>
      <trkpt lat="48.6065" lon="-1.79557">
        <ele>5</ele>
        <time>2017-01-15T18:43:29Z</time>
      </trkpt>
      <trkpt lat="48.60652" lon="-1.79571">
        <ele>5</ele>
        <time>2017-01-15T18:45:29Z</time>
      </trkpt>
      <trkpt lat="48.60654" lon="-1.79585">
        <ele>5</ele>
        <time>2017-01-15T18:47:29Z</time>
      </trkpt>
      <trkpt lat="48.60657" lon="-1.79595">
        <ele>5</ele>
        <time>2017-01-15T18:49:29Z</time>
      </trkpt>
      <trkpt lat="48.60659" lon="-1.7961">
        <ele>5</ele>
        <time>2017-01-15T18:51:29Z</time>
      </trkpt>
      <trkpt lat="48.60657" lon="-1.79624">
        <ele>5</ele>
        <time>2017-01-15T18:53:29Z</time>
      </trkpt>
      <trkpt lat="48.60659" lon="-1.79639">
        <ele>5</ele>
        <time>2017-01-15T18:55:29Z</time>
      </trkpt>
      <trkpt lat="48.6066" lon="-1.79653">
        <ele>5</ele>
        <time>2017-01-15T18:57:29Z</time>
      </trkpt>
      <trkpt lat="48.60663" lon="-1.79667">
        <ele>5</ele>
        <time>2017-01-15T18:59:29Z</time>
      </trkpt>
      <trkpt lat="48.60664" lon="-1.79681">
        <ele>5</ele>
        <time>2017-01-15T19:01:29Z</time>
      </trkpt>
      <trkpt lat="48.60666" lon="-1.79696">
        <ele>6</ele>
        <time>2017-01-15T19:03:29Z</time>
      </trkpt>
      <trkpt lat="48.60669" lon="-1.7971">
        <ele>6</ele>
        <time>2017-01-15T19:05:29Z</time>
      </trkpt>
      <trkpt lat="48.6067" lon="-1.7974">
        <ele>6</ele>
        <time>2017-01-15T19:07:29Z</time>
      </trkpt>
      <trkpt lat="48.60672" lon="-1.79755">
        <ele>7</ele>
        <time>2017-01-15T19:09:29Z</time>
      </trkpt>
      <trkpt lat="48.60674" lon="-1.7977">
        <ele>7</ele>
        <time>2017-01-15T19:11:29Z</time>
      </trkpt>
      <trkpt lat="48.60673" lon="-1.79785">
        <ele>7</ele>
        <time>2017-01-15T19:13:29Z</time>
      </trkpt>
      <trkpt lat="48.60675" lon="-1.79798">
        <ele>7</ele>
        <time>2017-01-15T19:15:29Z</time>
      </trkpt>
      <trkpt lat="48.60675" lon="-1.79812">
        <ele>7</ele>
        <time>2017-01-15T19:17:29Z</time>
      </trkpt>
      <trkpt lat="48.60679" lon="-1.7984">
        <ele>7</ele>
        <time>2017-01-15T19:19:29Z</time>
      </trkpt>
      <trkpt lat="48.60681" lon="-1.79867">
        <ele>6</ele>
        <time>2017-01-15T19:21:29Z</time>
      </trkpt>
      <trkpt lat="48.60682" lon="-1.79881">
        <ele>6</ele>
        <time>2017-01-15T19:23:29Z</time>
      </trkpt>
      <trkpt lat="48.60683" lon="-1.79894">
        <ele>6</ele>
        <time>2017-01-15T19:25:29Z</time>
      </trkpt>
      <trkpt lat="48.60683" lon="-1.79908">
        <ele>6</ele>
        <time>2017-01-15T19:27:29Z</time>
      </trkpt>
      <trkpt lat="48.60686" lon="-1.79935">
        <ele>5</ele>
        <time>2017-01-15T19:29:29Z</time>
      </trkpt>
      <trkpt lat="48.60687" lon="-1.79948">
        <ele>5</ele>
        <time>2017-01-15T19:31:29Z</time>
      </trkpt>
      <trkpt lat="48.60689" lon="-1.79963">
        <ele>5</ele>
        <time>2017-01-15T19:33:29Z</time>
      </trkpt>
      <trkpt lat="48.6069" lon="-1.79978">
        <ele>5</ele>
        <time>2017-01-15T19:35:29Z</time>
      </trkpt>
      <trkpt lat="48.60693" lon="-1.79993">
        <ele>4</ele>
        <time>2017-01-15T19:37:29Z</time>
      </trkpt>
      <trkpt lat="48.60694" lon="-1.80006">
        <ele>4</ele>
        <time>2017-01-15T19:39:29Z</time>
      </trkpt>
      <trkpt lat="48.60695" lon="-1.80034">
        <ele>4</ele>
        <time>2017-01-15T19:41:29Z</time>
      </trkpt>
      <trkpt lat="48.60697" lon="-1.8005">
        <ele>5</ele>
        <time>2017-01-15T19:43:29Z</time>
      </trkpt>
      <trkpt lat="48.60703" lon="-1.80096">
        <ele>5</ele>
        <time>2017-01-15T19:45:29Z</time>
      </trkpt>
      <trkpt lat="48.60705" lon="-1.80109">
        <ele>4</ele>
        <time>2017-01-15T19:47:29Z</time>
      </trkpt>
      <trkpt lat="48.60706" lon="-1.80122">
        <ele>4</ele>
        <time>2017-01-15T19:49:29Z</time>
      </trkpt>
      <trkpt lat="48.60706" lon="-1.80136">
        <ele>5</ele>
        <time>2017-01-15T19:51:29Z</time>
      </trkpt>
      <trkpt lat="48.60707" lon="-1.80151">
        <ele>5</ele>
        <time>2017-01-15T19:53:29Z</time>
      </trkpt>
      <trkpt lat="48.60709" lon="-1.80166">
        <ele>4</ele>
        <time>2017-01-15T19:55:29Z</time>
      </trkpt>
      <trkpt lat="48.6071" lon="-1.8018">
        <ele>5</ele>
        <time>2017-01-15T19:57:29Z</time>
      </trkpt>
      <trkpt lat="48.60713" lon="-1.80195">
        <ele>5</ele>
        <time>2017-01-15T19:59:29Z</time>
      </trkpt>
      <trkpt lat="48.60712" lon="-1.80213">
        <ele>6</ele>
        <time>2017-01-15T20:01:29Z</time>
      </trkpt>
      <trkpt lat="48.60713" lon="-1.80225">
        <ele>6</ele>
        <time>2017-01-15T20:03:29Z</time>
      </trkpt>
      <trkpt lat="48.60714" lon="-1.80239">
        <ele>7</ele>
        <time>2017-01-15T20:05:29Z</time>
      </trkpt>
      <trkpt lat="48.60714" lon="-1.80252">
        <ele>7</ele>
        <time>2017-01-15T20:07:29Z</time>
      </trkpt>
      <trkpt lat="48.60719" lon="-1.80267">
        <ele>7</ele>
        <time>2017-01-15T20:09:29Z</time>
      </trkpt>
      <trkpt lat="48.6072" lon="-1.80281">
        <ele>7</ele>
        <time>2017-01-15T20:11:29Z</time>
      </trkpt>
      <trkpt lat="48.60724" lon="-1.80307">
        <ele>7</ele>
        <time>2017-01-15T20:13:29Z</time>
      </trkpt>
      <trkpt lat="48.60725" lon="-1.80319">
        <ele>6</ele>
        <time>2017-01-15T20:15:29Z</time>
      </trkpt>
      <trkpt lat="48.60729" lon="-1.80331">
        <ele>6</ele>
        <time>2017-01-15T20:17:29Z</time>
      </trkpt>
      <trkpt lat="48.60731" lon="-1.80347">
        <ele>6</ele>
        <time>2017-01-15T20:19:29Z</time>
      </trkpt>
      <trkpt lat="48.60734" lon="-1.80362">
        <ele>6</ele>
        <time>2017-01-15T20:21:29Z</time>
      </trkpt>
      <trkpt lat="48.60739" lon="-1.8039">
        <ele>6</ele>
        <time>2017-01-15T20:23:29Z</time>
      </trkpt>
      <trkpt lat="48.6074" lon="-1.80403">
        <ele>6</ele>
        <time>2017-01-15T20:25:29Z</time>
      </trkpt>
      <trkpt lat="48.60743" lon="-1.80419">
        <ele>6</ele>
        <time>2017-01-15T20:27:29Z</time>
      </trkpt>
      <trkpt lat="48.60745" lon="-1.80434">
        <ele>6</ele>
        <time>2017-01-15T20:29:29Z</time>
      </trkpt>
      <trkpt lat="48.60747" lon="-1.80463">
        <ele>7</ele>
        <time>2017-01-15T20:31:29Z</time>
      </trkpt>
      <trkpt lat="48.60747" lon="-1.80479">
        <ele>7</ele>
        <time>2017-01-15T20:33:29Z</time>
      </trkpt>
      <trkpt lat="48.60749" lon="-1.80493">
        <ele>7</ele>
        <time>2017-01-15T20:35:29Z</time>
      </trkpt>
      <trkpt lat="48.6075" lon="-1.80508">
        <ele>7</ele>
        <time>2017-01-15T20:37:29Z</time>
      </trkpt>
      <trkpt lat="48.60751" lon="-1.80524">
        <ele>7</ele>
        <time>2017-01-15T20:39:29Z</time>
      </trkpt>
      <trkpt lat="48.60753" lon="-1.80539">
        <ele>7</ele>
        <time>2017-01-15T20:41:29Z</time>
      </trkpt>
      <trkpt lat="48.60755" lon="-1.80555">
        <ele>7</ele>
        <time>2017-01-15T20:43:29Z</time>
      </trkpt>
      <trkpt lat="48.60756" lon="-1.8057">
        <ele>8</ele>
        <time>2017-01-15T20:45:29Z</time>
      </trkpt>
      <trkpt lat="48.60757" lon="-1.80585">
        <ele>8</ele>
        <time>2017-01-15T20:47:29Z</time>
      </trkpt>
      <trkpt lat="48.60757" lon="-1.80598">
        <ele>8</ele>
        <time>2017-01-15T20:49:29Z</time>
      </trkpt>
      <trkpt lat="48.60758" lon="-1.80628">
        <ele>7</ele>
        <time>2017-01-15T20:51:29Z</time>
      </trkpt>
      <trkpt lat="48.60759" lon="-1.80641">
        <ele>7</ele>
        <time>2017-01-15T20:53:29Z</time>
      </trkpt>
      <trkpt lat="48.60761" lon="-1.80668">
        <ele>6</ele>
        <time>2017-01-15T20:55:29Z</time>
      </trkpt>
      <trkpt lat="48.60764" lon="-1.80682">
        <ele>6</ele>
        <time>2017-01-15T20:57:29Z</time>
      </trkpt>
      <trkpt lat="48.6077" lon="-1.80706">
        <ele>6</ele>
        <time>2017-01-15T20:59:29Z</time>
      </trkpt>
      <trkpt lat="48.60775" lon="-1.80735">
        <ele>6</ele>
        <time>2017-01-15T21:01:29Z</time>
      </trkpt>
      <trkpt lat="48.60776" lon="-1.8075">
        <ele>6</ele>
        <time>2017-01-15T21:03:29Z</time>
      </trkpt>
      <trkpt lat="48.60777" lon="-1.80767">
        <ele>7</ele>
        <time>2017-01-15T21:05:29Z</time>
      </trkpt>
      <trkpt lat="48.60777" lon="-1.80783">
        <ele>7</ele>
        <time>2017-01-15T21:07:29Z</time>
      </trkpt>
      <trkpt lat="48.60778" lon="-1.80796">
        <ele>7</ele>
        <time>2017-01-15T21:09:29Z</time>
      </trkpt>
      <trkpt lat="48.60778" lon="-1.80809">
        <ele>7</ele>
        <time>2017-01-15T21:11:29Z</time>
      </trkpt>
      <trkpt lat="48.6078" lon="-1.80838">
        <ele>7</ele>
        <time>2017-01-15T21:13:29Z</time>
      </trkpt>
      <trkpt lat="48.60782" lon="-1.80852">
        <ele>7</ele>
        <time>2017-01-15T21:15:29Z</time>
      </trkpt>
      <trkpt lat="48.60785" lon="-1.80865">
        <ele>7</ele>
        <time>2017-01-15T21:17:29Z</time>
      </trkpt>
      <trkpt lat="48.60787" lon="-1.80882">
        <ele>6</ele>
        <time>2017-01-15T21:19:29Z</time>
      </trkpt>
      <trkpt lat="48.60788" lon="-1.80896">
        <ele>6</ele>
        <time>2017-01-15T21:21:29Z</time>
      </trkpt>
      <trkpt lat="48.6079" lon="-1.80908">
        <ele>6</ele>
        <time>2017-01-15T21:23:29Z</time>
      </trkpt>
      <trkpt lat="48.60795" lon="-1.80951">
        <ele>6</ele>
        <time>2017-01-15T21:25:29Z</time>
      </trkpt>
      <trkpt lat="48.60797" lon="-1.80966">
        <ele>6</ele>
        <time>2017-01-15T21:27:29Z</time>
      </trkpt>
      <trkpt lat="48.60799" lon="-1.8098">
        <ele>6</ele>
        <time>2017-01-15T21:29:29Z</time>
      </trkpt>
      <trkpt lat="48.608" lon="-1.80994">
        <ele>6</ele>
        <time>2017-01-15T21:31:29Z</time>
      </trkpt>
      <trkpt lat="48.60805" lon="-1.81022">
        <ele>6</ele>
        <time>2017-01-15T21:33:29Z</time>
      </trkpt>
      <trkpt lat="48.60812" lon="-1.81081">
        <ele>6</ele>
        <time>2017-01-15T21:35:29Z</time>
      </trkpt>
      <trkpt lat="48.60814" lon="-1.81095">
        <ele>6</ele>
        <time>2017-01-15T21:37:29Z</time>
      </trkpt>
      <trkpt lat="48.60817" lon="-1.81108">
        <ele>6</ele>
        <time>2017-01-15T21:39:29Z</time>
      </trkpt>
      <trkpt lat="48.6082" lon="-1.81122">
        <ele>6</ele>
        <time>2017-01-15T21:41:29Z</time>
      </trkpt>
      <trkpt lat="48.60823" lon="-1.81138">
        <ele>6</ele>
        <time>2017-01-15T21:43:29Z</time>
      </trkpt>
      <trkpt lat="48.60825" lon="-1.81167">
        <ele>5</ele>
        <time>2017-01-15T21:45:29Z</time>
      </trkpt>
      <trkpt lat="48.60831" lon="-1.8118">
        <ele>5</ele>
        <time>2017-01-15T21:47:29Z</time>
      </trkpt>
      <trkpt lat="48.60836" lon="-1.81212">
        <ele>4</ele>
        <time>2017-01-15T21:49:29Z</time>
      </trkpt>
      <trkpt lat="48.60839" lon="-1.81228">
        <ele>4</ele>
        <time>2017-01-15T21:51:29Z</time>
      </trkpt>
      <trkpt lat="48.60839" lon="-1.81245">
        <ele>4</ele>
        <time>2017-01-15T21:53:29Z</time>
      </trkpt>
      <trkpt lat="48.60842" lon="-1.81274">
        <ele>4</ele>
        <time>2017-01-15T21:55:29Z</time>
      </trkpt>
      <trkpt lat="48.60844" lon="-1.81289">
        <ele>4</ele>
        <time>2017-01-15T21:57:29Z</time>
      </trkpt>
      <trkpt lat="48.60846" lon="-1.81302">
        <ele>5</ele>
        <time>2017-01-15T21:59:29Z</time>
      </trkpt>
      <trkpt lat="48.6085" lon="-1.81315">
        <ele>5</ele>
        <time>2017-01-15T22:01:29Z</time>
      </trkpt>
      <trkpt lat="48.60853" lon="-1.8133">
        <ele>5</ele>
        <time>2017-01-15T22:03:29Z</time>
      </trkpt>
      <trkpt lat="48.60854" lon="-1.81346">
        <ele>5</ele>
        <time>2017-01-15T22:05:29Z</time>
      </trkpt>
      <trkpt lat="48.60859" lon="-1.81375">
        <ele>6</ele>
        <time>2017-01-15T22:07:29Z</time>
      </trkpt>
      <trkpt lat="48.60863" lon="-1.81422">
        <ele>6</ele>
        <time>2017-01-15T22:09:29Z</time>
      </trkpt>
      <trkpt lat="48.60864" lon="-1.81435">
        <ele>6</ele>
        <time>2017-01-15T22:11:29Z</time>
      </trkpt>
      <trkpt lat="48.60864" lon="-1.81451">
        <ele>6</ele>
        <time>2017-01-15T22:13:29Z</time>
      </trkpt>
      <trkpt lat="48.60866" lon="-1.81465">
        <ele>5</ele>
        <time>2017-01-15T22:15:29Z</time>
      </trkpt>
      <trkpt lat="48.60868" lon="-1.81477">
        <ele>5</ele>
        <time>2017-01-15T22:17:29Z</time>
      </trkpt>
      <trkpt lat="48.60872" lon="-1.81491">
        <ele>5</ele>
        <time>2017-01-15T22:19:29Z</time>
      </trkpt>
      <trkpt lat="48.60874" lon="-1.81519">
        <ele>5</ele>
        <time>2017-01-15T22:21:29Z</time>
      </trkpt>
      <trkpt lat="48.60878" lon="-1.81534">
        <ele>5</ele>
        <time>2017-01-15T22:23:29Z</time>
      </trkpt>
      <trkpt lat="48.60882" lon="-1.81547">
        <ele>5</ele>
        <time>2017-01-15T22:25:29Z</time>
      </trkpt>
      <trkpt lat="48.60885" lon="-1.81561">
        <ele>5</ele>
        <time>2017-01-15T22:27:29Z</time>
      </trkpt>
      <trkpt lat="48.60887" lon="-1.81575">
        <ele>5</ele>
        <time>2017-01-15T22:29:29Z</time>
      </trkpt>
      <trkpt lat="48.60887" lon="-1.8159">
        <ele>5</ele>
        <time>2017-01-15T22:31:29Z</time>
      </trkpt>
      <trkpt lat="48.6089" lon="-1.81603">
        <ele>6</ele>
        <time>2017-01-15T22:33:29Z</time>
      </trkpt>
      <trkpt lat="48.60893" lon="-1.81616">
        <ele>6</ele>
        <time>2017-01-15T22:35:29Z</time>
      </trkpt>
      <trkpt lat="48.60897" lon="-1.81629">
        <ele>6</ele>
        <time>2017-01-15T22:37:29Z</time>
      </trkpt>
      <trkpt lat="48.60901" lon="-1.81657">
        <ele>7</ele>
        <time>2017-01-15T22:39:29Z</time>
      </trkpt>
      <trkpt lat="48.60904" lon="-1.81671">
        <ele>7</ele>
        <time>2017-01-15T22:41:29Z</time>
      </trkpt>
      <trkpt lat="48.60908" lon="-1.81687">
        <ele>7</ele>
        <time>2017-01-15T22:43:29Z</time>
      </trkpt>
      <trkpt lat="48.6091" lon="-1.81702">
        <ele>7</ele>
        <time>2017-01-15T22:45:29Z</time>
      </trkpt>
      <trkpt lat="48.60918" lon="-1.81727">
        <ele>6</ele>
        <time>2017-01-15T22:47:29Z</time>
      </trkpt>
      <trkpt lat="48.60922" lon="-1.81741">
        <ele>6</ele>
        <time>2017-01-15T22:49:29Z</time>
      </trkpt>
      <trkpt lat="48.60925" lon="-1.81757">
        <ele>5</ele>
        <time>2017-01-15T22:51:29Z</time>
      </trkpt>
      <trkpt lat="48.60928" lon="-1.81772">
        <ele>5</ele>
        <time>2017-01-15T22:53:29Z</time>
      </trkpt>
      <trkpt lat="48.60934" lon="-1.81798">
        <ele>5</ele>
        <time>2017-01-15T22:55:29Z</time>
      </trkpt>
      <trkpt lat="48.60937" lon="-1.81813">
        <ele>5</ele>
        <time>2017-01-15T22:57:29Z</time>
      </trkpt>
      <trkpt lat="48.6094" lon="-1.81827">
        <ele>5</ele>
        <time>2017-01-15T22:59:29Z</time>
      </trkpt>
      <trkpt lat="48.60945" lon="-1.81841">
        <ele>5</ele>
        <time>2017-01-15T23:01:29Z</time>
      </trkpt>
      <trkpt lat="48.60946" lon="-1.81854">
        <ele>5</ele>
        <time>2017-01-15T23:03:29Z</time>
      </trkpt>
      <trkpt lat="48.6095" lon="-1.81868">
        <ele>4</ele>
        <time>2017-01-15T23:05:29Z</time>
      </trkpt>
      <trkpt lat="48.60955" lon="-1.81898">
        <ele>4</ele>
        <time>2017-01-15T23:07:29Z</time>
      </trkpt>
      <trkpt lat="48.60958" lon="-1.81913">
        <ele>4</ele>
        <time>2017-01-15T23:09:29Z</time>
      </trkpt>
      <trkpt lat="48.60961" lon="-1.81926">
        <ele>4</ele>
        <time>2017-01-15T23:11:29Z</time>
      </trkpt>
      <trkpt lat="48.60962" lon="-1.81941">
        <ele>4</ele>
        <time>2017-01-15T23:13:29Z</time>
      </trkpt>
      <trkpt lat="48.60963" lon="-1.81958">
        <ele>5</ele>
        <time>2017-01-15T23:15:29Z</time>
      </trkpt>
      <trkpt lat="48.60964" lon="-1.81971">
        <ele>6</ele>
        <time>2017-01-15T23:17:29Z</time>
      </trkpt>
      <trkpt lat="48.60966" lon="-1.81986">
        <ele>7</ele>
        <time>2017-01-15T23:19:29Z</time>
      </trkpt>
      <trkpt lat="48.60968" lon="-1.81999">
        <ele>7</ele>
        <time>2017-01-15T23:21:29Z</time>
      </trkpt>
      <trkpt lat="48.60968" lon="-1.82013">
        <ele>7</ele>
        <time>2017-01-15T23:23:29Z</time>
      </trkpt>
      <trkpt lat="48.60971" lon="-1.82028">
        <ele>8</ele>
        <time>2017-01-15T23:25:29Z</time>
      </trkpt>
      <trkpt lat="48.60974" lon="-1.82042">
        <ele>8</ele>
        <time>2017-01-15T23:27:29Z</time>
      </trkpt>
      <trkpt lat="48.60977" lon="-1.82057">
        <ele>8</ele>
        <time>2017-01-15T23:29:29Z</time>
      </trkpt>
      <trkpt lat="48.6098" lon="-1.82071">
        <ele>8</ele>
        <time>2017-01-15T23:31:29Z</time>
      </trkpt>
      <trkpt lat="48.60981" lon="-1.82085">
        <ele>8</ele>
        <time>2017-01-15T23:33:29Z</time>
      </trkpt>
      <trkpt lat="48.60983" lon="-1.82099">
        <ele>8</ele>
        <time>2017-01-15T23:35:29Z</time>
      </trkpt>
      <trkpt lat="48.60987" lon="-1.82112">
        <ele>7</ele>
        <time>2017-01-15T23:37:29Z</time>
      </trkpt>
      <trkpt lat="48.60989" lon="-1.82127">
        <ele>7</ele>
        <time>2017-01-15T23:39:29Z</time>
      </trkpt>
      <trkpt lat="48.60992" lon="-1.82141">
        <ele>7</ele>
        <time>2017-01-15T23:41:29Z</time>
      </trkpt>
      <trkpt lat="48.60995" lon="-1.82156">
        <ele>6</ele>
        <time>2017-01-15T23:43:29Z</time>
      </trkpt>
      <trkpt lat="48.60999" lon="-1.82172">
        <ele>6</ele>
        <time>2017-01-15T23:45:29Z</time>
      </trkpt>
      <trkpt lat="48.61003" lon="-1.82186">
        <ele>6</ele>
        <time>2017-01-15T23:47:29Z</time>
      </trkpt>
      <trkpt lat="48.61006" lon="-1.82199">
        <ele>6</ele>
        <time>2017-01-15T23:49:29Z</time>
      </trkpt>
      <trkpt lat="48.61009" lon="-1.82216">
        <ele>6</ele>
        <time>2017-01-15T23:51:29Z</time>
      </trkpt>
      <trkpt lat="48.61011" lon="-1.82233">
        <ele>6</ele>
        <time>2017-01-15T23:53:29Z</time>
      </trkpt>
      <trkpt lat="48.61014" lon="-1.82249">
        <ele>6</ele>
        <time>2017-01-15T23:55:29Z</time>
      </trkpt>
      <trkpt lat="48.6102" lon="-1.8228">
        <ele>6</ele>
        <time>2017-01-15T23:57:29Z</time>
      </trkpt>
      <trkpt lat="48.61024" lon="-1.82312">
        <ele>6</ele>
        <time>2017-01-15T23:59:29Z</time>
      </trkpt>
      <trkpt lat="48.61027" lon="-1.82327">
        <ele>6</ele>
        <time>2017-01-16T00:01:29Z</time>
      </trkpt>
      <trkpt lat="48.61031" lon="-1.82342">
        <ele>6</ele>
        <time>2017-01-16T00:03:29Z</time>
      </trkpt>
      <trkpt lat="48.61033" lon="-1.82356">
        <ele>6</ele>
        <time>2017-01-16T00:05:29Z</time>
      </trkpt>
      <trkpt lat="48.61036" lon="-1.82368">
        <ele>6</ele>
        <time>2017-01-16T00:07:29Z</time>
      </trkpt>
      <trkpt lat="48.61039" lon="-1.82385">
        <ele>6</ele>
        <time>2017-01-16T00:09:29Z</time>
      </trkpt>
      <trkpt lat="48.61043" lon="-1.82401">
        <ele>6</ele>
        <time>2017-01-16T00:11:29Z</time>
      </trkpt>
      <trkpt lat="48.61049" lon="-1.82433">
        <ele>5</ele>
        <time>2017-01-16T00:13:29Z</time>
      </trkpt>
      <trkpt lat="48.6105" lon="-1.8245">
        <ele>6</ele>
        <time>2017-01-16T00:15:29Z</time>
      </trkpt>
      <trkpt lat="48.61054" lon="-1.82465">
        <ele>6</ele>
        <time>2017-01-16T00:17:29Z</time>
      </trkpt>
      <trkpt lat="48.61057" lon="-1.82481">
        <ele>6</ele>
        <time>2017-01-16T00:19:29Z</time>
      </trkpt>
      <trkpt lat="48.61061" lon="-1.82496">
        <ele>6</ele>
        <time>2017-01-16T00:21:29Z</time>
      </trkpt>
      <trkpt lat="48.61064" lon="-1.82511">
        <ele>5</ele>
        <time>2017-01-16T00:23:29Z</time>
      </trkpt>
      <trkpt lat="48.61066" lon="-1.82524">
        <ele>5</ele>
        <time>2017-01-16T00:25:29Z</time>
      </trkpt>
      <trkpt lat="48.61069" lon="-1.82536">
        <ele>5</ele>
        <time>2017-01-16T00:27:29Z</time>
      </trkpt>
      <trkpt lat="48.61075" lon="-1.82549">
        <ele>5</ele>
        <time>2017-01-16T00:29:29Z</time>
      </trkpt>
      <trkpt lat="48.61085" lon="-1.82554">
        <ele>5</ele>
        <time>2017-01-16T00:31:29Z</time>
      </trkpt>
      <trkpt lat="48.61092" lon="-1.8256">
        <ele>5</ele>
        <time>2017-01-16T00:33:29Z</time>
      </trkpt>
      <trkpt lat="48.61115" lon="-1.8259">
        <ele>5</ele>
        <time>2017-01-16T00:35:29Z</time>
      </trkpt>
      <trkpt lat="48.6112" lon="-1.82602">
        <ele>5</ele>
        <time>2017-01-16T00:37:29Z</time>
      </trkpt>
      <trkpt lat="48.61125" lon="-1.82617">
        <ele>5</ele>
        <time>2017-01-16T00:39:29Z</time>
      </trkpt>
      <trkpt lat="48.61128" lon="-1.82647">
        <ele>6</ele>
        <time>2017-01-16T00:41:29Z</time>
      </trkpt>
      <trkpt lat="48.61134" lon="-1.82676">
        <ele>5</ele>
        <time>2017-01-16T00:43:29Z</time>
      </trkpt>
      <trkpt lat="48.61138" lon="-1.82703">
        <ele>5</ele>
        <time>2017-01-16T00:45:29Z</time>
      </trkpt>
      <trkpt lat="48.61142" lon="-1.82716">
        <ele>5</ele>
        <time>2017-01-16T00:47:29Z</time>
      </trkpt>
      <trkpt lat="48.61145" lon="-1.8273">
        <ele>5</ele>
        <time>2017-01-16T00:49:29Z</time>
      </trkpt>
      <trkpt lat="48.61149" lon="-1.82742">
        <ele>4</ele>
        <time>2017-01-16T00:51:29Z</time>
      </trkpt>
      <trkpt lat="48.61152" lon="-1.82757">
        <ele>4</ele>
        <time>2017-01-16T00:53:29Z</time>
      </trkpt>
      <trkpt lat="48.61154" lon="-1.8277">
        <ele>4</ele>
        <time>2017-01-16T00:55:29Z</time>
      </trkpt>
      <trkpt lat="48.61157" lon="-1.82783">
        <ele>5</ele>
        <time>2017-01-16T00:57:29Z</time>
      </trkpt>
      <trkpt lat="48.6116" lon="-1.82797">
        <ele>5</ele>
        <time>2017-01-16T00:59:29Z</time>
      </trkpt>
      <trkpt lat="48.61163" lon="-1.82812">
        <ele>5</ele>
        <time>2017-01-16T01:01:29Z</time>
      </trkpt>
      <trkpt lat="48.61167" lon="-1.82828">
        <ele>5</ele>
        <time>2017-01-16T01:03:29Z</time>
      </trkpt>
      <trkpt lat="48.61169" lon="-1.82842">
        <ele>5</ele>
        <time>2017-01-16T01:05:29Z</time>
      </trkpt>
      <trkpt lat="48.61172" lon="-1.82855">
        <ele>5</ele>
        <time>2017-01-16T01:07:29Z</time>
      </trkpt>
      <trkpt lat="48.61175" lon="-1.82868">
        <ele>4</ele>
        <time>2017-01-16T01:09:29Z</time>
      </trkpt>
      <trkpt lat="48.61177" lon="-1.82883">
        <ele>4</ele>
        <time>2017-01-16T01:11:29Z</time>
      </trkpt>
      <trkpt lat="48.61179" lon="-1.82897">
        <ele>4</ele>
        <time>2017-01-16T01:13:29Z</time>
      </trkpt>
      <trkpt lat="48.61181" lon="-1.82912">
        <ele>4</ele>
        <time>2017-01-16T01:15:29Z</time>
      </trkpt>
      <trkpt lat="48.61184" lon="-1.82925">
        <ele>4</ele>
        <time>2017-01-16T01:17:29Z</time>
      </trkpt>
      <trkpt lat="48.61187" lon="-1.82941">
        <ele>5</ele>
        <time>2017-01-16T01:19:29Z</time>
      </trkpt>
      <trkpt lat="48.61193" lon="-1.82953">
        <ele>5</ele>
        <time>2017-01-16T01:21:29Z</time>
      </trkpt>
      <trkpt lat="48.61193" lon="-1.82951">
        <ele>5</ele>
        <time>2017-01-16T01:23:29Z</time>
      </trkpt>
      <trkpt lat="48.61193" lon="-1.82951">
        <ele>5</ele>
        <time>2017-01-16T01:25:29Z</time>
      </trkpt>
      <trkpt lat="48.61195" lon="-1.82966">
        <ele>5</ele>
        <time>2017-01-16T01:27:29Z</time>
      </trkpt>
      <trkpt lat="48.61193" lon="-1.8298">
        <ele>5</ele>
        <time>2017-01-16T01:29:29Z</time>
      </trkpt>
      <trkpt lat="48.61195" lon="-1.82996">
        <ele>6</ele>
        <time>2017-01-16T01:31:29Z</time>
      </trkpt>
      <trkpt lat="48.61196" lon="-1.83011">
        <ele>6</ele>
        <time>2017-01-16T01:33:29Z</time>
      </trkpt>
      <trkpt lat="48.61198" lon="-1.83025">
        <ele>6</ele>
        <time>2017-01-16T01:35:29Z</time>
      </trkpt>
      <trkpt lat="48.61202" lon="-1.83039">
        <ele>6</ele>
        <time>2017-01-16T01:37:29Z</time>
      </trkpt>
      <trkpt lat="48.61204" lon="-1.83052">
        <ele>6</ele>
        <time>2017-01-16T01:39:29Z</time>
      </trkpt>
      <trkpt lat="48.61209" lon="-1.83066">
        <ele>6</ele>
        <time>2017-01-16T01:41:29Z</time>
      </trkpt>
      <trkpt lat="48.61212" lon="-1.83079">
        <ele>6</ele>
        <time>2017-01-16T01:43:29Z</time>
      </trkpt>
      <trkpt lat="48.61216" lon="-1.83093">
        <ele>6</ele>
        <time>2017-01-16T01:45:29Z</time>
      </trkpt>
      <trkpt lat="48.6122" lon="-1.83105">
        <ele>6</ele>
        <time>2017-01-16T01:47:29Z</time>
      </trkpt>
      <trkpt lat="48.61227" lon="-1.8313">
        <ele>6</ele>
        <time>2017-01-16T01:49:29Z</time>
      </trkpt>
      <trkpt lat="48.61231" lon="-1.83143">
        <ele>5</ele>
        <time>2017-01-16T01:51:29Z</time>
      </trkpt>
      <trkpt lat="48.61235" lon="-1.83158">
        <ele>5</ele>
        <time>2017-01-16T01:53:29Z</time>
      </trkpt>
      <trkpt lat="48.61237" lon="-1.83174">
        <ele>5</ele>
        <time>2017-01-16T01:55:29Z</time>
      </trkpt>
      <trkpt lat="48.61238" lon="-1.83189">
        <ele>4</ele>
        <time>2017-01-16T01:57:29Z</time>
      </trkpt>
      <trkpt lat="48.61243" lon="-1.83221">
        <ele>2</ele>
        <time>2017-01-16T01:59:29Z</time>
      </trkpt>
      <trkpt lat="48.61246" lon="-1.83236">
        <ele>1</ele>
        <time>2017-01-16T02:01:29Z</time>
      </trkpt>
      <trkpt lat="48.61248" lon="-1.8325">
        <ele>8</ele>
        <time>2017-01-16T02:03:29Z</time>
      </trkpt>
      <trkpt lat="48.61255" lon="-1.83277">
        <ele>7.8</ele>
        <time>2017-01-16T02:05:29Z</time>
      </trkpt>
      <trkpt lat="48.6126" lon="-1.83305">
        <ele>7.6</ele>
        <time>2017-01-16T02:07:29Z</time>
      </trkpt>
      <trkpt lat="48.61263" lon="-1.83317">
        <ele>7.7</ele>
        <time>2017-01-16T02:09:29Z</time>
      </trkpt>
      <trkpt lat="48.61266" lon="-1.8333">
        <ele>7.9</ele>
        <time>2017-01-16T02:11:29Z</time>
      </trkpt>
      <trkpt lat="48.61269" lon="-1.83344">
        <ele>8</ele>
        <time>2017-01-16T02:13:29Z</time>
      </trkpt>
      <trkpt lat="48.61273" lon="-1.83357">
        <ele>1</ele>
        <time>2017-01-16T02:15:29Z</time>
      </trkpt>
      <trkpt lat="48.61276" lon="-1.83371">
        <ele>1</ele>
        <time>2017-01-16T02:17:29Z</time>
      </trkpt>
      <trkpt lat="48.6128" lon="-1.83383">
        <ele>1</ele>
        <time>2017-01-16T02:19:29Z</time>
      </trkpt>
      <trkpt lat="48.61284" lon="-1.83395">
        <ele>1</ele>
        <time>2017-01-16T02:21:29Z</time>
      </trkpt>
      <trkpt lat="48.61285" lon="-1.83409">
        <ele>2</ele>
        <time>2017-01-16T02:23:29Z</time>
      </trkpt>
      <trkpt lat="48.61289" lon="-1.83423">
        <ele>2</ele>
        <time>2017-01-16T02:25:29Z</time>
      </trkpt>
      <trkpt lat="48.6129" lon="-1.83438">
        <ele>2</ele>
        <time>2017-01-16T02:27:29Z</time>
      </trkpt>
      <trkpt lat="48.6129" lon="-1.83453">
        <ele>2</ele>
        <time>2017-01-16T02:29:29Z</time>
      </trkpt>
      <trkpt lat="48.61289" lon="-1.83468">
        <ele>2</ele>
        <time>2017-01-16T02:31:29Z</time>
      </trkpt>
      <trkpt lat="48.61288" lon="-1.83483">
        <ele>2</ele>
        <time>2017-01-16T02:33:29Z</time>
      </trkpt>
      <trkpt lat="48.61289" lon="-1.83499">
        <ele>2</ele>
        <time>2017-01-16T02:35:29Z</time>
      </trkpt>
      <trkpt lat="48.61292" lon="-1.83513">
        <ele>2</ele>
        <time>2017-01-16T02:37:29Z</time>
      </trkpt>
      <trkpt lat="48.61295" lon="-1.83528">
        <ele>2</ele>
        <time>2017-01-16T02:39:29Z</time>
      </trkpt>
      <trkpt lat="48.61297" lon="-1.83544">
        <ele>2</ele>
        <time>2017-01-16T02:41:29Z</time>
      </trkpt>
      <trkpt lat="48.61301" lon="-1.83557">
        <ele>2</ele>
        <time>2017-01-16T02:43:29Z</time>
      </trkpt>
      <trkpt lat="48.6131" lon="-1.836">
        <ele>2</ele>
        <time>2017-01-16T02:45:29Z</time>
      </trkpt>
      <trkpt lat="48.61313" lon="-1.83624">
        <ele>3</ele>
        <time>2017-01-16T02:47:29Z</time>
      </trkpt>
      <trkpt lat="48.61315" lon="-1.83637">
        <ele>4</ele>
        <time>2017-01-16T02:49:29Z</time>
      </trkpt>
      <trkpt lat="48.61317" lon="-1.83652">
        <ele>5</ele>
        <time>2017-01-16T02:51:29Z</time>
      </trkpt>
      <trkpt lat="48.61321" lon="-1.83682">
        <ele>6</ele>
        <time>2017-01-16T02:53:29Z</time>
      </trkpt>
      <trkpt lat="48.61322" lon="-1.83696">
        <ele>6</ele>
        <time>2017-01-16T02:55:29Z</time>
      </trkpt>
      <trkpt lat="48.61326" lon="-1.83711">
        <ele>6</ele>
        <time>2017-01-16T02:57:29Z</time>
      </trkpt>
      <trkpt lat="48.61329" lon="-1.83725">
        <ele>6</ele>
        <time>2017-01-16T02:59:29Z</time>
      </trkpt>
      <trkpt lat="48.61332" lon="-1.83739">
        <ele>7</ele>
        <time>2017-01-16T03:01:29Z</time>
      </trkpt>
      <trkpt lat="48.61335" lon="-1.83754">
        <ele>7</ele>
        <time>2017-01-16T03:03:29Z</time>
      </trkpt>
      <trkpt lat="48.61338" lon="-1.83767">
        <ele>7</ele>
        <time>2017-01-16T03:05:29Z</time>
      </trkpt>
      <trkpt lat="48.61341" lon="-1.83779">
        <ele>7</ele>
        <time>2017-01-16T03:07:29Z</time>
      </trkpt>
      <trkpt lat="48.61345" lon="-1.83793">
        <ele>7</ele>
        <time>2017-01-16T03:09:29Z</time>
      </trkpt>
      <trkpt lat="48.61348" lon="-1.83808">
        <ele>7</ele>
        <time>2017-01-16T03:11:29Z</time>
      </trkpt>
      <trkpt lat="48.61351" lon="-1.83824">
        <ele>7</ele>
        <time>2017-01-16T03:13:29Z</time>
      </trkpt>
      <trkpt lat="48.61356" lon="-1.83837">
        <ele>7</ele>
        <time>2017-01-16T03:15:29Z</time>
      </trkpt>
      <trkpt lat="48.6136" lon="-1.8385">
        <ele>7</ele>
        <time>2017-01-16T03:17:29Z</time>
      </trkpt>
      <trkpt lat="48.61368" lon="-1.83872">
        <ele>7</ele>
        <time>2017-01-16T03:19:29Z</time>
      </trkpt>
      <trkpt lat="48.61371" lon="-1.83887">
        <ele>7</ele>
        <time>2017-01-16T03:21:29Z</time>
      </trkpt>
      <trkpt lat="48.61378" lon="-1.83898">
        <ele>7</ele>
        <time>2017-01-16T03:23:29Z</time>
      </trkpt>
      <trkpt lat="48.61382" lon="-1.8391">
        <ele>7</ele>
        <time>2017-01-16T03:25:29Z</time>
      </trkpt>
      <trkpt lat="48.61386" lon="-1.83918">
        <ele>7</ele>
        <time>2017-01-16T03:27:29Z</time>
      </trkpt>
      <trkpt lat="48.6139" lon="-1.8393">
        <ele>7</ele>
        <time>2017-01-16T03:29:29Z</time>
      </trkpt>
      <trkpt lat="48.61394" lon="-1.83943">
        <ele>7</ele>
        <time>2017-01-16T03:31:29Z</time>
      </trkpt>
      <trkpt lat="48.61397" lon="-1.83955">
        <ele>7</ele>
        <time>2017-01-16T03:33:29Z</time>
      </trkpt>
      <trkpt lat="48.61399" lon="-1.83969">
        <ele>7</ele>
        <time>2017-01-16T03:35:29Z</time>
      </trkpt>
      <trkpt lat="48.61403" lon="-1.83983">
        <ele>6</ele>
        <time>2017-01-16T03:37:29Z</time>
      </trkpt>
      <trkpt lat="48.61405" lon="-1.83996">
        <ele>6</ele>
        <time>2017-01-16T03:39:29Z</time>
      </trkpt>
      <trkpt lat="48.61401" lon="-1.84009">
        <ele>6</ele>
        <time>2017-01-16T03:41:29Z</time>
      </trkpt>
      <trkpt lat="48.61401" lon="-1.84024">
        <ele>7</ele>
        <time>2017-01-16T03:43:29Z</time>
      </trkpt>
      <trkpt lat="48.61405" lon="-1.84039">
        <ele>7</ele>
        <time>2017-01-16T03:45:29Z</time>
      </trkpt>
      <trkpt lat="48.61411" lon="-1.84051">
        <ele>7</ele>
        <time>2017-01-16T03:47:29Z</time>
      </trkpt>
      <trkpt lat="48.61422" lon="-1.84077">
        <ele>7</ele>
        <time>2017-01-16T03:49:29Z</time>
      </trkpt>
      <trkpt lat="48.61428" lon="-1.84089">
        <ele>7</ele>
        <time>2017-01-16T03:51:29Z</time>
      </trkpt>
      <trkpt lat="48.61432" lon="-1.84102">
        <ele>7</ele>
        <time>2017-01-16T03:53:29Z</time>
      </trkpt>
      <trkpt lat="48.61442" lon="-1.84127">
        <ele>7</ele>
        <time>2017-01-16T03:55:29Z</time>
      </trkpt>
      <trkpt lat="48.61455" lon="-1.84151">
        <ele>6</ele>
        <time>2017-01-16T03:57:29Z</time>
      </trkpt>
      <trkpt lat="48.61461" lon="-1.84163">
        <ele>6</ele>
        <time>2017-01-16T03:59:29Z</time>
      </trkpt>
      <trkpt lat="48.61466" lon="-1.84176">
        <ele>6</ele>
        <time>2017-01-16T04:01:29Z</time>
      </trkpt>
      <trkpt lat="48.61471" lon="-1.8419">
        <ele>7</ele>
        <time>2017-01-16T04:03:29Z</time>
      </trkpt>
      <trkpt lat="48.61474" lon="-1.84204">
        <ele>7</ele>
        <time>2017-01-16T04:05:29Z</time>
      </trkpt>
      <trkpt lat="48.6148" lon="-1.84218">
        <ele>7</ele>
        <time>2017-01-16T04:07:29Z</time>
      </trkpt>
      <trkpt lat="48.61484" lon="-1.84231">
        <ele>7</ele>
        <time>2017-01-16T04:09:29Z</time>
      </trkpt>
      <trkpt lat="48.61487" lon="-1.84245">
        <ele>7</ele>
        <time>2017-01-16T04:11:29Z</time>
      </trkpt>
      <trkpt lat="48.61497" lon="-1.84288">
        <ele>7</ele>
        <time>2017-01-16T04:13:29Z</time>
      </trkpt>
      <trkpt lat="48.61505" lon="-1.84318">
        <ele>6</ele>
        <time>2017-01-16T04:15:29Z</time>
      </trkpt>
      <trkpt lat="48.61511" lon="-1.8433">
        <ele>6</ele>
        <time>2017-01-16T04:17:29Z</time>
      </trkpt>
      <trkpt lat="48.61511" lon="-1.84345">
        <ele>6</ele>
        <time>2017-01-16T04:19:29Z</time>
      </trkpt>
      <trkpt lat="48.61508" lon="-1.84358">
        <ele>6</ele>
        <time>2017-01-16T04:21:29Z</time>
      </trkpt>
      <trkpt lat="48.61516" lon="-1.84369">
        <ele>6</ele>
        <time>2017-01-16T04:23:29Z</time>
      </trkpt>
      <trkpt lat="48.61524" lon="-1.84381">
        <ele>6</ele>
        <time>2017-01-16T04:25:29Z</time>
      </trkpt>
      <trkpt lat="48.61537" lon="-1.84402">
        <ele>6</ele>
        <time>2017-01-16T04:27:29Z</time>
      </trkpt>
      <trkpt lat="48.61552" lon="-1.84423">
        <ele>5</ele>
        <time>2017-01-16T04:29:29Z</time>
      </trkpt>
      <trkpt lat="48.61566" lon="-1.84446">
        <ele>5</ele>
        <time>2017-01-16T04:31:29Z</time>
      </trkpt>
      <trkpt lat="48.61573" lon="-1.84455">
        <ele>6</ele>
        <time>2017-01-16T04:33:29Z</time>
      </trkpt>
      <trkpt lat="48.61586" lon="-1.84475">
        <ele>6</ele>
        <time>2017-01-16T04:35:29Z</time>
      </trkpt>
      <trkpt lat="48.616" lon="-1.84496">
        <ele>6</ele>
        <time>2017-01-16T04:37:29Z</time>
      </trkpt>
      <trkpt lat="48.61608" lon="-1.84508">
        <ele>6</ele>
        <time>2017-01-16T04:39:29Z</time>
      </trkpt>
      <trkpt lat="48.61615" lon="-1.84519">
        <ele>6</ele>
        <time>2017-01-16T04:41:29Z</time>
      </trkpt>
      <trkpt lat="48.61627" lon="-1.8454">
        <ele>6</ele>
        <time>2017-01-16T04:43:29Z</time>
      </trkpt>
      <trkpt lat="48.61632" lon="-1.84552">
        <ele>6</ele>
        <time>2017-01-16T04:45:29Z</time>
      </trkpt>
      <trkpt lat="48.61639" lon="-1.84563">
        <ele>6</ele>
        <time>2017-01-16T04:47:29Z</time>
      </trkpt>
      <trkpt lat="48.61647" lon="-1.84571">
        <ele>6</ele>
        <time>2017-01-16T04:49:29Z</time>
      </trkpt>
      <trkpt lat="48.61653" lon="-1.84581">
        <ele>6</ele>
        <time>2017-01-16T04:51:29Z</time>
      </trkpt>
      <trkpt lat="48.61681" lon="-1.84626">
        <ele>6</ele>
        <time>2017-01-16T04:53:29Z</time>
      </trkpt>
      <trkpt lat="48.61688" lon="-1.84637">
        <ele>6</ele>
        <time>2017-01-16T04:55:29Z</time>
      </trkpt>
      <trkpt lat="48.61696" lon="-1.84648">
        <ele>6</ele>
        <time>2017-01-16T04:57:29Z</time>
      </trkpt>
      <trkpt lat="48.61703" lon="-1.8466">
        <ele>6</ele>
        <time>2017-01-16T04:59:29Z</time>
      </trkpt>
      <trkpt lat="48.6171" lon="-1.8467">
        <ele>5</ele>
        <time>2017-01-16T05:01:29Z</time>
      </trkpt>
      <trkpt lat="48.61716" lon="-1.8468">
        <ele>5</ele>
        <time>2017-01-16T05:03:29Z</time>
      </trkpt>
      <trkpt lat="48.61723" lon="-1.8469">
        <ele>5</ele>
        <time>2017-01-16T05:05:29Z</time>
      </trkpt>
      <trkpt lat="48.61734" lon="-1.84709">
        <ele>5</ele>
        <time>2017-01-16T05:07:29Z</time>
      </trkpt>
      <trkpt lat="48.61739" lon="-1.84722">
        <ele>6</ele>
        <time>2017-01-16T05:09:29Z</time>
      </trkpt>
      <trkpt lat="48.61746" lon="-1.84735">
        <ele>6</ele>
        <time>2017-01-16T05:11:29Z</time>
      </trkpt>
      <trkpt lat="48.61762" lon="-1.84758">
        <ele>6</ele>
        <time>2017-01-16T05:13:29Z</time>
      </trkpt>
      <trkpt lat="48.61784" lon="-1.84788">
        <ele>6</ele>
        <time>2017-01-16T05:15:29Z</time>
      </trkpt>
      <trkpt lat="48.61791" lon="-1.848">
        <ele>6</ele>
        <time>2017-01-16T05:17:29Z</time>
      </trkpt>
      <trkpt lat="48.61797" lon="-1.84811">
        <ele>7</ele>
        <time>2017-01-16T05:19:29Z</time>
      </trkpt>
      <trkpt lat="48.61804" lon="-1.84823">
        <ele>7</ele>
        <time>2017-01-16T05:21:29Z</time>
      </trkpt>
      <trkpt lat="48.61812" lon="-1.84839">
        <ele>7</ele>
        <time>2017-01-16T05:23:29Z</time>
      </trkpt>
      <trkpt lat="48.61822" lon="-1.84852">
        <ele>7</ele>
        <time>2017-01-16T05:25:29Z</time>
      </trkpt>
      <trkpt lat="48.61829" lon="-1.84864">
        <ele>8</ele>
        <time>2017-01-16T05:27:29Z</time>
      </trkpt>
      <trkpt lat="48.61837" lon="-1.84875">
        <ele>8</ele>
        <time>2017-01-16T05:29:29Z</time>
      </trkpt>
      <trkpt lat="48.61844" lon="-1.84888">
        <ele>8</ele>
        <time>2017-01-16T05:31:29Z</time>
      </trkpt>
      <trkpt lat="48.61847" lon="-1.849">
        <ele>8</ele>
        <time>2017-01-16T05:33:29Z</time>
      </trkpt>
      <trkpt lat="48.61853" lon="-1.84913">
        <ele>8</ele>
        <time>2017-01-16T05:35:29Z</time>
      </trkpt>
      <trkpt lat="48.6186" lon="-1.84926">
        <ele>8</ele>
        <time>2017-01-16T05:37:29Z</time>
      </trkpt>
      <trkpt lat="48.61868" lon="-1.84938">
        <ele>8</ele>
        <time>2017-01-16T05:39:29Z</time>
      </trkpt>
      <trkpt lat="48.61878" lon="-1.84948">
        <ele>8</ele>
        <time>2017-01-16T05:41:29Z</time>
      </trkpt>
      <trkpt lat="48.61885" lon="-1.84959">
        <ele>8</ele>
        <time>2017-01-16T05:43:29Z</time>
      </trkpt>
      <trkpt lat="48.61901" lon="-1.84976">
        <ele>8</ele>
        <time>2017-01-16T05:45:29Z</time>
      </trkpt>
      <trkpt lat="48.61914" lon="-1.84999">
        <ele>8</ele>
        <time>2017-01-16T05:47:29Z</time>
      </trkpt>
      <trkpt lat="48.61929" lon="-1.8502">
        <ele>8</ele>
        <time>2017-01-16T05:49:29Z</time>
      </trkpt>
      <trkpt lat="48.61937" lon="-1.85031">
        <ele>8</ele>
        <time>2017-01-16T05:51:29Z</time>
      </trkpt>
      <trkpt lat="48.61943" lon="-1.85043">
        <ele>7</ele>
        <time>2017-01-16T05:53:29Z</time>
      </trkpt>
      <trkpt lat="48.61957" lon="-1.85068">
        <ele>7</ele>
        <time>2017-01-16T05:55:29Z</time>
      </trkpt>
      <trkpt lat="48.61964" lon="-1.85079">
        <ele>7</ele>
        <time>2017-01-16T05:57:29Z</time>
      </trkpt>
      <trkpt lat="48.61973" lon="-1.85083">
        <ele>7</ele>
        <time>2017-01-16T05:59:29Z</time>
      </trkpt>
      <trkpt lat="48.61982" lon="-1.85087">
        <ele>6</ele>
        <time>2017-01-16T06:01:29Z</time>
      </trkpt>
      <trkpt lat="48.6199" lon="-1.8509">
        <ele>6</ele>
        <time>2017-01-16T06:03:29Z</time>
      </trkpt>
      <trkpt lat="48.61991" lon="-1.85102">
        <ele>6</ele>
        <time>2017-01-16T06:05:29Z</time>
      </trkpt>
      <trkpt lat="48.61994" lon="-1.85116">
        <ele>6</ele>
        <time>2017-01-16T06:07:29Z</time>
      </trkpt>
      <trkpt lat="48.62" lon="-1.85126">
        <ele>7</ele>
        <time>2017-01-16T06:09:29Z</time>
      </trkpt>
      <trkpt lat="48.62006" lon="-1.85134">
        <ele>6</ele>
        <time>2017-01-16T06:11:29Z</time>
      </trkpt>
      <trkpt lat="48.62013" lon="-1.85143">
        <ele>6</ele>
        <time>2017-01-16T06:13:29Z</time>
      </trkpt>
      <trkpt lat="48.62027" lon="-1.85159">
        <ele>7</ele>
        <time>2017-01-16T06:15:29Z</time>
      </trkpt>
      <trkpt lat="48.62029" lon="-1.85163">
        <ele>7</ele>
        <time>2017-01-16T06:17:29Z</time>
      </trkpt>
      <trkpt lat="48.62032" lon="-1.85172">
        <ele>7</ele>
        <time>2017-01-16T06:19:29Z</time>
      </trkpt>
      <trkpt lat="48.6204" lon="-1.85183">
        <ele>7</ele>
        <time>2017-01-16T06:21:29Z</time>
      </trkpt>
      <trkpt lat="48.62052" lon="-1.852">
        <ele>7</ele>
        <time>2017-01-16T06:23:29Z</time>
      </trkpt>
      <trkpt lat="48.62058" lon="-1.85209">
        <ele>7</ele>
        <time>2017-01-16T06:25:29Z</time>
      </trkpt>
      <trkpt lat="48.62065" lon="-1.85219">
        <ele>7</ele>
        <time>2017-01-16T06:27:29Z</time>
      </trkpt>
      <trkpt lat="48.62071" lon="-1.85227">
        <ele>7</ele>
        <time>2017-01-16T06:29:29Z</time>
      </trkpt>
      <trkpt lat="48.62077" lon="-1.85237">
        <ele>7</ele>
        <time>2017-01-16T06:31:29Z</time>
      </trkpt>
      <trkpt lat="48.62083" lon="-1.85245">
        <ele>7</ele>
        <time>2017-01-16T06:33:29Z</time>
      </trkpt>
      <trkpt lat="48.62089" lon="-1.85256">
        <ele>7</ele>
        <time>2017-01-16T06:35:29Z</time>
      </trkpt>
      <trkpt lat="48.62105" lon="-1.85277">
        <ele>7</ele>
        <time>2017-01-16T06:37:29Z</time>
      </trkpt>
      <trkpt lat="48.62111" lon="-1.85287">
        <ele>7</ele>
        <time>2017-01-16T06:39:29Z</time>
      </trkpt>
      <trkpt lat="48.62117" lon="-1.85294">
        <ele>7</ele>
        <time>2017-01-16T06:41:29Z</time>
      </trkpt>
      <trkpt lat="48.62138" lon="-1.85328">
        <ele>7</ele>
        <time>2017-01-16T06:43:29Z</time>
      </trkpt>
      <trkpt lat="48.62145" lon="-1.85341">
        <ele>7</ele>
        <time>2017-01-16T06:45:29Z</time>
      </trkpt>
      <trkpt lat="48.62164" lon="-1.85362">
        <ele>6</ele>
        <time>2017-01-16T06:47:29Z</time>
      </trkpt>
      <trkpt lat="48.62173" lon="-1.85373">
        <ele>6</ele>
        <time>2017-01-16T06:49:29Z</time>
      </trkpt>
      <trkpt lat="48.62179" lon="-1.85385">
        <ele>7</ele>
        <time>2017-01-16T06:51:29Z</time>
      </trkpt>
      <trkpt lat="48.62192" lon="-1.85402">
        <ele>7</ele>
        <time>2017-01-16T06:53:29Z</time>
      </trkpt>
      <trkpt lat="48.62199" lon="-1.85412">
        <ele>7</ele>
        <time>2017-01-16T06:55:29Z</time>
      </trkpt>
      <trkpt lat="48.62206" lon="-1.85421">
        <ele>7</ele>
        <time>2017-01-16T06:57:29Z</time>
      </trkpt>
      <trkpt lat="48.62218" lon="-1.85437">
        <ele>7</ele>
        <time>2017-01-16T06:59:29Z</time>
      </trkpt>
      <trkpt lat="48.62224" lon="-1.85445">
        <ele>7</ele>
        <time>2017-01-16T07:01:29Z</time>
      </trkpt>
      <trkpt lat="48.62227" lon="-1.8545">
        <ele>7</ele>
        <time>2017-01-16T07:03:29Z</time>
      </trkpt>
      <trkpt lat="48.62233" lon="-1.85456">
        <ele>7</ele>
        <time>2017-01-16T07:05:29Z</time>
      </trkpt>
      <trkpt lat="48.62238" lon="-1.8546">
        <ele>7</ele>
        <time>2017-01-16T07:07:29Z</time>
      </trkpt>
      <trkpt lat="48.62242" lon="-1.85469">
        <ele>7</ele>
        <time>2017-01-16T07:09:29Z</time>
      </trkpt>
      <trkpt lat="48.62248" lon="-1.85478">
        <ele>7</ele>
        <time>2017-01-16T07:11:29Z</time>
      </trkpt>
      <trkpt lat="48.62255" lon="-1.8549">
        <ele>7</ele>
        <time>2017-01-16T07:13:29Z</time>
      </trkpt>
      <trkpt lat="48.62262" lon="-1.85501">
        <ele>7</ele>
        <time>2017-01-16T07:15:29Z</time>
      </trkpt>
      <trkpt lat="48.6227" lon="-1.85511">
        <ele>7</ele>
        <time>2017-01-16T07:17:29Z</time>
      </trkpt>
      <trkpt lat="48.62288" lon="-1.8553">
        <ele>6</ele>
        <time>2017-01-16T07:19:29Z</time>
      </trkpt>
      <trkpt lat="48.62296" lon="-1.85541">
        <ele>6</ele>
        <time>2017-01-16T07:21:29Z</time>
      </trkpt>
      <trkpt lat="48.62316" lon="-1.85566">
        <ele>7</ele>
        <time>2017-01-16T07:23:29Z</time>
      </trkpt>
      <trkpt lat="48.62323" lon="-1.85576">
        <ele>8</ele>
        <time>2017-01-16T07:25:29Z</time>
      </trkpt>
      <trkpt lat="48.62347" lon="-1.85605">
        <ele>7</ele>
        <time>2017-01-16T07:27:29Z</time>
      </trkpt>
      <trkpt lat="48.62353" lon="-1.85614">
        <ele>7</ele>
        <time>2017-01-16T07:29:29Z</time>
      </trkpt>
      <trkpt lat="48.62361" lon="-1.85621">
        <ele>7</ele>
        <time>2017-01-16T07:31:29Z</time>
      </trkpt>
      <trkpt lat="48.62368" lon="-1.85629">
        <ele>6</ele>
        <time>2017-01-16T07:33:29Z</time>
      </trkpt>
      <trkpt lat="48.62381" lon="-1.85646">
        <ele>6</ele>
        <time>2017-01-16T07:35:29Z</time>
      </trkpt>
      <trkpt lat="48.62395" lon="-1.85661">
        <ele>6</ele>
        <time>2017-01-16T07:37:29Z</time>
      </trkpt>
      <trkpt lat="48.62409" lon="-1.85676">
        <ele>6</ele>
        <time>2017-01-16T07:39:29Z</time>
      </trkpt>
      <trkpt lat="48.62421" lon="-1.85689">
        <ele>6</ele>
        <time>2017-01-16T07:41:29Z</time>
      </trkpt>
      <trkpt lat="48.62431" lon="-1.857">
        <ele>6</ele>
        <time>2017-01-16T07:43:29Z</time>
      </trkpt>
      <trkpt lat="48.62446" lon="-1.85719">
        <ele>6</ele>
        <time>2017-01-16T07:45:29Z</time>
      </trkpt>
      <trkpt lat="48.62453" lon="-1.85728">
        <ele>6</ele>
        <time>2017-01-16T07:47:29Z</time>
      </trkpt>
      <trkpt lat="48.6246" lon="-1.85734">
        <ele>6</ele>
        <time>2017-01-16T07:49:29Z</time>
      </trkpt>
      <trkpt lat="48.62467" lon="-1.85736">
        <ele>6</ele>
        <time>2017-01-16T07:51:29Z</time>
      </trkpt>
      <trkpt lat="48.62463" lon="-1.85744">
        <ele>6</ele>
        <time>2017-01-16T07:53:29Z</time>
      </trkpt>
      <trkpt lat="48.62448" lon="-1.85763">
        <ele>6</ele>
        <time>2017-01-16T07:55:29Z</time>
      </trkpt>
      <trkpt lat="48.62441" lon="-1.85776">
        <ele>6</ele>
        <time>2017-01-16T07:57:29Z</time>
      </trkpt>
      <trkpt lat="48.62435" lon="-1.85787">
        <ele>6</ele>
        <time>2017-01-16T07:59:29Z</time>
      </trkpt>
      <trkpt lat="48.62406" lon="-1.85848">
        <ele>5</ele>
        <time>2017-01-16T08:01:29Z</time>
      </trkpt>
      <trkpt lat="48.62401" lon="-1.85862">
        <ele>5</ele>
        <time>2017-01-16T08:03:29Z</time>
      </trkpt>
      <trkpt lat="48.62397" lon="-1.85873">
        <ele>5</ele>
        <time>2017-01-16T08:05:29Z</time>
      </trkpt>
      <trkpt lat="48.62393" lon="-1.85884">
        <ele>6</ele>
        <time>2017-01-16T08:07:29Z</time>
      </trkpt>
      <trkpt lat="48.62388" lon="-1.85896">
        <ele>6</ele>
        <time>2017-01-16T08:09:29Z</time>
      </trkpt>
      <trkpt lat="48.62382" lon="-1.85906">
        <ele>6</ele>
        <time>2017-01-16T08:11:29Z</time>
      </trkpt>
      <trkpt lat="48.62378" lon="-1.85918">
        <ele>6</ele>
        <time>2017-01-16T08:13:29Z</time>
      </trkpt>
      <trkpt lat="48.62373" lon="-1.85931">
        <ele>5</ele>
        <time>2017-01-16T08:15:29Z</time>
      </trkpt>
      <trkpt lat="48.62373" lon="-1.85944">
        <ele>5</ele>
        <time>2017-01-16T08:17:29Z</time>
      </trkpt>
      <trkpt lat="48.62379" lon="-1.85956">
        <ele>6</ele>
        <time>2017-01-16T08:19:29Z</time>
      </trkpt>
      <trkpt lat="48.62387" lon="-1.85965">
        <ele>6</ele>
        <time>2017-01-16T08:21:29Z</time>
      </trkpt>
      <trkpt lat="48.62396" lon="-1.85972">
        <ele>6</ele>
        <time>2017-01-16T08:23:29Z</time>
      </trkpt>
      <trkpt lat="48.62405" lon="-1.85979">
        <ele>6</ele>
        <time>2017-01-16T08:25:29Z</time>
      </trkpt>
      <trkpt lat="48.62414" lon="-1.85986">
        <ele>6</ele>
        <time>2017-01-16T08:27:29Z</time>
      </trkpt>
      <trkpt lat="48.62421" lon="-1.85989">
        <ele>6</ele>
        <time>2017-01-16T08:29:29Z</time>
      </trkpt>
      <trkpt lat="48.62429" lon="-1.85992">
        <ele>6</ele>
        <time>2017-01-16T08:31:29Z</time>
      </trkpt>
      <trkpt lat="48.62445" lon="-1.86003">
        <ele>6</ele>
        <time>2017-01-16T08:33:29Z</time>
      </trkpt>
      <trkpt lat="48.62454" lon="-1.86009">
        <ele>6</ele>
        <time>2017-01-16T08:35:29Z</time>
      </trkpt>
      <trkpt lat="48.62461" lon="-1.86013">
        <ele>6</ele>
        <time>2017-01-16T08:37:29Z</time>
      </trkpt>
      <trkpt lat="48.62468" lon="-1.86019">
        <ele>6</ele>
        <time>2017-01-16T08:39:29Z</time>
      </trkpt>
      <trkpt lat="48.62479" lon="-1.86023">
        <ele>6</ele>
        <time>2017-01-16T08:41:29Z</time>
      </trkpt>
      <trkpt lat="48.62495" lon="-1.86035">
        <ele>6</ele>
        <time>2017-01-16T08:43:29Z</time>
      </trkpt>
      <trkpt lat="48.62495" lon="-1.86031">
        <ele>6</ele>
        <time>2017-01-16T08:45:29Z</time>
      </trkpt>
      <trkpt lat="48.6251" lon="-1.86045">
        <ele>6</ele>
        <time>2017-01-16T08:47:29Z</time>
      </trkpt>
      <trkpt lat="48.62526" lon="-1.8606">
        <ele>6</ele>
        <time>2017-01-16T08:49:29Z</time>
      </trkpt>
      <trkpt lat="48.62534" lon="-1.86068">
        <ele>6</ele>
        <time>2017-01-16T08:51:29Z</time>
      </trkpt>
      <trkpt lat="48.62542" lon="-1.86077">
        <ele>6</ele>
        <time>2017-01-16T08:53:29Z</time>
      </trkpt>
      <trkpt lat="48.62549" lon="-1.86086">
        <ele>6</ele>
        <time>2017-01-16T08:55:29Z</time>
      </trkpt>
      <trkpt lat="48.62558" lon="-1.86097">
        <ele>6</ele>
        <time>2017-01-16T08:57:29Z</time>
      </trkpt>
      <trkpt lat="48.62566" lon="-1.86106">
        <ele>6</ele>
        <time>2017-01-16T08:59:29Z</time>
      </trkpt>
      <trkpt lat="48.62582" lon="-1.86122">
        <ele>6</ele>
        <time>2017-01-16T09:01:29Z</time>
      </trkpt>
      <trkpt lat="48.62591" lon="-1.86132">
        <ele>6</ele>
        <time>2017-01-16T09:03:29Z</time>
      </trkpt>
      <trkpt lat="48.62598" lon="-1.86141">
        <ele>6</ele>
        <time>2017-01-16T09:05:29Z</time>
      </trkpt>
      <trkpt lat="48.62634" lon="-1.86171">
        <ele>6</ele>
        <time>2017-01-16T09:07:29Z</time>
      </trkpt>
      <trkpt lat="48.62651" lon="-1.86185">
        <ele>6</ele>
        <time>2017-01-16T09:09:29Z</time>
      </trkpt>
      <trkpt lat="48.6266" lon="-1.86192">
        <ele>6</ele>
        <time>2017-01-16T09:11:29Z</time>
      </trkpt>
      <trkpt lat="48.62671" lon="-1.86198">
        <ele>6</ele>
        <time>2017-01-16T09:13:29Z</time>
      </trkpt>
      <trkpt lat="48.62689" lon="-1.8621">
        <ele>5</ele>
        <time>2017-01-16T09:15:29Z</time>
      </trkpt>
      <trkpt lat="48.62697" lon="-1.86216">
        <ele>5</ele>
        <time>2017-01-16T09:17:29Z</time>
      </trkpt>
      <trkpt lat="48.62705" lon="-1.86223">
        <ele>5</ele>
        <time>2017-01-16T09:19:29Z</time>
      </trkpt>
      <trkpt lat="48.62714" lon="-1.8623">
        <ele>5</ele>
        <time>2017-01-16T09:21:29Z</time>
      </trkpt>
      <trkpt lat="48.62723" lon="-1.86237">
        <ele>6</ele>
        <time>2017-01-16T09:23:29Z</time>
      </trkpt>
      <trkpt lat="48.62739" lon="-1.86256">
        <ele>6</ele>
        <time>2017-01-16T09:25:29Z</time>
      </trkpt>
      <trkpt lat="48.62742" lon="-1.86271">
        <ele>6</ele>
        <time>2017-01-16T09:27:29Z</time>
      </trkpt>
      <trkpt lat="48.62738" lon="-1.86297">
        <ele>6</ele>
        <time>2017-01-16T09:29:29Z</time>
      </trkpt>
      <trkpt lat="48.62733" lon="-1.86309">
        <ele>6</ele>
        <time>2017-01-16T09:31:29Z</time>
      </trkpt>
      <trkpt lat="48.6273" lon="-1.86323">
        <ele>6</ele>
        <time>2017-01-16T09:33:29Z</time>
      </trkpt>
      <trkpt lat="48.62727" lon="-1.86338">
        <ele>6</ele>
        <time>2017-01-16T09:35:29Z</time>
      </trkpt>
      <trkpt lat="48.62725" lon="-1.86354">
        <ele>5</ele>
        <time>2017-01-16T09:37:29Z</time>
      </trkpt>
      <trkpt lat="48.62725" lon="-1.8637">
        <ele>5</ele>
        <time>2017-01-16T09:39:29Z</time>
      </trkpt>
      <trkpt lat="48.62726" lon="-1.86386">
        <ele>5</ele>
        <time>2017-01-16T09:41:29Z</time>
      </trkpt>
      <trkpt lat="48.62729" lon="-1.86401">
        <ele>5</ele>
        <time>2017-01-16T09:43:29Z</time>
      </trkpt>
      <trkpt lat="48.62731" lon="-1.86415">
        <ele>5</ele>
        <time>2017-01-16T09:45:29Z</time>
      </trkpt>
      <trkpt lat="48.62734" lon="-1.8643">
        <ele>5</ele>
        <time>2017-01-16T09:47:29Z</time>
      </trkpt>
      <trkpt lat="48.62738" lon="-1.86442">
        <ele>5</ele>
        <time>2017-01-16T09:49:29Z</time>
      </trkpt>
      <trkpt lat="48.62741" lon="-1.86456">
        <ele>5</ele>
        <time>2017-01-16T09:51:29Z</time>
      </trkpt>
      <trkpt lat="48.62745" lon="-1.86473">
        <ele>5</ele>
        <time>2017-01-16T09:53:29Z</time>
      </trkpt>
      <trkpt lat="48.62746" lon="-1.86491">
        <ele>5</ele>
        <time>2017-01-16T09:55:29Z</time>
      </trkpt>
      <trkpt lat="48.62746" lon="-1.86507">
        <ele>5</ele>
        <time>2017-01-16T09:57:29Z</time>
      </trkpt>
      <trkpt lat="48.62748" lon="-1.86522">
        <ele>5</ele>
        <time>2017-01-16T09:59:29Z</time>
      </trkpt>
      <trkpt lat="48.62756" lon="-1.86532">
        <ele>5</ele>
        <time>2017-01-16T10:01:29Z</time>
      </trkpt>
      <trkpt lat="48.62764" lon="-1.8654">
        <ele>5</ele>
        <time>2017-01-16T10:03:29Z</time>
      </trkpt>
      <trkpt lat="48.62774" lon="-1.86549">
        <ele>4</ele>
        <time>2017-01-16T10:05:29Z</time>
      </trkpt>
      <trkpt lat="48.62783" lon="-1.86561">
        <ele>4</ele>
        <time>2017-01-16T10:07:29Z</time>
      </trkpt>
      <trkpt lat="48.62794" lon="-1.86574">
        <ele>5</ele>
        <time>2017-01-16T10:09:29Z</time>
      </trkpt>
      <trkpt lat="48.62803" lon="-1.86583">
        <ele>5</ele>
        <time>2017-01-16T10:11:29Z</time>
      </trkpt>
      <trkpt lat="48.6281" lon="-1.86594">
        <ele>5</ele>
        <time>2017-01-16T10:13:29Z</time>
      </trkpt>
      <trkpt lat="48.6282" lon="-1.866">
        <ele>5</ele>
        <time>2017-01-16T10:15:29Z</time>
      </trkpt>
      <trkpt lat="48.62829" lon="-1.86611">
        <ele>5</ele>
        <time>2017-01-16T10:17:29Z</time>
      </trkpt>
      <trkpt lat="48.62838" lon="-1.86619">
        <ele>5</ele>
        <time>2017-01-16T10:19:29Z</time>
      </trkpt>
      <trkpt lat="48.62848" lon="-1.86627">
        <ele>4</ele>
        <time>2017-01-16T10:21:29Z</time>
      </trkpt>
      <trkpt lat="48.62858" lon="-1.86632">
        <ele>4</ele>
        <time>2017-01-16T10:23:29Z</time>
      </trkpt>
      <trkpt lat="48.62867" lon="-1.8664">
        <ele>4</ele>
        <time>2017-01-16T10:25:29Z</time>
      </trkpt>
      <trkpt lat="48.62874" lon="-1.8665">
        <ele>4</ele>
        <time>2017-01-16T10:27:29Z</time>
      </trkpt>
      <trkpt lat="48.62883" lon="-1.8666">
        <ele>5</ele>
        <time>2017-01-16T10:29:29Z</time>
      </trkpt>
      <trkpt lat="48.62892" lon="-1.86671">
        <ele>5</ele>
        <time>2017-01-16T10:31:29Z</time>
      </trkpt>
      <trkpt lat="48.62909" lon="-1.86688">
        <ele>5</ele>
        <time>2017-01-16T10:33:29Z</time>
      </trkpt>
      <trkpt lat="48.62916" lon="-1.86698">
        <ele>5</ele>
        <time>2017-01-16T10:35:29Z</time>
      </trkpt>
      <trkpt lat="48.62925" lon="-1.86707">
        <ele>5</ele>
        <time>2017-01-16T10:37:29Z</time>
      </trkpt>
      <trkpt lat="48.62932" lon="-1.86718">
        <ele>4</ele>
        <time>2017-01-16T10:39:29Z</time>
      </trkpt>
      <trkpt lat="48.6295" lon="-1.86735">
        <ele>4</ele>
        <time>2017-01-16T10:41:29Z</time>
      </trkpt>
      <trkpt lat="48.62957" lon="-1.86746">
        <ele>4</ele>
        <time>2017-01-16T10:43:29Z</time>
      </trkpt>
      <trkpt lat="48.62963" lon="-1.86758">
        <ele>4</ele>
        <time>2017-01-16T10:45:29Z</time>
      </trkpt>
      <trkpt lat="48.62971" lon="-1.86773">
        <ele>4</ele>
        <time>2017-01-16T10:47:29Z</time>
      </trkpt>
      <trkpt lat="48.62982" lon="-1.868">
        <ele>4</ele>
        <time>2017-01-16T10:49:29Z</time>
      </trkpt>
      <trkpt lat="48.62988" lon="-1.86811">
        <ele>5</ele>
        <time>2017-01-16T10:51:29Z</time>
      </trkpt>
      <trkpt lat="48.62994" lon="-1.86825">
        <ele>5</ele>
        <time>2017-01-16T10:53:29Z</time>
      </trkpt>
      <trkpt lat="48.62998" lon="-1.86838">
        <ele>5</ele>
        <time>2017-01-16T10:55:29Z</time>
      </trkpt>
      <trkpt lat="48.63002" lon="-1.86855">
        <ele>5</ele>
        <time>2017-01-16T10:57:29Z</time>
      </trkpt>
      <trkpt lat="48.63003" lon="-1.86887">
        <ele>5</ele>
        <time>2017-01-16T10:59:29Z</time>
      </trkpt>
      <trkpt lat="48.63004" lon="-1.86902">
        <ele>5</ele>
        <time>2017-01-16T11:01:29Z</time>
      </trkpt>
      <trkpt lat="48.63005" lon="-1.86915">
        <ele>5</ele>
        <time>2017-01-16T11:03:29Z</time>
      </trkpt>
      <trkpt lat="48.63004" lon="-1.8693">
        <ele>5</ele>
        <time>2017-01-16T11:05:29Z</time>
      </trkpt>
      <trkpt lat="48.63003" lon="-1.8698">
        <ele>5</ele>
        <time>2017-01-16T11:07:29Z</time>
      </trkpt>
      <trkpt lat="48.63004" lon="-1.86995">
        <ele>5</ele>
        <time>2017-01-16T11:09:29Z</time>
      </trkpt>
      <trkpt lat="48.63004" lon="-1.87012">
        <ele>5</ele>
        <time>2017-01-16T11:11:29Z</time>
      </trkpt>
      <trkpt lat="48.63004" lon="-1.87029">
        <ele>5</ele>
        <time>2017-01-16T11:13:29Z</time>
      </trkpt>
      <trkpt lat="48.63005" lon="-1.87044">
        <ele>5</ele>
        <time>2017-01-16T11:15:29Z</time>
      </trkpt>
      <trkpt lat="48.63007" lon="-1.87058">
        <ele>4</ele>
        <time>2017-01-16T11:17:29Z</time>
      </trkpt>
      <trkpt lat="48.63009" lon="-1.87089">
        <ele>4</ele>
        <time>2017-01-16T11:19:29Z</time>
      </trkpt>
      <trkpt lat="48.63012" lon="-1.87105">
        <ele>4</ele>
        <time>2017-01-16T11:21:29Z</time>
      </trkpt>
      <trkpt lat="48.63014" lon="-1.87121">
        <ele>4</ele>
        <time>2017-01-16T11:23:29Z</time>
      </trkpt>
      <trkpt lat="48.63017" lon="-1.87136">
        <ele>4</ele>
        <time>2017-01-16T11:25:29Z</time>
      </trkpt>
      <trkpt lat="48.63021" lon="-1.87151">
        <ele>4</ele>
        <time>2017-01-16T11:27:29Z</time>
      </trkpt>
      <trkpt lat="48.63024" lon="-1.87163">
        <ele>4</ele>
        <time>2017-01-16T11:29:29Z</time>
      </trkpt>
      <trkpt lat="48.63028" lon="-1.87179">
        <ele>4</ele>
        <time>2017-01-16T11:31:29Z</time>
      </trkpt>
      <trkpt lat="48.63034" lon="-1.87207">
        <ele>4</ele>
        <time>2017-01-16T11:33:29Z</time>
      </trkpt>
      <trkpt lat="48.63036" lon="-1.87222">
        <ele>4</ele>
        <time>2017-01-16T11:35:29Z</time>
      </trkpt>
      <trkpt lat="48.63038" lon="-1.87236">
        <ele>4</ele>
        <time>2017-01-16T11:37:29Z</time>
      </trkpt>
      <trkpt lat="48.63042" lon="-1.87268">
        <ele>5</ele>
        <time>2017-01-16T11:39:29Z</time>
      </trkpt>
      <trkpt lat="48.63045" lon="-1.8728">
        <ele>5</ele>
        <time>2017-01-16T11:41:29Z</time>
      </trkpt>
      <trkpt lat="48.63045" lon="-1.87295">
        <ele>5</ele>
        <time>2017-01-16T11:43:29Z</time>
      </trkpt>
      <trkpt lat="48.63048" lon="-1.87311">
        <ele>5</ele>
        <time>2017-01-16T11:45:29Z</time>
      </trkpt>
      <trkpt lat="48.6305" lon="-1.87327">
        <ele>5</ele>
        <time>2017-01-16T11:47:29Z</time>
      </trkpt>
      <trkpt lat="48.63052" lon="-1.87343">
        <ele>5</ele>
        <time>2017-01-16T11:49:29Z</time>
      </trkpt>
      <trkpt lat="48.63051" lon="-1.87357">
        <ele>5</ele>
        <time>2017-01-16T11:51:29Z</time>
      </trkpt>
      <trkpt lat="48.63045" lon="-1.87368">
        <ele>5</ele>
        <time>2017-01-16T11:53:29Z</time>
      </trkpt>
      <trkpt lat="48.63033" lon="-1.87371">
        <ele>5</ele>
        <time>2017-01-16T11:55:29Z</time>
      </trkpt>
      <trkpt lat="48.63023" lon="-1.87371">
        <ele>5</ele>
        <time>2017-01-16T11:57:29Z</time>
      </trkpt>
      <trkpt lat="48.63003" lon="-1.87376">
        <ele>5</ele>
        <time>2017-01-16T11:59:29Z</time>
      </trkpt>
      <trkpt lat="48.62994" lon="-1.8738">
        <ele>5</ele>
        <time>2017-01-16T12:01:29Z</time>
      </trkpt>
      <trkpt lat="48.62983" lon="-1.87382">
        <ele>5</ele>
        <time>2017-01-16T12:03:29Z</time>
      </trkpt>
      <trkpt lat="48.62973" lon="-1.87388">
        <ele>5</ele>
        <time>2017-01-16T12:05:29Z</time>
      </trkpt>
      <trkpt lat="48.62963" lon="-1.87392">
        <ele>5</ele>
        <time>2017-01-16T12:07:29Z</time>
      </trkpt>
      <trkpt lat="48.62944" lon="-1.87399">
        <ele>5</ele>
        <time>2017-01-16T12:09:29Z</time>
      </trkpt>
      <trkpt lat="48.62922" lon="-1.874">
        <ele>5</ele>
        <time>2017-01-16T12:11:29Z</time>
      </trkpt>
      <trkpt lat="48.62912" lon="-1.87399">
        <ele>5</ele>
        <time>2017-01-16T12:13:29Z</time>
      </trkpt>
      <trkpt lat="48.62892" lon="-1.87393">
        <ele>5</ele>
        <time>2017-01-16T12:15:29Z</time>
      </trkpt>
      <trkpt lat="48.62884" lon="-1.87389">
        <ele>5</ele>
        <time>2017-01-16T12:17:29Z</time>
      </trkpt>
      <trkpt lat="48.62864" lon="-1.87382">
        <ele>5</ele>
        <time>2017-01-16T12:19:29Z</time>
      </trkpt>
      <trkpt lat="48.62854" lon="-1.87381">
        <ele>5</ele>
        <time>2017-01-16T12:21:29Z</time>
      </trkpt>
      <trkpt lat="48.62844" lon="-1.87384">
        <ele>5</ele>
        <time>2017-01-16T12:23:29Z</time>
      </trkpt>
      <trkpt lat="48.6284" lon="-1.87395">
        <ele>5</ele>
        <time>2017-01-16T12:25:29Z</time>
      </trkpt>
      <trkpt lat="48.62847" lon="-1.87409">
        <ele>5</ele>
        <time>2017-01-16T12:27:29Z</time>
      </trkpt>
      <trkpt lat="48.62853" lon="-1.8742">
        <ele>5</ele>
        <time>2017-01-16T12:29:29Z</time>
      </trkpt>
      <trkpt lat="48.62859" lon="-1.87434">
        <ele>5</ele>
        <time>2017-01-16T12:31:29Z</time>
      </trkpt>
      <trkpt lat="48.62864" lon="-1.87449">
        <ele>5</ele>
        <time>2017-01-16T12:33:29Z</time>
      </trkpt>
      <trkpt lat="48.62869" lon="-1.87463">
        <ele>6</ele>
        <time>2017-01-16T12:35:29Z</time>
      </trkpt>
      <trkpt lat="48.62874" lon="-1.87477">
        <ele>6</ele>
        <time>2017-01-16T12:37:29Z</time>
      </trkpt>
      <trkpt lat="48.6288" lon="-1.87492">
        <ele>6</ele>
        <time>2017-01-16T12:39:29Z</time>
      </trkpt>
      <trkpt lat="48.62888" lon="-1.8752">
        <ele>6</ele>
        <time>2017-01-16T12:41:29Z</time>
      </trkpt>
      <trkpt lat="48.62895" lon="-1.8755">
        <ele>6</ele>
        <time>2017-01-16T12:43:29Z</time>
      </trkpt>
      <trkpt lat="48.62899" lon="-1.87564">
        <ele>6</ele>
        <time>2017-01-16T12:45:29Z</time>
      </trkpt>
      <trkpt lat="48.62902" lon="-1.87581">
        <ele>6</ele>
        <time>2017-01-16T12:47:29Z</time>
      </trkpt>
      <trkpt lat="48.62905" lon="-1.87597">
        <ele>6</ele>
        <time>2017-01-16T12:49:29Z</time>
      </trkpt>
      <trkpt lat="48.6291" lon="-1.87613">
        <ele>5</ele>
        <time>2017-01-16T12:51:29Z</time>
      </trkpt>
      <trkpt lat="48.62914" lon="-1.87625">
        <ele>5</ele>
        <time>2017-01-16T12:53:29Z</time>
      </trkpt>
      <trkpt lat="48.62917" lon="-1.87637">
        <ele>5</ele>
        <time>2017-01-16T12:55:29Z</time>
      </trkpt>
      <trkpt lat="48.62921" lon="-1.8765">
        <ele>5</ele>
        <time>2017-01-16T12:57:29Z</time>
      </trkpt>
      <trkpt lat="48.62925" lon="-1.87679">
        <ele>5</ele>
        <time>2017-01-16T12:59:29Z</time>
      </trkpt>
      <trkpt lat="48.62929" lon="-1.87694">
        <ele>5</ele>
        <time>2017-01-16T13:01:29Z</time>
      </trkpt>
      <trkpt lat="48.62932" lon="-1.87711">
        <ele>5</ele>
        <time>2017-01-16T13:03:29Z</time>
      </trkpt>
      <trkpt lat="48.62935" lon="-1.87724">
        <ele>5</ele>
        <time>2017-01-16T13:05:29Z</time>
      </trkpt>
      <trkpt lat="48.62938" lon="-1.87739">
        <ele>5</ele>
        <time>2017-01-16T13:07:29Z</time>
      </trkpt>
      <trkpt lat="48.62945" lon="-1.8777">
        <ele>5</ele>
        <time>2017-01-16T13:09:29Z</time>
      </trkpt>
      <trkpt lat="48.62948" lon="-1.87784">
        <ele>5</ele>
        <time>2017-01-16T13:11:29Z</time>
      </trkpt>
      <trkpt lat="48.6295" lon="-1.87799">
        <ele>4</ele>
        <time>2017-01-16T13:13:29Z</time>
      </trkpt>
      <trkpt lat="48.62954" lon="-1.87828">
        <ele>4</ele>
        <time>2017-01-16T13:15:29Z</time>
      </trkpt>
      <trkpt lat="48.62955" lon="-1.87842">
        <ele>4</ele>
        <time>2017-01-16T13:17:29Z</time>
      </trkpt>
      <trkpt lat="48.62961" lon="-1.87886">
        <ele>4</ele>
        <time>2017-01-16T13:19:29Z</time>
      </trkpt>
      <trkpt lat="48.62963" lon="-1.87899">
        <ele>4</ele>
        <time>2017-01-16T13:21:29Z</time>
      </trkpt>
      <trkpt lat="48.62965" lon="-1.87913">
        <ele>4</ele>
        <time>2017-01-16T13:23:29Z</time>
      </trkpt>
      <trkpt lat="48.62967" lon="-1.87944">
        <ele>4</ele>
        <time>2017-01-16T13:25:29Z</time>
      </trkpt>
      <trkpt lat="48.62969" lon="-1.87958">
        <ele>4</ele>
        <time>2017-01-16T13:27:29Z</time>
      </trkpt>
      <trkpt lat="48.6297" lon="-1.87975">
        <ele>5</ele>
        <time>2017-01-16T13:29:29Z</time>
      </trkpt>
      <trkpt lat="48.62972" lon="-1.87991">
        <ele>5</ele>
        <time>2017-01-16T13:31:29Z</time>
      </trkpt>
      <trkpt lat="48.62973" lon="-1.88008">
        <ele>5</ele>
        <time>2017-01-16T13:33:29Z</time>
      </trkpt>
      <trkpt lat="48.62976" lon="-1.88036">
        <ele>4</ele>
        <time>2017-01-16T13:35:29Z</time>
      </trkpt>
      <trkpt lat="48.62977" lon="-1.88049">
        <ele>4</ele>
        <time>2017-01-16T13:37:29Z</time>
      </trkpt>
      <trkpt lat="48.62979" lon="-1.88062">
        <ele>4</ele>
        <time>2017-01-16T13:39:29Z</time>
      </trkpt>
      <trkpt lat="48.6298" lon="-1.88077">
        <ele>4</ele>
        <time>2017-01-16T13:41:29Z</time>
      </trkpt>
      <trkpt lat="48.62982" lon="-1.88092">
        <ele>4</ele>
        <time>2017-01-16T13:43:29Z</time>
      </trkpt>
      <trkpt lat="48.62985" lon="-1.88122">
        <ele>4</ele>
        <time>2017-01-16T13:45:29Z</time>
      </trkpt>
      <trkpt lat="48.62987" lon="-1.88136">
        <ele>4</ele>
        <time>2017-01-16T13:47:29Z</time>
      </trkpt>
      <trkpt lat="48.62989" lon="-1.88151">
        <ele>4</ele>
        <time>2017-01-16T13:49:29Z</time>
      </trkpt>
      <trkpt lat="48.62991" lon="-1.88164">
        <ele>4</ele>
        <time>2017-01-16T13:51:29Z</time>
      </trkpt>
      <trkpt lat="48.62995" lon="-1.88206">
        <ele>4</ele>
        <time>2017-01-16T13:53:29Z</time>
      </trkpt>
      <trkpt lat="48.62995" lon="-1.88219">
        <ele>4</ele>
        <time>2017-01-16T13:55:29Z</time>
      </trkpt>
      <trkpt lat="48.62998" lon="-1.8826">
        <ele>4</ele>
        <time>2017-01-16T13:57:29Z</time>
      </trkpt>
      <trkpt lat="48.62998" lon="-1.88271">
        <ele>4</ele>
        <time>2017-01-16T13:59:29Z</time>
      </trkpt>
      <trkpt lat="48.63" lon="-1.88285">
        <ele>4</ele>
        <time>2017-01-16T14:01:29Z</time>
      </trkpt>
      <trkpt lat="48.63001" lon="-1.883">
        <ele>4</ele>
        <time>2017-01-16T14:03:29Z</time>
      </trkpt>
      <trkpt lat="48.63003" lon="-1.88316">
        <ele>4</ele>
        <time>2017-01-16T14:05:29Z</time>
      </trkpt>
      <trkpt lat="48.63004" lon="-1.8833">
        <ele>4</ele>
        <time>2017-01-16T14:07:29Z</time>
      </trkpt>
      <trkpt lat="48.63006" lon="-1.88346">
        <ele>4</ele>
        <time>2017-01-16T14:09:29Z</time>
      </trkpt>
      <trkpt lat="48.63007" lon="-1.88361">
        <ele>4</ele>
        <time>2017-01-16T14:11:29Z</time>
      </trkpt>
      <trkpt lat="48.63007" lon="-1.88376">
        <ele>4</ele>
        <time>2017-01-16T14:13:29Z</time>
      </trkpt>
      <trkpt lat="48.63006" lon="-1.8839">
        <ele>4</ele>
        <time>2017-01-16T14:15:29Z</time>
      </trkpt>
      <trkpt lat="48.62999" lon="-1.88403">
        <ele>4</ele>
        <time>2017-01-16T14:17:29Z</time>
      </trkpt>
      <trkpt lat="48.62992" lon="-1.88415">
        <ele>4</ele>
        <time>2017-01-16T14:19:29Z</time>
      </trkpt>
      <trkpt lat="48.62983" lon="-1.88424">
        <ele>4</ele>
        <time>2017-01-16T14:21:29Z</time>
      </trkpt>
      <trkpt lat="48.62971" lon="-1.88427">
        <ele>4</ele>
        <time>2017-01-16T14:23:29Z</time>
      </trkpt>
      <trkpt lat="48.6296" lon="-1.88432">
        <ele>5</ele>
        <time>2017-01-16T14:25:29Z</time>
      </trkpt>
      <trkpt lat="48.62949" lon="-1.88434">
        <ele>5</ele>
        <time>2017-01-16T14:27:29Z</time>
      </trkpt>
      <trkpt lat="48.6294" lon="-1.88438">
        <ele>5</ele>
        <time>2017-01-16T14:29:29Z</time>
      </trkpt>
      <trkpt lat="48.6293" lon="-1.88441">
        <ele>5</ele>
        <time>2017-01-16T14:31:29Z</time>
      </trkpt>
      <trkpt lat="48.6291" lon="-1.88449">
        <ele>5</ele>
        <time>2017-01-16T14:33:29Z</time>
      </trkpt>
      <trkpt lat="48.62901" lon="-1.88453">
        <ele>5</ele>
        <time>2017-01-16T14:35:29Z</time>
      </trkpt>
      <trkpt lat="48.62881" lon="-1.88458">
        <ele>5</ele>
        <time>2017-01-16T14:37:29Z</time>
      </trkpt>
      <trkpt lat="48.6287" lon="-1.88459">
        <ele>5</ele>
        <time>2017-01-16T14:39:29Z</time>
      </trkpt>
      <trkpt lat="48.62849" lon="-1.88465">
        <ele>5</ele>
        <time>2017-01-16T14:41:29Z</time>
      </trkpt>
      <trkpt lat="48.6284" lon="-1.88466">
        <ele>5</ele>
        <time>2017-01-16T14:43:29Z</time>
      </trkpt>
      <trkpt lat="48.62829" lon="-1.88469">
        <ele>5</ele>
        <time>2017-01-16T14:45:29Z</time>
      </trkpt>
      <trkpt lat="48.62819" lon="-1.88473">
        <ele>5</ele>
        <time>2017-01-16T14:47:29Z</time>
      </trkpt>
      <trkpt lat="48.62806" lon="-1.88475">
        <ele>5</ele>
        <time>2017-01-16T14:49:29Z</time>
      </trkpt>
      <trkpt lat="48.62788" lon="-1.88484">
        <ele>4</ele>
        <time>2017-01-16T14:51:29Z</time>
      </trkpt>
      <trkpt lat="48.6278" lon="-1.88488">
        <ele>4</ele>
        <time>2017-01-16T14:53:29Z</time>
      </trkpt>
      <trkpt lat="48.6276" lon="-1.88499">
        <ele>4</ele>
        <time>2017-01-16T14:55:29Z</time>
      </trkpt>
      <trkpt lat="48.62751" lon="-1.88502">
        <ele>4</ele>
        <time>2017-01-16T14:57:29Z</time>
      </trkpt>
      <trkpt lat="48.62741" lon="-1.88504">
        <ele>4</ele>
        <time>2017-01-16T14:59:29Z</time>
      </trkpt>
      <trkpt lat="48.62733" lon="-1.8851">
        <ele>4</ele>
        <time>2017-01-16T15:01:29Z</time>
      </trkpt>
      <trkpt lat="48.62731" lon="-1.88526">
        <ele>4</ele>
        <time>2017-01-16T15:03:29Z</time>
      </trkpt>
      <trkpt lat="48.62732" lon="-1.88542">
        <ele>5</ele>
        <time>2017-01-16T15:05:29Z</time>
      </trkpt>
      <trkpt lat="48.62733" lon="-1.88557">
        <ele>5</ele>
        <time>2017-01-16T15:07:29Z</time>
      </trkpt>
      <trkpt lat="48.62736" lon="-1.88573">
        <ele>5</ele>
        <time>2017-01-16T15:09:29Z</time>
      </trkpt>
      <trkpt lat="48.62741" lon="-1.88602">
        <ele>5</ele>
        <time>2017-01-16T15:11:29Z</time>
      </trkpt>
      <trkpt lat="48.62744" lon="-1.88617">
        <ele>5</ele>
        <time>2017-01-16T15:13:29Z</time>
      </trkpt>
      <trkpt lat="48.62746" lon="-1.88633">
        <ele>5</ele>
        <time>2017-01-16T15:15:29Z</time>
      </trkpt>
      <trkpt lat="48.62749" lon="-1.88648">
        <ele>5</ele>
        <time>2017-01-16T15:17:29Z</time>
      </trkpt>
      <trkpt lat="48.62753" lon="-1.88677">
        <ele>5</ele>
        <time>2017-01-16T15:19:29Z</time>
      </trkpt>
      <trkpt lat="48.62754" lon="-1.8869">
        <ele>5</ele>
        <time>2017-01-16T15:21:29Z</time>
      </trkpt>
      <trkpt lat="48.62757" lon="-1.88703">
        <ele>5</ele>
        <time>2017-01-16T15:23:29Z</time>
      </trkpt>
      <trkpt lat="48.62758" lon="-1.88718">
        <ele>4</ele>
        <time>2017-01-16T15:25:29Z</time>
      </trkpt>
      <trkpt lat="48.62759" lon="-1.88733">
        <ele>4</ele>
        <time>2017-01-16T15:27:29Z</time>
      </trkpt>
      <trkpt lat="48.62761" lon="-1.88747">
        <ele>4</ele>
        <time>2017-01-16T15:29:29Z</time>
      </trkpt>
      <trkpt lat="48.62765" lon="-1.88771">
        <ele>4</ele>
        <time>2017-01-16T15:31:29Z</time>
      </trkpt>
      <trkpt lat="48.62769" lon="-1.88802">
        <ele>4</ele>
        <time>2017-01-16T15:33:29Z</time>
      </trkpt>
      <trkpt lat="48.62771" lon="-1.88816">
        <ele>4</ele>
        <time>2017-01-16T15:35:29Z</time>
      </trkpt>
      <trkpt lat="48.62773" lon="-1.88832">
        <ele>4</ele>
        <time>2017-01-16T15:37:29Z</time>
      </trkpt>
      <trkpt lat="48.62774" lon="-1.88847">
        <ele>4</ele>
        <time>2017-01-16T15:39:29Z</time>
      </trkpt>
      <trkpt lat="48.62774" lon="-1.8886">
        <ele>5</ele>
        <time>2017-01-16T15:41:29Z</time>
      </trkpt>
      <trkpt lat="48.62777" lon="-1.88874">
        <ele>5</ele>
        <time>2017-01-16T15:43:29Z</time>
      </trkpt>
      <trkpt lat="48.62779" lon="-1.8889">
        <ele>5</ele>
        <time>2017-01-16T15:45:29Z</time>
      </trkpt>
      <trkpt lat="48.6278" lon="-1.88901">
        <ele>5</ele>
        <time>2017-01-16T15:47:29Z</time>
      </trkpt>
      <trkpt lat="48.62781" lon="-1.88916">
        <ele>5</ele>
        <time>2017-01-16T15:49:29Z</time>
      </trkpt>
      <trkpt lat="48.62784" lon="-1.88931">
        <ele>5</ele>
        <time>2017-01-16T15:51:29Z</time>
      </trkpt>
      <trkpt lat="48.62785" lon="-1.88946">
        <ele>5</ele>
        <time>2017-01-16T15:53:29Z</time>
      </trkpt>
      <trkpt lat="48.62788" lon="-1.88961">
        <ele>5</ele>
        <time>2017-01-16T15:55:29Z</time>
      </trkpt>
      <trkpt lat="48.62792" lon="-1.88976">
        <ele>5</ele>
        <time>2017-01-16T15:57:29Z</time>
      </trkpt>
      <trkpt lat="48.62794" lon="-1.8899">
        <ele>5</ele>
        <time>2017-01-16T15:59:29Z</time>
      </trkpt>
      <trkpt lat="48.62795" lon="-1.89006">
        <ele>5</ele>
        <time>2017-01-16T16:01:29Z</time>
      </trkpt>
      <trkpt lat="48.62798" lon="-1.89038">
        <ele>5</ele>
        <time>2017-01-16T16:03:29Z</time>
      </trkpt>
      <trkpt lat="48.62799" lon="-1.89053">
        <ele>5</ele>
        <time>2017-01-16T16:05:29Z</time>
      </trkpt>
      <trkpt lat="48.62799" lon="-1.8907">
        <ele>5</ele>
        <time>2017-01-16T16:07:29Z</time>
      </trkpt>
      <trkpt lat="48.628" lon="-1.89086">
        <ele>4</ele>
        <time>2017-01-16T16:09:29Z</time>
      </trkpt>
      <trkpt lat="48.62801" lon="-1.89119">
        <ele>5</ele>
        <time>2017-01-16T16:11:29Z</time>
      </trkpt>
      <trkpt lat="48.62801" lon="-1.89151">
        <ele>5</ele>
        <time>2017-01-16T16:13:29Z</time>
      </trkpt>
      <trkpt lat="48.62802" lon="-1.89166">
        <ele>6</ele>
        <time>2017-01-16T16:15:29Z</time>
      </trkpt>
      <trkpt lat="48.62802" lon="-1.89183">
        <ele>6</ele>
        <time>2017-01-16T16:17:29Z</time>
      </trkpt>
      <trkpt lat="48.62803" lon="-1.89214">
        <ele>6</ele>
        <time>2017-01-16T16:19:29Z</time>
      </trkpt>
      <trkpt lat="48.62803" lon="-1.8923">
        <ele>6</ele>
        <time>2017-01-16T16:21:29Z</time>
      </trkpt>
      <trkpt lat="48.628" lon="-1.89261">
        <ele>7</ele>
        <time>2017-01-16T16:23:29Z</time>
      </trkpt>
      <trkpt lat="48.628" lon="-1.89277">
        <ele>8</ele>
        <time>2017-01-16T16:25:29Z</time>
      </trkpt>
      <trkpt lat="48.62797" lon="-1.89307">
        <ele>10</ele>
        <time>2017-01-16T16:27:29Z</time>
      </trkpt>
      <trkpt lat="48.62795" lon="-1.89321">
        <ele>11</ele>
        <time>2017-01-16T16:29:29Z</time>
      </trkpt>
      <trkpt lat="48.62792" lon="-1.8937">
        <ele>13</ele>
        <time>2017-01-16T16:31:29Z</time>
      </trkpt>
      <trkpt lat="48.6279" lon="-1.89385">
        <ele>14</ele>
        <time>2017-01-16T16:33:29Z</time>
      </trkpt>
      <trkpt lat="48.62788" lon="-1.89401">
        <ele>14</ele>
        <time>2017-01-16T16:35:29Z</time>
      </trkpt>
      <trkpt lat="48.62786" lon="-1.89415">
        <ele>15</ele>
        <time>2017-01-16T16:37:29Z</time>
      </trkpt>
      <trkpt lat="48.62784" lon="-1.8943">
        <ele>15</ele>
        <time>2017-01-16T16:39:29Z</time>
      </trkpt>
      <trkpt lat="48.62782" lon="-1.89444">
        <ele>15</ele>
        <time>2017-01-16T16:41:29Z</time>
      </trkpt>
      <trkpt lat="48.62781" lon="-1.8946">
        <ele>15</ele>
        <time>2017-01-16T16:43:29Z</time>
      </trkpt>
      <trkpt lat="48.62779" lon="-1.89477">
        <ele>15</ele>
        <time>2017-01-16T16:45:29Z</time>
      </trkpt>
      <trkpt lat="48.62777" lon="-1.89495">
        <ele>16</ele>
        <time>2017-01-16T16:47:29Z</time>
      </trkpt>
      <trkpt lat="48.62777" lon="-1.89541">
        <ele>15</ele>
        <time>2017-01-16T16:49:29Z</time>
      </trkpt>
      <trkpt lat="48.62779" lon="-1.8956">
        <ele>15</ele>
        <time>2017-01-16T16:51:29Z</time>
      </trkpt>
      <trkpt lat="48.6278" lon="-1.89577">
        <ele>15</ele>
        <time>2017-01-16T16:53:29Z</time>
      </trkpt>
      <trkpt lat="48.62778" lon="-1.89596">
        <ele>15</ele>
        <time>2017-01-16T16:55:29Z</time>
      </trkpt>
      <trkpt lat="48.62779" lon="-1.89613">
        <ele>16</ele>
        <time>2017-01-16T16:57:29Z</time>
      </trkpt>
      <trkpt lat="48.6278" lon="-1.89628">
        <ele>16</ele>
        <time>2017-01-16T16:59:29Z</time>
      </trkpt>
      <trkpt lat="48.6278" lon="-1.89644">
        <ele>16</ele>
        <time>2017-01-16T17:01:29Z</time>
      </trkpt>
      <trkpt lat="48.62782" lon="-1.89687">
        <ele>16</ele>
        <time>2017-01-16T17:03:29Z</time>
      </trkpt>
      <trkpt lat="48.62779" lon="-1.89704">
        <ele>16</ele>
        <time>2017-01-16T17:05:29Z</time>
      </trkpt>
      <trkpt lat="48.62773" lon="-1.89718">
        <ele>16</ele>
        <time>2017-01-16T17:07:29Z</time>
      </trkpt>
      <trkpt lat="48.62766" lon="-1.89726">
        <ele>16</ele>
        <time>2017-01-16T17:09:29Z</time>
      </trkpt>
      <trkpt lat="48.62757" lon="-1.89734">
        <ele>16</ele>
        <time>2017-01-16T17:11:29Z</time>
      </trkpt>
      <trkpt lat="48.6275" lon="-1.89745">
        <ele>16</ele>
        <time>2017-01-16T17:13:29Z</time>
      </trkpt>
      <trkpt lat="48.62745" lon="-1.89758">
        <ele>16</ele>
        <time>2017-01-16T17:15:29Z</time>
      </trkpt>
      <trkpt lat="48.62741" lon="-1.89773">
        <ele>17</ele>
        <time>2017-01-16T17:17:29Z</time>
      </trkpt>
      <trkpt lat="48.62739" lon="-1.89789">
        <ele>17</ele>
        <time>2017-01-16T17:19:29Z</time>
      </trkpt>
      <trkpt lat="48.62738" lon="-1.89805">
        <ele>18</ele>
        <time>2017-01-16T17:21:29Z</time>
      </trkpt>
      <trkpt lat="48.62736" lon="-1.8982">
        <ele>18</ele>
        <time>2017-01-16T17:23:29Z</time>
      </trkpt>
      <trkpt lat="48.62736" lon="-1.8985">
        <ele>19</ele>
        <time>2017-01-16T17:25:29Z</time>
      </trkpt>
      <trkpt lat="48.62736" lon="-1.89866">
        <ele>19</ele>
        <time>2017-01-16T17:27:29Z</time>
      </trkpt>
      <trkpt lat="48.62736" lon="-1.8988">
        <ele>20</ele>
        <time>2017-01-16T17:29:29Z</time>
      </trkpt>
      <trkpt lat="48.62738" lon="-1.89894">
        <ele>20</ele>
        <time>2017-01-16T17:31:29Z</time>
      </trkpt>
      <trkpt lat="48.62738" lon="-1.8991">
        <ele>20</ele>
        <time>2017-01-16T17:33:29Z</time>
      </trkpt>
      <trkpt lat="48.62741" lon="-1.89939">
        <ele>21</ele>
        <time>2017-01-16T17:35:29Z</time>
      </trkpt>
      <trkpt lat="48.62744" lon="-1.89971">
        <ele>22</ele>
        <time>2017-01-16T17:37:29Z</time>
      </trkpt>
      <trkpt lat="48.62746" lon="-1.89986">
        <ele>22</ele>
        <time>2017-01-16T17:39:29Z</time>
      </trkpt>
      <trkpt lat="48.62747" lon="-1.90002">
        <ele>22</ele>
        <time>2017-01-16T17:41:29Z</time>
      </trkpt>
      <trkpt lat="48.62748" lon="-1.90018">
        <ele>23</ele>
        <time>2017-01-16T17:43:29Z</time>
      </trkpt>
      <trkpt lat="48.62751" lon="-1.90033">
        <ele>23</ele>
        <time>2017-01-16T17:45:29Z</time>
      </trkpt>
      <trkpt lat="48.62754" lon="-1.90049">
        <ele>23</ele>
        <time>2017-01-16T17:47:29Z</time>
      </trkpt>
      <trkpt lat="48.62756" lon="-1.90063">
        <ele>23</ele>
        <time>2017-01-16T17:49:29Z</time>
      </trkpt>
      <trkpt lat="48.62758" lon="-1.90079">
        <ele>24</ele>
        <time>2017-01-16T17:51:29Z</time>
      </trkpt>
      <trkpt lat="48.6276" lon="-1.90095">
        <ele>25</ele>
        <time>2017-01-16T17:53:29Z</time>
      </trkpt>
      <trkpt lat="48.62763" lon="-1.90112">
        <ele>25</ele>
        <time>2017-01-16T17:55:29Z</time>
      </trkpt>
      <trkpt lat="48.62765" lon="-1.90128">
        <ele>26</ele>
        <time>2017-01-16T17:57:29Z</time>
      </trkpt>
      <trkpt lat="48.62766" lon="-1.90161">
        <ele>28</ele>
        <time>2017-01-16T17:59:29Z</time>
      </trkpt>
      <trkpt lat="48.62768" lon="-1.90176">
        <ele>29</ele>
        <time>2017-01-16T18:01:29Z</time>
      </trkpt>
      <trkpt lat="48.6277" lon="-1.90191">
        <ele>30</ele>
        <time>2017-01-16T18:03:29Z</time>
      </trkpt>
      <trkpt lat="48.6277" lon="-1.90207">
        <ele>31</ele>
        <time>2017-01-16T18:05:29Z</time>
      </trkpt>
      <trkpt lat="48.62772" lon="-1.90222">
        <ele>31</ele>
        <time>2017-01-16T18:07:29Z</time>
      </trkpt>
      <trkpt lat="48.62771" lon="-1.90238">
        <ele>32</ele>
        <time>2017-01-16T18:09:29Z</time>
      </trkpt>
      <trkpt lat="48.62774" lon="-1.90253">
        <ele>33</ele>
        <time>2017-01-16T18:11:29Z</time>
      </trkpt>
      <trkpt lat="48.62776" lon="-1.9027">
        <ele>34</ele>
        <time>2017-01-16T18:13:29Z</time>
      </trkpt>
      <trkpt lat="48.62778" lon="-1.90286">
        <ele>35</ele>
        <time>2017-01-16T18:15:29Z</time>
      </trkpt>
      <trkpt lat="48.6278" lon="-1.90301">
        <ele>36</ele>
        <time>2017-01-16T18:17:29Z</time>
      </trkpt>
      <trkpt lat="48.62782" lon="-1.90316">
        <ele>37</ele>
        <time>2017-01-16T18:19:29Z</time>
      </trkpt>
      <trkpt lat="48.62778" lon="-1.90347">
        <ele>38</ele>
        <time>2017-01-16T18:21:29Z</time>
      </trkpt>
      <trkpt lat="48.62776" lon="-1.90376">
        <ele>39</ele>
        <time>2017-01-16T18:23:29Z</time>
      </trkpt>
      <trkpt lat="48.62774" lon="-1.90392">
        <ele>39</ele>
        <time>2017-01-16T18:25:29Z</time>
      </trkpt>
      <trkpt lat="48.62775" lon="-1.90408">
        <ele>39</ele>
        <time>2017-01-16T18:27:29Z</time>
      </trkpt>
      <trkpt lat="48.62774" lon="-1.90422">
        <ele>40</ele>
        <time>2017-01-16T18:29:29Z</time>
      </trkpt>
      <trkpt lat="48.62772" lon="-1.90437">
        <ele>40</ele>
        <time>2017-01-16T18:31:29Z</time>
      </trkpt>
      <trkpt lat="48.62773" lon="-1.90451">
        <ele>40</ele>
        <time>2017-01-16T18:33:29Z</time>
      </trkpt>
      <trkpt lat="48.62777" lon="-1.90465">
        <ele>40</ele>
        <time>2017-01-16T18:35:29Z</time>
      </trkpt>
      <trkpt lat="48.62786" lon="-1.90468">
        <ele>40</ele>
        <time>2017-01-16T18:37:29Z</time>
      </trkpt>
      <trkpt lat="48.62807" lon="-1.90469">
        <ele>41</ele>
        <time>2017-01-16T18:39:29Z</time>
      </trkpt>
      <trkpt lat="48.62827" lon="-1.90473">
        <ele>41</ele>
        <time>2017-01-16T18:41:29Z</time>
      </trkpt>
      <trkpt lat="48.62847" lon="-1.90478">
        <ele>42</ele>
        <time>2017-01-16T18:43:29Z</time>
      </trkpt>
      <trkpt lat="48.62857" lon="-1.90482">
        <ele>42</ele>
        <time>2017-01-16T18:45:29Z</time>
      </trkpt>
      <trkpt lat="48.62865" lon="-1.90492">
        <ele>42</ele>
        <time>2017-01-16T18:47:29Z</time>
      </trkpt>
      <trkpt lat="48.62867" lon="-1.90506">
        <ele>42</ele>
        <time>2017-01-16T18:49:29Z</time>
      </trkpt>
      <trkpt lat="48.62866" lon="-1.90521">
        <ele>42</ele>
        <time>2017-01-16T18:51:29Z</time>
      </trkpt>
      <trkpt lat="48.62865" lon="-1.90537">
        <ele>42</ele>
        <time>2017-01-16T18:53:29Z</time>
      </trkpt>
      <trkpt lat="48.62864" lon="-1.90553">
        <ele>42</ele>
        <time>2017-01-16T18:55:29Z</time>
      </trkpt>
      <trkpt lat="48.62862" lon="-1.90569">
        <ele>42</ele>
        <time>2017-01-16T18:57:29Z</time>
      </trkpt>
      <trkpt lat="48.62862" lon="-1.90585">
        <ele>42</ele>
        <time>2017-01-16T18:59:29Z</time>
      </trkpt>
      <trkpt lat="48.62862" lon="-1.90599">
        <ele>42</ele>
        <time>2017-01-16T19:01:29Z</time>
      </trkpt>
      <trkpt lat="48.62864" lon="-1.90616">
        <ele>42</ele>
        <time>2017-01-16T19:03:29Z</time>
      </trkpt>
      <trkpt lat="48.62867" lon="-1.90629">
        <ele>43</ele>
        <time>2017-01-16T19:05:29Z</time>
      </trkpt>
      <trkpt lat="48.6287" lon="-1.90644">
        <ele>43</ele>
        <time>2017-01-16T19:07:29Z</time>
      </trkpt>
      <trkpt lat="48.62872" lon="-1.9066">
        <ele>43</ele>
        <time>2017-01-16T19:09:29Z</time>
      </trkpt>
      <trkpt lat="48.62873" lon="-1.90676">
        <ele>44</ele>
        <time>2017-01-16T19:11:29Z</time>
      </trkpt>
      <trkpt lat="48.62873" lon="-1.90692">
        <ele>44</ele>
        <time>2017-01-16T19:13:29Z</time>
      </trkpt>
      <trkpt lat="48.62874" lon="-1.90708">
        <ele>44</ele>
        <time>2017-01-16T19:15:29Z</time>
      </trkpt>
      <trkpt lat="48.62875" lon="-1.90724">
        <ele>44</ele>
        <time>2017-01-16T19:17:29Z</time>
      </trkpt>
      <trkpt lat="48.62875" lon="-1.90739">
        <ele>44</ele>
        <time>2017-01-16T19:19:29Z</time>
      </trkpt>
      <trkpt lat="48.62875" lon="-1.90753">
        <ele>44</ele>
        <time>2017-01-16T19:21:29Z</time>
      </trkpt>
      <trkpt lat="48.62875" lon="-1.90768">
        <ele>44</ele>
        <time>2017-01-16T19:23:29Z</time>
      </trkpt>
      <trkpt lat="48.62873" lon="-1.90784">
        <ele>44</ele>
        <time>2017-01-16T19:25:29Z</time>
      </trkpt>
      <trkpt lat="48.62872" lon="-1.90798">
        <ele>44</ele>
        <time>2017-01-16T19:27:29Z</time>
      </trkpt>
      <trkpt lat="48.6287" lon="-1.90812">
        <ele>44</ele>
        <time>2017-01-16T19:29:29Z</time>
      </trkpt>
      <trkpt lat="48.62868" lon="-1.90829">
        <ele>44</ele>
        <time>2017-01-16T19:31:29Z</time>
      </trkpt>
      <trkpt lat="48.62865" lon="-1.90844">
        <ele>44</ele>
        <time>2017-01-16T19:33:29Z</time>
      </trkpt>
      <trkpt lat="48.6286" lon="-1.90858">
        <ele>44</ele>
        <time>2017-01-16T19:35:29Z</time>
      </trkpt>
      <trkpt lat="48.62858" lon="-1.90872">
        <ele>44</ele>
        <time>2017-01-16T19:37:29Z</time>
      </trkpt>
      <trkpt lat="48.6286" lon="-1.9089">
        <ele>44</ele>
        <time>2017-01-16T19:39:29Z</time>
      </trkpt>
      <trkpt lat="48.62861" lon="-1.90907">
        <ele>44</ele>
        <time>2017-01-16T19:41:29Z</time>
      </trkpt>
      <trkpt lat="48.62862" lon="-1.90924">
        <ele>44</ele>
        <time>2017-01-16T19:43:29Z</time>
      </trkpt>
      <trkpt lat="48.62864" lon="-1.9094">
        <ele>44</ele>
        <time>2017-01-16T19:45:29Z</time>
      </trkpt>
      <trkpt lat="48.62869" lon="-1.90955">
        <ele>45</ele>
        <time>2017-01-16T19:47:29Z</time>
      </trkpt>
      <trkpt lat="48.62872" lon="-1.90969">
        <ele>45</ele>
        <time>2017-01-16T19:49:29Z</time>
      </trkpt>
      <trkpt lat="48.62873" lon="-1.90986">
        <ele>45</ele>
        <time>2017-01-16T19:51:29Z</time>
      </trkpt>
      <trkpt lat="48.62877" lon="-1.91004">
        <ele>46</ele>
        <time>2017-01-16T19:53:29Z</time>
      </trkpt>
      <trkpt lat="48.6288" lon="-1.9102">
        <ele>46</ele>
        <time>2017-01-16T19:55:29Z</time>
      </trkpt>
      <trkpt lat="48.62882" lon="-1.91034">
        <ele>47</ele>
        <time>2017-01-16T19:57:29Z</time>
      </trkpt>
      <trkpt lat="48.62887" lon="-1.91064">
        <ele>48</ele>
        <time>2017-01-16T19:59:29Z</time>
      </trkpt>
      <trkpt lat="48.62892" lon="-1.91112">
        <ele>50</ele>
        <time>2017-01-16T20:01:29Z</time>
      </trkpt>
      <trkpt lat="48.62895" lon="-1.91127">
        <ele>50</ele>
        <time>2017-01-16T20:03:29Z</time>
      </trkpt>
      <trkpt lat="48.62903" lon="-1.91187">
        <ele>52</ele>
        <time>2017-01-16T20:05:29Z</time>
      </trkpt>
      <trkpt lat="48.62904" lon="-1.91202">
        <ele>53</ele>
        <time>2017-01-16T20:07:29Z</time>
      </trkpt>
      <trkpt lat="48.62906" lon="-1.91218">
        <ele>54</ele>
        <time>2017-01-16T20:09:29Z</time>
      </trkpt>
      <trkpt lat="48.62909" lon="-1.91232">
        <ele>54</ele>
        <time>2017-01-16T20:11:29Z</time>
      </trkpt>
      <trkpt lat="48.62916" lon="-1.91241">
        <ele>55</ele>
        <time>2017-01-16T20:13:29Z</time>
      </trkpt>
      <trkpt lat="48.62926" lon="-1.91237">
        <ele>55</ele>
        <time>2017-01-16T20:15:29Z</time>
      </trkpt>
      <trkpt lat="48.62935" lon="-1.91234">
        <ele>55</ele>
        <time>2017-01-16T20:17:29Z</time>
      </trkpt>
      <trkpt lat="48.62944" lon="-1.91231">
        <ele>55</ele>
        <time>2017-01-16T20:19:29Z</time>
      </trkpt>
      <trkpt lat="48.62954" lon="-1.91228">
        <ele>55</ele>
        <time>2017-01-16T20:21:29Z</time>
      </trkpt>
      <trkpt lat="48.62974" lon="-1.91223">
        <ele>55</ele>
        <time>2017-01-16T20:23:29Z</time>
      </trkpt>
      <trkpt lat="48.62993" lon="-1.91217">
        <ele>55</ele>
        <time>2017-01-16T20:25:29Z</time>
      </trkpt>
      <trkpt lat="48.63012" lon="-1.91209">
        <ele>54</ele>
        <time>2017-01-16T20:27:29Z</time>
      </trkpt>
      <trkpt lat="48.63032" lon="-1.91204">
        <ele>54</ele>
        <time>2017-01-16T20:29:29Z</time>
      </trkpt>
      <trkpt lat="48.63082" lon="-1.91188">
        <ele>54</ele>
        <time>2017-01-16T20:31:29Z</time>
      </trkpt>
      <trkpt lat="48.63092" lon="-1.91186">
        <ele>53</ele>
        <time>2017-01-16T20:33:29Z</time>
      </trkpt>
      <trkpt lat="48.63098" lon="-1.91183">
        <ele>53</ele>
        <time>2017-01-16T20:35:29Z</time>
      </trkpt>
      <trkpt lat="48.63101" lon="-1.91198">
        <ele>54</ele>
        <time>2017-01-16T20:37:29Z</time>
      </trkpt>
      <trkpt lat="48.63098" lon="-1.91211">
        <ele>54</ele>
        <time>2017-01-16T20:39:29Z</time>
      </trkpt>
      <trkpt lat="48.63095" lon="-1.91227">
        <ele>54</ele>
        <time>2017-01-16T20:41:29Z</time>
      </trkpt>
      <trkpt lat="48.63089" lon="-1.91239">
        <ele>55</ele>
        <time>2017-01-16T20:43:29Z</time>
      </trkpt>
      <trkpt lat="48.63085" lon="-1.91254">
        <ele>55</ele>
        <time>2017-01-16T20:45:29Z</time>
      </trkpt>
      <trkpt lat="48.6308" lon="-1.91266">
        <ele>55</ele>
        <time>2017-01-16T20:47:29Z</time>
      </trkpt>
      <trkpt lat="48.63075" lon="-1.91281">
        <ele>56</ele>
        <time>2017-01-16T20:49:29Z</time>
      </trkpt>
      <trkpt lat="48.6306" lon="-1.91319">
        <ele>57</ele>
        <time>2017-01-16T20:51:29Z</time>
      </trkpt>
      <trkpt lat="48.63057" lon="-1.91332">
        <ele>58</ele>
        <time>2017-01-16T20:53:29Z</time>
      </trkpt>
      <trkpt lat="48.63051" lon="-1.91345">
        <ele>58</ele>
        <time>2017-01-16T20:55:29Z</time>
      </trkpt>
      <trkpt lat="48.63041" lon="-1.91371">
        <ele>58</ele>
        <time>2017-01-16T20:57:29Z</time>
      </trkpt>
      <trkpt lat="48.63037" lon="-1.91385">
        <ele>58</ele>
        <time>2017-01-16T20:59:29Z</time>
      </trkpt>
      <trkpt lat="48.63031" lon="-1.91397">
        <ele>58</ele>
        <time>2017-01-16T21:01:29Z</time>
      </trkpt>
      <trkpt lat="48.63026" lon="-1.91411">
        <ele>58</ele>
        <time>2017-01-16T21:03:29Z</time>
      </trkpt>
      <trkpt lat="48.63021" lon="-1.91423">
        <ele>58</ele>
        <time>2017-01-16T21:05:29Z</time>
      </trkpt>
      <trkpt lat="48.63015" lon="-1.91437">
        <ele>58</ele>
        <time>2017-01-16T21:07:29Z</time>
      </trkpt>
      <trkpt lat="48.6301" lon="-1.91449">
        <ele>58</ele>
        <time>2017-01-16T21:09:29Z</time>
      </trkpt>
      <trkpt lat="48.63004" lon="-1.91463">
        <ele>58</ele>
        <time>2017-01-16T21:11:29Z</time>
      </trkpt>
      <trkpt lat="48.62998" lon="-1.91477">
        <ele>58</ele>
        <time>2017-01-16T21:13:29Z</time>
      </trkpt>
      <trkpt lat="48.62991" lon="-1.91488">
        <ele>57</ele>
        <time>2017-01-16T21:15:29Z</time>
      </trkpt>
      <trkpt lat="48.62985" lon="-1.91501">
        <ele>57</ele>
        <time>2017-01-16T21:17:29Z</time>
      </trkpt>
      <trkpt lat="48.62978" lon="-1.91513">
        <ele>57</ele>
        <time>2017-01-16T21:19:29Z</time>
      </trkpt>
      <trkpt lat="48.62971" lon="-1.91526">
        <ele>57</ele>
        <time>2017-01-16T21:21:29Z</time>
      </trkpt>
      <trkpt lat="48.62969" lon="-1.91539">
        <ele>57</ele>
        <time>2017-01-16T21:23:29Z</time>
      </trkpt>
      <trkpt lat="48.62973" lon="-1.91554">
        <ele>57</ele>
        <time>2017-01-16T21:25:29Z</time>
      </trkpt>
      <trkpt lat="48.62976" lon="-1.9157">
        <ele>56</ele>
        <time>2017-01-16T21:27:29Z</time>
      </trkpt>
      <trkpt lat="48.62978" lon="-1.91585">
        <ele>56</ele>
        <time>2017-01-16T21:29:29Z</time>
      </trkpt>
      <trkpt lat="48.62982" lon="-1.91618">
        <ele>55</ele>
        <time>2017-01-16T21:31:29Z</time>
      </trkpt>
      <trkpt lat="48.62984" lon="-1.91633">
        <ele>55</ele>
        <time>2017-01-16T21:33:29Z</time>
      </trkpt>
      <trkpt lat="48.62985" lon="-1.91649">
        <ele>55</ele>
        <time>2017-01-16T21:35:29Z</time>
      </trkpt>
      <trkpt lat="48.62987" lon="-1.91665">
        <ele>54</ele>
        <time>2017-01-16T21:37:29Z</time>
      </trkpt>
      <trkpt lat="48.62994" lon="-1.91671">
        <ele>54</ele>
        <time>2017-01-16T21:39:29Z</time>
      </trkpt>
      <trkpt lat="48.63014" lon="-1.91665">
        <ele>54</ele>
        <time>2017-01-16T21:41:29Z</time>
      </trkpt>
      <trkpt lat="48.63032" lon="-1.91659">
        <ele>54</ele>
        <time>2017-01-16T21:43:29Z</time>
      </trkpt>
      <trkpt lat="48.63043" lon="-1.91657">
        <ele>54</ele>
        <time>2017-01-16T21:45:29Z</time>
      </trkpt>
      <trkpt lat="48.63062" lon="-1.91651">
        <ele>53</ele>
        <time>2017-01-16T21:47:29Z</time>
      </trkpt>
      <trkpt lat="48.63082" lon="-1.91643">
        <ele>53</ele>
        <time>2017-01-16T21:49:29Z</time>
      </trkpt>
      <trkpt lat="48.631" lon="-1.91633">
        <ele>53</ele>
        <time>2017-01-16T21:51:29Z</time>
      </trkpt>
      <trkpt lat="48.63109" lon="-1.91629">
        <ele>53</ele>
        <time>2017-01-16T21:53:29Z</time>
      </trkpt>
      <trkpt lat="48.63118" lon="-1.91623">
        <ele>53</ele>
        <time>2017-01-16T21:55:29Z</time>
      </trkpt>
      <trkpt lat="48.63126" lon="-1.91612">
        <ele>53</ele>
        <time>2017-01-16T21:57:29Z</time>
      </trkpt>
      <trkpt lat="48.63136" lon="-1.91605">
        <ele>53</ele>
        <time>2017-01-16T21:59:29Z</time>
      </trkpt>
      <trkpt lat="48.63144" lon="-1.91599">
        <ele>53</ele>
        <time>2017-01-16T22:01:29Z</time>
      </trkpt>
      <trkpt lat="48.63155" lon="-1.91595">
        <ele>53</ele>
        <time>2017-01-16T22:03:29Z</time>
      </trkpt>
      <trkpt lat="48.63163" lon="-1.91591">
        <ele>53</ele>
        <time>2017-01-16T22:05:29Z</time>
      </trkpt>
      <trkpt lat="48.63171" lon="-1.91586">
        <ele>53</ele>
        <time>2017-01-16T22:07:29Z</time>
      </trkpt>
      <trkpt lat="48.6317" lon="-1.91585">
        <ele>53</ele>
        <time>2017-01-16T22:09:29Z</time>
      </trkpt>
      <trkpt lat="48.63177" lon="-1.91578">
        <ele>53</ele>
        <time>2017-01-16T22:11:29Z</time>
      </trkpt>
      <trkpt lat="48.63184" lon="-1.91567">
        <ele>53</ele>
        <time>2017-01-16T22:13:29Z</time>
      </trkpt>
      <trkpt lat="48.63193" lon="-1.91558">
        <ele>53</ele>
        <time>2017-01-16T22:15:29Z</time>
      </trkpt>
      <trkpt lat="48.63201" lon="-1.91553">
        <ele>53</ele>
        <time>2017-01-16T22:17:29Z</time>
      </trkpt>
      <trkpt lat="48.6321" lon="-1.91549">
        <ele>53</ele>
        <time>2017-01-16T22:19:29Z</time>
      </trkpt>
      <trkpt lat="48.63219" lon="-1.91546">
        <ele>52</ele>
        <time>2017-01-16T22:21:29Z</time>
      </trkpt>
      <trkpt lat="48.63229" lon="-1.91544">
        <ele>52</ele>
        <time>2017-01-16T22:23:29Z</time>
      </trkpt>
      <trkpt lat="48.63259" lon="-1.91526">
        <ele>52</ele>
        <time>2017-01-16T22:25:29Z</time>
      </trkpt>
      <trkpt lat="48.6327" lon="-1.9152">
        <ele>52</ele>
        <time>2017-01-16T22:27:29Z</time>
      </trkpt>
      <trkpt lat="48.63279" lon="-1.91514">
        <ele>52</ele>
        <time>2017-01-16T22:29:29Z</time>
      </trkpt>
      <trkpt lat="48.6329" lon="-1.91509">
        <ele>52</ele>
        <time>2017-01-16T22:31:29Z</time>
      </trkpt>
      <trkpt lat="48.63291" lon="-1.91521">
        <ele>52</ele>
        <time>2017-01-16T22:33:29Z</time>
      </trkpt>
      <trkpt lat="48.63287" lon="-1.9155">
        <ele>51</ele>
        <time>2017-01-16T22:35:29Z</time>
      </trkpt>
      <trkpt lat="48.63289" lon="-1.91539">
        <ele>51</ele>
        <time>2017-01-16T22:37:29Z</time>
      </trkpt>
      <trkpt lat="48.63283" lon="-1.91529">
        <ele>52</ele>
        <time>2017-01-16T22:39:29Z</time>
      </trkpt>
      <trkpt lat="48.63279" lon="-1.91543">
        <ele>51</ele>
        <time>2017-01-16T22:41:29Z</time>
      </trkpt>
      <trkpt lat="48.63277" lon="-1.91558">
        <ele>51</ele>
        <time>2017-01-16T22:43:29Z</time>
      </trkpt>
      <trkpt lat="48.63273" lon="-1.91572">
        <ele>51</ele>
        <time>2017-01-16T22:45:29Z</time>
      </trkpt>
      <trkpt lat="48.63266" lon="-1.91586">
        <ele>51</ele>
        <time>2017-01-16T22:47:29Z</time>
      </trkpt>
      <trkpt lat="48.63259" lon="-1.916">
        <ele>50</ele>
        <time>2017-01-16T22:49:29Z</time>
      </trkpt>
      <trkpt lat="48.63253" lon="-1.91612">
        <ele>50</ele>
        <time>2017-01-16T22:51:29Z</time>
      </trkpt>
      <trkpt lat="48.63239" lon="-1.91635">
        <ele>49</ele>
        <time>2017-01-16T22:53:29Z</time>
      </trkpt>
      <trkpt lat="48.63232" lon="-1.91648">
        <ele>49</ele>
        <time>2017-01-16T22:55:29Z</time>
      </trkpt>
      <trkpt lat="48.63225" lon="-1.9166">
        <ele>49</ele>
        <time>2017-01-16T22:57:29Z</time>
      </trkpt>
      <trkpt lat="48.63221" lon="-1.91675">
        <ele>49</ele>
        <time>2017-01-16T22:59:29Z</time>
      </trkpt>
      <trkpt lat="48.6322" lon="-1.91691">
        <ele>49</ele>
        <time>2017-01-16T23:01:29Z</time>
      </trkpt>
      <trkpt lat="48.63222" lon="-1.91706">
        <ele>48</ele>
        <time>2017-01-16T23:03:29Z</time>
      </trkpt>
      <trkpt lat="48.63224" lon="-1.91721">
        <ele>48</ele>
        <time>2017-01-16T23:05:29Z</time>
      </trkpt>
      <trkpt lat="48.63225" lon="-1.91737">
        <ele>48</ele>
        <time>2017-01-16T23:07:29Z</time>
      </trkpt>
      <trkpt lat="48.63227" lon="-1.91751">
        <ele>47</ele>
        <time>2017-01-16T23:09:29Z</time>
      </trkpt>
      <trkpt lat="48.63229" lon="-1.91765">
        <ele>47</ele>
        <time>2017-01-16T23:11:29Z</time>
      </trkpt>
      <trkpt lat="48.63231" lon="-1.91779">
        <ele>47</ele>
        <time>2017-01-16T23:13:29Z</time>
      </trkpt>
      <trkpt lat="48.63234" lon="-1.91793">
        <ele>47</ele>
        <time>2017-01-16T23:15:29Z</time>
      </trkpt>
      <trkpt lat="48.63234" lon="-1.91808">
        <ele>46</ele>
        <time>2017-01-16T23:17:29Z</time>
      </trkpt>
      <trkpt lat="48.63236" lon="-1.91822">
        <ele>46</ele>
        <time>2017-01-16T23:19:29Z</time>
      </trkpt>
      <trkpt lat="48.63237" lon="-1.91839">
        <ele>46</ele>
        <time>2017-01-16T23:21:29Z</time>
      </trkpt>
      <trkpt lat="48.63239" lon="-1.91853">
        <ele>46</ele>
        <time>2017-01-16T23:23:29Z</time>
      </trkpt>
      <trkpt lat="48.63239" lon="-1.9187">
        <ele>46</ele>
        <time>2017-01-16T23:25:29Z</time>
      </trkpt>
      <trkpt lat="48.63241" lon="-1.91886">
        <ele>46</ele>
        <time>2017-01-16T23:27:29Z</time>
      </trkpt>
      <trkpt lat="48.63242" lon="-1.91899">
        <ele>46</ele>
        <time>2017-01-16T23:29:29Z</time>
      </trkpt>
      <trkpt lat="48.63242" lon="-1.91929">
        <ele>46</ele>
        <time>2017-01-16T23:31:29Z</time>
      </trkpt>
      <trkpt lat="48.63244" lon="-1.91944">
        <ele>46</ele>
        <time>2017-01-16T23:33:29Z</time>
      </trkpt>
      <trkpt lat="48.63245" lon="-1.91975">
        <ele>45</ele>
        <time>2017-01-16T23:35:29Z</time>
      </trkpt>
      <trkpt lat="48.63247" lon="-1.91992">
        <ele>45</ele>
        <time>2017-01-16T23:37:29Z</time>
      </trkpt>
      <trkpt lat="48.63251" lon="-1.92023">
        <ele>45</ele>
        <time>2017-01-16T23:39:29Z</time>
      </trkpt>
      <trkpt lat="48.63254" lon="-1.92038">
        <ele>45</ele>
        <time>2017-01-16T23:41:29Z</time>
      </trkpt>
      <trkpt lat="48.63257" lon="-1.92052">
        <ele>44</ele>
        <time>2017-01-16T23:43:29Z</time>
      </trkpt>
      <trkpt lat="48.63258" lon="-1.92067">
        <ele>44</ele>
        <time>2017-01-16T23:45:29Z</time>
      </trkpt>
      <trkpt lat="48.63261" lon="-1.92083">
        <ele>44</ele>
        <time>2017-01-16T23:47:29Z</time>
      </trkpt>
      <trkpt lat="48.63262" lon="-1.92098">
        <ele>44</ele>
        <time>2017-01-16T23:49:29Z</time>
      </trkpt>
      <trkpt lat="48.63263" lon="-1.92114">
        <ele>44</ele>
        <time>2017-01-16T23:51:29Z</time>
      </trkpt>
      <trkpt lat="48.63268" lon="-1.92144">
        <ele>45</ele>
        <time>2017-01-16T23:53:29Z</time>
      </trkpt>
      <trkpt lat="48.63271" lon="-1.9216">
        <ele>45</ele>
        <time>2017-01-16T23:55:29Z</time>
      </trkpt>
      <trkpt lat="48.63278" lon="-1.92204">
        <ele>45</ele>
        <time>2017-01-16T23:57:29Z</time>
      </trkpt>
      <trkpt lat="48.63281" lon="-1.9222">
        <ele>45</ele>
        <time>2017-01-16T23:59:29Z</time>
      </trkpt>
      <trkpt lat="48.63283" lon="-1.92236">
        <ele>45</ele>
        <time>2017-01-17T00:01:29Z</time>
      </trkpt>
      <trkpt lat="48.63286" lon="-1.92247">
        <ele>46</ele>
        <time>2017-01-17T00:03:29Z</time>
      </trkpt>
      <trkpt lat="48.63296" lon="-1.9225">
        <ele>45</ele>
        <time>2017-01-17T00:05:29Z</time>
      </trkpt>
      <trkpt lat="48.63307" lon="-1.92248">
        <ele>45</ele>
        <time>2017-01-17T00:07:29Z</time>
      </trkpt>
      <trkpt lat="48.63338" lon="-1.92245">
        <ele>45</ele>
        <time>2017-01-17T00:09:29Z</time>
      </trkpt>
      <trkpt lat="48.63348" lon="-1.92243">
        <ele>45</ele>
        <time>2017-01-17T00:11:29Z</time>
      </trkpt>
      <trkpt lat="48.63357" lon="-1.92242">
        <ele>45</ele>
        <time>2017-01-17T00:13:29Z</time>
      </trkpt>
      <trkpt lat="48.63369" lon="-1.92244">
        <ele>45</ele>
        <time>2017-01-17T00:15:29Z</time>
      </trkpt>
      <trkpt lat="48.63379" lon="-1.92247">
        <ele>45</ele>
        <time>2017-01-17T00:17:29Z</time>
      </trkpt>
      <trkpt lat="48.63391" lon="-1.92248">
        <ele>45</ele>
        <time>2017-01-17T00:19:29Z</time>
      </trkpt>
      <trkpt lat="48.63401" lon="-1.92255">
        <ele>45</ele>
        <time>2017-01-17T00:21:29Z</time>
      </trkpt>
      <trkpt lat="48.63403" lon="-1.92268">
        <ele>45</ele>
        <time>2017-01-17T00:23:29Z</time>
      </trkpt>
      <trkpt lat="48.63401" lon="-1.92283">
        <ele>45</ele>
        <time>2017-01-17T00:25:29Z</time>
      </trkpt>
      <trkpt lat="48.63388" lon="-1.92284">
        <ele>45</ele>
        <time>2017-01-17T00:27:29Z</time>
      </trkpt>
      <trkpt lat="48.63377" lon="-1.92284">
        <ele>45</ele>
        <time>2017-01-17T00:29:29Z</time>
      </trkpt>
      <trkpt lat="48.63367" lon="-1.92286">
        <ele>45</ele>
        <time>2017-01-17T00:31:29Z</time>
      </trkpt>
      <trkpt lat="48.63358" lon="-1.92292">
        <ele>45</ele>
        <time>2017-01-17T00:33:29Z</time>
      </trkpt>
      <trkpt lat="48.63355" lon="-1.92309">
        <ele>45</ele>
        <time>2017-01-17T00:35:29Z</time>
      </trkpt>
      <trkpt lat="48.63356" lon="-1.92325">
        <ele>45</ele>
        <time>2017-01-17T00:37:29Z</time>
      </trkpt>
      <trkpt lat="48.63356" lon="-1.92343">
        <ele>45</ele>
        <time>2017-01-17T00:39:29Z</time>
      </trkpt>
      <trkpt lat="48.63356" lon="-1.9236">
        <ele>45</ele>
        <time>2017-01-17T00:41:29Z</time>
      </trkpt>
      <trkpt lat="48.63347" lon="-1.92371">
        <ele>45</ele>
        <time>2017-01-17T00:43:29Z</time>
      </trkpt>
      <trkpt lat="48.63334" lon="-1.92372">
        <ele>45</ele>
        <time>2017-01-17T00:45:29Z</time>
      </trkpt>
      <trkpt lat="48.63323" lon="-1.92374">
        <ele>45</ele>
        <time>2017-01-17T00:47:29Z</time>
      </trkpt>
      <trkpt lat="48.63313" lon="-1.92381">
        <ele>45</ele>
        <time>2017-01-17T00:49:29Z</time>
      </trkpt>
      <trkpt lat="48.63306" lon="-1.92392">
        <ele>45</ele>
        <time>2017-01-17T00:51:29Z</time>
      </trkpt>
      <trkpt lat="48.63303" lon="-1.92406">
        <ele>45</ele>
        <time>2017-01-17T00:53:29Z</time>
      </trkpt>
      <trkpt lat="48.63303" lon="-1.92423">
        <ele>45</ele>
        <time>2017-01-17T00:55:29Z</time>
      </trkpt>
      <trkpt lat="48.63301" lon="-1.92439">
        <ele>45</ele>
        <time>2017-01-17T00:57:29Z</time>
      </trkpt>
      <trkpt lat="48.63299" lon="-1.92454">
        <ele>44</ele>
        <time>2017-01-17T00:59:29Z</time>
      </trkpt>
      <trkpt lat="48.63297" lon="-1.9247">
        <ele>44</ele>
        <time>2017-01-17T01:01:29Z</time>
      </trkpt>
      <trkpt lat="48.63297" lon="-1.92487">
        <ele>44</ele>
        <time>2017-01-17T01:03:29Z</time>
      </trkpt>
      <trkpt lat="48.63296" lon="-1.925">
        <ele>43</ele>
        <time>2017-01-17T01:05:29Z</time>
      </trkpt>
      <trkpt lat="48.63295" lon="-1.92532">
        <ele>44</ele>
        <time>2017-01-17T01:07:29Z</time>
      </trkpt>
      <trkpt lat="48.63295" lon="-1.92547">
        <ele>44</ele>
        <time>2017-01-17T01:09:29Z</time>
      </trkpt>
      <trkpt lat="48.63296" lon="-1.92563">
        <ele>44</ele>
        <time>2017-01-17T01:11:29Z</time>
      </trkpt>
      <trkpt lat="48.63296" lon="-1.92577">
        <ele>44</ele>
        <time>2017-01-17T01:13:29Z</time>
      </trkpt>
      <trkpt lat="48.63297" lon="-1.92594">
        <ele>44</ele>
        <time>2017-01-17T01:15:29Z</time>
      </trkpt>
      <trkpt lat="48.63296" lon="-1.92621">
        <ele>44</ele>
        <time>2017-01-17T01:17:29Z</time>
      </trkpt>
      <trkpt lat="48.63295" lon="-1.92652">
        <ele>45</ele>
        <time>2017-01-17T01:19:29Z</time>
      </trkpt>
      <trkpt lat="48.63294" lon="-1.92667">
        <ele>45</ele>
        <time>2017-01-17T01:21:29Z</time>
      </trkpt>
      <trkpt lat="48.63293" lon="-1.92696">
        <ele>45</ele>
        <time>2017-01-17T01:23:29Z</time>
      </trkpt>
      <trkpt lat="48.63293" lon="-1.92712">
        <ele>45</ele>
        <time>2017-01-17T01:25:29Z</time>
      </trkpt>
      <trkpt lat="48.63293" lon="-1.92727">
        <ele>45</ele>
        <time>2017-01-17T01:27:29Z</time>
      </trkpt>
      <trkpt lat="48.63292" lon="-1.92744">
        <ele>45</ele>
        <time>2017-01-17T01:29:29Z</time>
      </trkpt>
      <trkpt lat="48.63288" lon="-1.92759">
        <ele>45</ele>
        <time>2017-01-17T01:31:29Z</time>
      </trkpt>
      <trkpt lat="48.63284" lon="-1.9277">
        <ele>45</ele>
        <time>2017-01-17T01:33:29Z</time>
      </trkpt>
      <trkpt lat="48.63279" lon="-1.92784">
        <ele>44</ele>
        <time>2017-01-17T01:35:29Z</time>
      </trkpt>
      <trkpt lat="48.63274" lon="-1.92798">
        <ele>44</ele>
        <time>2017-01-17T01:37:29Z</time>
      </trkpt>
      <trkpt lat="48.63266" lon="-1.92825">
        <ele>43</ele>
        <time>2017-01-17T01:39:29Z</time>
      </trkpt>
      <trkpt lat="48.63254" lon="-1.92867">
        <ele>43</ele>
        <time>2017-01-17T01:41:29Z</time>
      </trkpt>
      <trkpt lat="48.63251" lon="-1.92882">
        <ele>42</ele>
        <time>2017-01-17T01:43:29Z</time>
      </trkpt>
      <trkpt lat="48.63248" lon="-1.92897">
        <ele>42</ele>
        <time>2017-01-17T01:45:29Z</time>
      </trkpt>
      <trkpt lat="48.63251" lon="-1.9291">
        <ele>42</ele>
        <time>2017-01-17T01:47:29Z</time>
      </trkpt>
      <trkpt lat="48.6326" lon="-1.92918">
        <ele>42</ele>
        <time>2017-01-17T01:49:29Z</time>
      </trkpt>
      <trkpt lat="48.63268" lon="-1.92925">
        <ele>42</ele>
        <time>2017-01-17T01:51:29Z</time>
      </trkpt>
      <trkpt lat="48.63277" lon="-1.92934">
        <ele>42</ele>
        <time>2017-01-17T01:53:29Z</time>
      </trkpt>
      <trkpt lat="48.63286" lon="-1.92941">
        <ele>42</ele>
        <time>2017-01-17T01:55:29Z</time>
      </trkpt>
      <trkpt lat="48.63303" lon="-1.92957">
        <ele>43</ele>
        <time>2017-01-17T01:57:29Z</time>
      </trkpt>
      <trkpt lat="48.63312" lon="-1.92966">
        <ele>42</ele>
        <time>2017-01-17T01:59:29Z</time>
      </trkpt>
      <trkpt lat="48.63321" lon="-1.92974">
        <ele>42</ele>
        <time>2017-01-17T02:01:29Z</time>
      </trkpt>
      <trkpt lat="48.63329" lon="-1.92981">
        <ele>42</ele>
        <time>2017-01-17T02:03:29Z</time>
      </trkpt>
      <trkpt lat="48.63339" lon="-1.92988">
        <ele>42</ele>
        <time>2017-01-17T02:05:29Z</time>
      </trkpt>
      <trkpt lat="48.63348" lon="-1.92993">
        <ele>42</ele>
        <time>2017-01-17T02:07:29Z</time>
      </trkpt>
      <trkpt lat="48.63357" lon="-1.93">
        <ele>42</ele>
        <time>2017-01-17T02:09:29Z</time>
      </trkpt>
      <trkpt lat="48.63366" lon="-1.93005">
        <ele>42</ele>
        <time>2017-01-17T02:11:29Z</time>
      </trkpt>
      <trkpt lat="48.63375" lon="-1.9301">
        <ele>42</ele>
        <time>2017-01-17T02:13:29Z</time>
      </trkpt>
      <trkpt lat="48.63393" lon="-1.93024">
        <ele>42</ele>
        <time>2017-01-17T02:15:29Z</time>
      </trkpt>
      <trkpt lat="48.63403" lon="-1.93031">
        <ele>42</ele>
        <time>2017-01-17T02:17:29Z</time>
      </trkpt>
      <trkpt lat="48.63413" lon="-1.93036">
        <ele>42</ele>
        <time>2017-01-17T02:19:29Z</time>
      </trkpt>
      <trkpt lat="48.63433" lon="-1.93045">
        <ele>42</ele>
        <time>2017-01-17T02:21:29Z</time>
      </trkpt>
      <trkpt lat="48.63442" lon="-1.93051">
        <ele>42</ele>
        <time>2017-01-17T02:23:29Z</time>
      </trkpt>
      <trkpt lat="48.63451" lon="-1.93054">
        <ele>42</ele>
        <time>2017-01-17T02:25:29Z</time>
      </trkpt>
      <trkpt lat="48.63461" lon="-1.93058">
        <ele>42</ele>
        <time>2017-01-17T02:27:29Z</time>
      </trkpt>
      <trkpt lat="48.63469" lon="-1.93066">
        <ele>42</ele>
        <time>2017-01-17T02:29:29Z</time>
      </trkpt>
      <trkpt lat="48.63471" lon="-1.93081">
        <ele>42</ele>
        <time>2017-01-17T02:31:29Z</time>
      </trkpt>
      <trkpt lat="48.63468" lon="-1.93097">
        <ele>41</ele>
        <time>2017-01-17T02:33:29Z</time>
      </trkpt>
      <trkpt lat="48.63462" lon="-1.93111">
        <ele>41</ele>
        <time>2017-01-17T02:35:29Z</time>
      </trkpt>
      <trkpt lat="48.63457" lon="-1.93123">
        <ele>41</ele>
        <time>2017-01-17T02:37:29Z</time>
      </trkpt>
      <trkpt lat="48.63451" lon="-1.93135">
        <ele>41</ele>
        <time>2017-01-17T02:39:29Z</time>
      </trkpt>
      <trkpt lat="48.63445" lon="-1.93147">
        <ele>40</ele>
        <time>2017-01-17T02:41:29Z</time>
      </trkpt>
      <trkpt lat="48.63436" lon="-1.93172">
        <ele>40</ele>
        <time>2017-01-17T02:43:29Z</time>
      </trkpt>
      <trkpt lat="48.63427" lon="-1.932">
        <ele>40</ele>
        <time>2017-01-17T02:45:29Z</time>
      </trkpt>
      <trkpt lat="48.63423" lon="-1.93212">
        <ele>40</ele>
        <time>2017-01-17T02:47:29Z</time>
      </trkpt>
      <trkpt lat="48.63409" lon="-1.93265">
        <ele>40</ele>
        <time>2017-01-17T02:49:29Z</time>
      </trkpt>
      <trkpt lat="48.63407" lon="-1.93279">
        <ele>40</ele>
        <time>2017-01-17T02:51:29Z</time>
      </trkpt>
      <trkpt lat="48.63399" lon="-1.93326">
        <ele>40</ele>
        <time>2017-01-17T02:53:29Z</time>
      </trkpt>
      <trkpt lat="48.63398" lon="-1.9334">
        <ele>39</ele>
        <time>2017-01-17T02:55:29Z</time>
      </trkpt>
      <trkpt lat="48.63394" lon="-1.93386">
        <ele>39</ele>
        <time>2017-01-17T02:57:29Z</time>
      </trkpt>
      <trkpt lat="48.63393" lon="-1.93403">
        <ele>39</ele>
        <time>2017-01-17T02:59:29Z</time>
      </trkpt>
      <trkpt lat="48.6339" lon="-1.93435">
        <ele>38</ele>
        <time>2017-01-17T03:01:29Z</time>
      </trkpt>
      <trkpt lat="48.63394" lon="-1.9345">
        <ele>38</ele>
        <time>2017-01-17T03:03:29Z</time>
      </trkpt>
      <trkpt lat="48.63404" lon="-1.93453">
        <ele>38</ele>
        <time>2017-01-17T03:05:29Z</time>
      </trkpt>
      <trkpt lat="48.63411" lon="-1.93442">
        <ele>38</ele>
        <time>2017-01-17T03:07:29Z</time>
      </trkpt>
      <trkpt lat="48.63418" lon="-1.93433">
        <ele>38</ele>
        <time>2017-01-17T03:09:29Z</time>
      </trkpt>
      <trkpt lat="48.63429" lon="-1.9343">
        <ele>39</ele>
        <time>2017-01-17T03:11:29Z</time>
      </trkpt>
      <trkpt lat="48.63439" lon="-1.93431">
        <ele>39</ele>
        <time>2017-01-17T03:13:29Z</time>
      </trkpt>
      <trkpt lat="48.63468" lon="-1.9344">
        <ele>39</ele>
        <time>2017-01-17T03:15:29Z</time>
      </trkpt>
      <trkpt lat="48.63479" lon="-1.93442">
        <ele>39</ele>
        <time>2017-01-17T03:17:29Z</time>
      </trkpt>
      <trkpt lat="48.63488" lon="-1.93445">
        <ele>39</ele>
        <time>2017-01-17T03:19:29Z</time>
      </trkpt>
      <trkpt lat="48.63497" lon="-1.93446">
        <ele>39</ele>
        <time>2017-01-17T03:21:29Z</time>
      </trkpt>
      <trkpt lat="48.63507" lon="-1.93448">
        <ele>38</ele>
        <time>2017-01-17T03:23:29Z</time>
      </trkpt>
      <trkpt lat="48.63536" lon="-1.93459">
        <ele>37</ele>
        <time>2017-01-17T03:25:29Z</time>
      </trkpt>
      <trkpt lat="48.63557" lon="-1.93465">
        <ele>37</ele>
        <time>2017-01-17T03:27:29Z</time>
      </trkpt>
      <trkpt lat="48.63566" lon="-1.93468">
        <ele>36</ele>
        <time>2017-01-17T03:29:29Z</time>
      </trkpt>
      <trkpt lat="48.63576" lon="-1.93472">
        <ele>36</ele>
        <time>2017-01-17T03:31:29Z</time>
      </trkpt>
      <trkpt lat="48.63584" lon="-1.9348">
        <ele>35</ele>
        <time>2017-01-17T03:33:29Z</time>
      </trkpt>
      <trkpt lat="48.63586" lon="-1.93493">
        <ele>35</ele>
        <time>2017-01-17T03:35:29Z</time>
      </trkpt>
      <trkpt lat="48.6358" lon="-1.93493">
        <ele>35</ele>
        <time>2017-01-17T03:37:29Z</time>
      </trkpt>
      <trkpt lat="48.63578" lon="-1.93496">
        <ele>35</ele>
        <time>2017-01-17T03:39:29Z</time>
      </trkpt>
      <trkpt lat="48.63577" lon="-1.93492">
        <ele>35</ele>
        <time>2017-01-17T03:41:29Z</time>
      </trkpt>
      <trkpt lat="48.63579" lon="-1.93491">
        <ele>35</ele>
        <time>2017-01-17T03:43:29Z</time>
      </trkpt>
    </trkseg>
  </trk>
</gpx>